<?xml version="1.0" encoding="UTF-8" standalone="no" ?>
<gpx xmlns="http://www.topografix.com/GPX/1/1" xmlns:xsi="http://www.w3.org/2001/XMLSchema-instance" xsi:schemaLocation="http://www.topografix.com/GPX/1/1 http://www.topografix.com/GPX/1/1/gpx.xsd" version="1.1" creator="VisuGPX - https://www.visugpx.com">
  <metadata>
    <name>Tour antécime du grd Mont, grd Mont, col du Dard, pointe du Dard</name>
    <desc><![CDATA[Sortie ski de rando du 15/03/2012]]></desc>
  </metadata>
  <trk>
    <name><![CDATA[TOUR Grd Mont]]></name>
    <trkseg>
      <trkpt lat="45.63947" lon="6.5508">
        <ele>2253.47</ele>
        <time>2012-03-16T10:31:22Z</time>
      </trkpt>
      <trkpt lat="45.63947" lon="6.5508">
        <ele>2244.33</ele>
        <time>2012-03-16T10:31:23Z</time>
      </trkpt>
      <trkpt lat="45.63947" lon="6.55079">
        <ele>2248.66</ele>
        <time>2012-03-16T10:31:26Z</time>
      </trkpt>
      <trkpt lat="45.63948" lon="6.5508">
        <ele>2253.95</ele>
        <time>2012-03-16T10:31:29Z</time>
      </trkpt>
      <trkpt lat="45.63948" lon="6.5508">
        <ele>2257.79</ele>
        <time>2012-03-16T10:31:30Z</time>
      </trkpt>
      <trkpt lat="45.63948" lon="6.5508">
        <ele>2263.08</ele>
        <time>2012-03-16T10:31:34Z</time>
      </trkpt>
      <trkpt lat="45.63948" lon="6.55081">
        <ele>2266.45</ele>
        <time>2012-03-16T10:31:36Z</time>
      </trkpt>
      <trkpt lat="45.63948" lon="6.55082">
        <ele>2271.25</ele>
        <time>2012-03-16T10:31:38Z</time>
      </trkpt>
      <trkpt lat="45.63948" lon="6.55082">
        <ele>2271.25</ele>
        <time>2012-03-16T10:31:39Z</time>
      </trkpt>
      <trkpt lat="45.63948" lon="6.55083">
        <ele>2274.62</ele>
        <time>2012-03-16T10:31:43Z</time>
      </trkpt>
      <trkpt lat="45.63948" lon="6.55083">
        <ele>2278.46</ele>
        <time>2012-03-16T10:31:46Z</time>
      </trkpt>
      <trkpt lat="45.63948" lon="6.55082">
        <ele>2282.31</ele>
        <time>2012-03-16T10:31:49Z</time>
      </trkpt>
      <trkpt lat="45.63947" lon="6.55083">
        <ele>2285.67</ele>
        <time>2012-03-16T10:31:53Z</time>
      </trkpt>
      <trkpt lat="45.63947" lon="6.55083">
        <ele>2288.56</ele>
        <time>2012-03-16T10:31:56Z</time>
      </trkpt>
      <trkpt lat="45.63946" lon="6.55084">
        <ele>2291.92</ele>
        <time>2012-03-16T10:32:00Z</time>
      </trkpt>
      <trkpt lat="45.63945" lon="6.55083">
        <ele>2295.28</ele>
        <time>2012-03-16T10:32:06Z</time>
      </trkpt>
      <trkpt lat="45.63946" lon="6.55083">
        <ele>2295.28</ele>
        <time>2012-03-16T10:32:07Z</time>
      </trkpt>
      <trkpt lat="45.63944" lon="6.55083">
        <ele>2297.69</ele>
        <time>2012-03-16T10:32:11Z</time>
      </trkpt>
      <trkpt lat="45.63944" lon="6.55083">
        <ele>2300.09</ele>
        <time>2012-03-16T10:32:15Z</time>
      </trkpt>
      <trkpt lat="45.63943" lon="6.55083">
        <ele>2303.46</ele>
        <time>2012-03-16T10:32:24Z</time>
      </trkpt>
      <trkpt lat="45.63943" lon="6.55083">
        <ele>2306.82</ele>
        <time>2012-03-16T10:32:41Z</time>
      </trkpt>
      <trkpt lat="45.63944" lon="6.5508">
        <ele>2310.19</ele>
        <time>2012-03-16T10:33:21Z</time>
      </trkpt>
      <trkpt lat="45.63945" lon="6.55081">
        <ele>2309.22</ele>
        <time>2012-03-16T10:33:37Z</time>
      </trkpt>
      <trkpt lat="45.63945" lon="6.55081">
        <ele>2302.49</ele>
        <time>2012-03-16T10:33:58Z</time>
      </trkpt>
      <trkpt lat="45.63945" lon="6.55081">
        <ele>2313.55</ele>
        <time>2012-03-16T10:33:59Z</time>
      </trkpt>
      <trkpt lat="45.63945" lon="6.55081">
        <ele>2310.19</ele>
        <time>2012-03-16T10:34:00Z</time>
      </trkpt>
      <trkpt lat="45.63945" lon="6.55081">
        <ele>2309.7</ele>
        <time>2012-03-16T10:34:05Z</time>
      </trkpt>
      <trkpt lat="45.63945" lon="6.55082">
        <ele>2304.42</ele>
        <time>2012-03-16T10:34:17Z</time>
      </trkpt>
      <trkpt lat="45.63945" lon="6.55082">
        <ele>2310.67</ele>
        <time>2012-03-16T10:34:18Z</time>
      </trkpt>
      <trkpt lat="45.63945" lon="6.55081">
        <ele>2290.48</ele>
        <time>2012-03-16T10:34:37Z</time>
      </trkpt>
      <trkpt lat="45.63945" lon="6.55081">
        <ele>2310.19</ele>
        <time>2012-03-16T10:34:38Z</time>
      </trkpt>
      <trkpt lat="45.63943" lon="6.55082">
        <ele>2295.77</ele>
        <time>2012-03-16T10:34:46Z</time>
      </trkpt>
      <trkpt lat="45.63943" lon="6.55082">
        <ele>2311.15</ele>
        <time>2012-03-16T10:34:47Z</time>
      </trkpt>
      <trkpt lat="45.63943" lon="6.55082">
        <ele>2310.67</ele>
        <time>2012-03-16T10:34:48Z</time>
      </trkpt>
      <trkpt lat="45.63943" lon="6.55082">
        <ele>2309.7</ele>
        <time>2012-03-16T10:35:12Z</time>
      </trkpt>
      <trkpt lat="45.63944" lon="6.55085">
        <ele>2309.7</ele>
        <time>2012-03-16T10:36:56Z</time>
      </trkpt>
      <trkpt lat="45.63944" lon="6.55085">
        <ele>2313.07</ele>
        <time>2012-03-16T10:36:57Z</time>
      </trkpt>
      <trkpt lat="45.63944" lon="6.55084">
        <ele>2321.24</ele>
        <time>2012-03-16T10:37:13Z</time>
      </trkpt>
      <trkpt lat="45.63944" lon="6.55084">
        <ele>2313.07</ele>
        <time>2012-03-16T10:37:14Z</time>
      </trkpt>
      <trkpt lat="45.63944" lon="6.55084">
        <ele>2310.67</ele>
        <time>2012-03-16T10:37:17Z</time>
      </trkpt>
      <trkpt lat="45.63944" lon="6.55084">
        <ele>2311.15</ele>
        <time>2012-03-16T10:37:40Z</time>
      </trkpt>
      <trkpt lat="45.63944" lon="6.55084">
        <ele>2316.91</ele>
        <time>2012-03-16T10:37:44Z</time>
      </trkpt>
      <trkpt lat="45.63944" lon="6.55084">
        <ele>2311.63</ele>
        <time>2012-03-16T10:37:45Z</time>
      </trkpt>
      <trkpt lat="45.63944" lon="6.55084">
        <ele>2314.99</ele>
        <time>2012-03-16T10:37:48Z</time>
      </trkpt>
      <trkpt lat="45.63944" lon="6.55084">
        <ele>2311.63</ele>
        <time>2012-03-16T10:37:49Z</time>
      </trkpt>
      <trkpt lat="45.63944" lon="6.55084">
        <ele>2308.26</ele>
        <time>2012-03-16T10:38:23Z</time>
      </trkpt>
      <trkpt lat="45.63944" lon="6.55084">
        <ele>2311.15</ele>
        <time>2012-03-16T10:38:24Z</time>
      </trkpt>
      <trkpt lat="45.63944" lon="6.55084">
        <ele>2305.86</ele>
        <time>2012-03-16T10:39:01Z</time>
      </trkpt>
      <trkpt lat="45.63944" lon="6.55084">
        <ele>2312.11</ele>
        <time>2012-03-16T10:39:02Z</time>
      </trkpt>
      <trkpt lat="45.63944" lon="6.55084">
        <ele>2308.26</ele>
        <time>2012-03-16T10:39:07Z</time>
      </trkpt>
      <trkpt lat="45.63944" lon="6.55084">
        <ele>2311.63</ele>
        <time>2012-03-16T10:39:08Z</time>
      </trkpt>
      <trkpt lat="45.63944" lon="6.55084">
        <ele>2312.11</ele>
        <time>2012-03-16T10:39:27Z</time>
      </trkpt>
      <trkpt lat="45.63944" lon="6.55084">
        <ele>2305.86</ele>
        <time>2012-03-16T10:39:29Z</time>
      </trkpt>
      <trkpt lat="45.63944" lon="6.55084">
        <ele>2312.11</ele>
        <time>2012-03-16T10:39:30Z</time>
      </trkpt>
      <trkpt lat="45.63944" lon="6.55084">
        <ele>2307.78</ele>
        <time>2012-03-16T10:40:16Z</time>
      </trkpt>
      <trkpt lat="45.63944" lon="6.55084">
        <ele>2311.63</ele>
        <time>2012-03-16T10:40:17Z</time>
      </trkpt>
      <trkpt lat="45.63944" lon="6.55084">
        <ele>2307.3</ele>
        <time>2012-03-16T10:40:18Z</time>
      </trkpt>
      <trkpt lat="45.63944" lon="6.55084">
        <ele>2311.63</ele>
        <time>2012-03-16T10:40:19Z</time>
      </trkpt>
      <trkpt lat="45.63944" lon="6.55084">
        <ele>2308.26</ele>
        <time>2012-03-16T10:40:21Z</time>
      </trkpt>
      <trkpt lat="45.63944" lon="6.55084">
        <ele>2311.63</ele>
        <time>2012-03-16T10:40:22Z</time>
      </trkpt>
      <trkpt lat="45.63944" lon="6.55084">
        <ele>2308.74</ele>
        <time>2012-03-16T10:40:25Z</time>
      </trkpt>
      <trkpt lat="45.63944" lon="6.55084">
        <ele>2312.59</ele>
        <time>2012-03-16T10:40:27Z</time>
      </trkpt>
      <trkpt lat="45.63944" lon="6.55084">
        <ele>2372.19</ele>
        <time>2012-03-16T10:40:28Z</time>
      </trkpt>
      <trkpt lat="45.63944" lon="6.55084">
        <ele>2372.19</ele>
        <time>2012-03-16T10:40:29Z</time>
      </trkpt>
      <trkpt lat="45.63945" lon="6.55082">
        <ele>2371.23</ele>
        <time>2012-03-16T10:40:50Z</time>
      </trkpt>
      <trkpt lat="45.63945" lon="6.55082">
        <ele>2369.79</ele>
        <time>2012-03-16T10:41:07Z</time>
      </trkpt>
      <trkpt lat="45.63945" lon="6.55081">
        <ele>2369.79</ele>
        <time>2012-03-16T10:41:24Z</time>
      </trkpt>
      <trkpt lat="45.63945" lon="6.55081">
        <ele>2370.27</ele>
        <time>2012-03-16T10:41:34Z</time>
      </trkpt>
      <trkpt lat="45.63945" lon="6.55081">
        <ele>2368.83</ele>
        <time>2012-03-16T10:41:37Z</time>
      </trkpt>
      <trkpt lat="45.63945" lon="6.55081">
        <ele>2368.83</ele>
        <time>2012-03-16T10:42:28Z</time>
      </trkpt>
      <trkpt lat="45.63945" lon="6.55081">
        <ele>2368.83</ele>
        <time>2012-03-16T10:42:36Z</time>
      </trkpt>
      <trkpt lat="45.63945" lon="6.55081">
        <ele>2367.86</ele>
        <time>2012-03-16T10:42:38Z</time>
      </trkpt>
      <trkpt lat="45.63945" lon="6.55081">
        <ele>2360.17</ele>
        <time>2012-03-16T10:42:41Z</time>
      </trkpt>
      <trkpt lat="45.63945" lon="6.55081">
        <ele>2365.94</ele>
        <time>2012-03-16T10:42:42Z</time>
      </trkpt>
      <trkpt lat="45.63944" lon="6.55083">
        <ele>2368.83</ele>
        <time>2012-03-16T10:42:44Z</time>
      </trkpt>
      <trkpt lat="45.63939" lon="6.55087">
        <ele>2368.35</ele>
        <time>2012-03-16T10:42:48Z</time>
      </trkpt>
      <trkpt lat="45.63933" lon="6.55094">
        <ele>2368.35</ele>
        <time>2012-03-16T10:43:01Z</time>
      </trkpt>
      <trkpt lat="45.63928" lon="6.551">
        <ele>2367.38</ele>
        <time>2012-03-16T10:43:34Z</time>
      </trkpt>
      <trkpt lat="45.63916" lon="6.55106">
        <ele>2369.79</ele>
        <time>2012-03-16T10:43:45Z</time>
      </trkpt>
      <trkpt lat="45.63911" lon="6.55103">
        <ele>2370.27</ele>
        <time>2012-03-16T10:44:02Z</time>
      </trkpt>
      <trkpt lat="45.63911" lon="6.55098">
        <ele>2370.27</ele>
        <time>2012-03-16T10:44:06Z</time>
      </trkpt>
      <trkpt lat="45.63907" lon="6.55078">
        <ele>2373.15</ele>
        <time>2012-03-16T10:44:21Z</time>
      </trkpt>
      <trkpt lat="45.63905" lon="6.55076">
        <ele>2375.07</ele>
        <time>2012-03-16T10:44:24Z</time>
      </trkpt>
      <trkpt lat="45.63898" lon="6.55073">
        <ele>2377</ele>
        <time>2012-03-16T10:44:30Z</time>
      </trkpt>
      <trkpt lat="45.63891" lon="6.55069">
        <ele>2377.96</ele>
        <time>2012-03-16T10:44:40Z</time>
      </trkpt>
      <trkpt lat="45.63885" lon="6.5507">
        <ele>2381.32</ele>
        <time>2012-03-16T10:44:51Z</time>
      </trkpt>
      <trkpt lat="45.6388" lon="6.55063">
        <ele>2383.25</ele>
        <time>2012-03-16T10:45:01Z</time>
      </trkpt>
      <trkpt lat="45.63881" lon="6.55052">
        <ele>2384.21</ele>
        <time>2012-03-16T10:45:12Z</time>
      </trkpt>
      <trkpt lat="45.63878" lon="6.55046">
        <ele>2388.05</ele>
        <time>2012-03-16T10:45:19Z</time>
      </trkpt>
      <trkpt lat="45.6387" lon="6.55036">
        <ele>2389.49</ele>
        <time>2012-03-16T10:45:34Z</time>
      </trkpt>
      <trkpt lat="45.63859" lon="6.55037">
        <ele>2391.9</ele>
        <time>2012-03-16T10:45:49Z</time>
      </trkpt>
      <trkpt lat="45.63858" lon="6.55039">
        <ele>2390.46</ele>
        <time>2012-03-16T10:46:35Z</time>
      </trkpt>
      <trkpt lat="45.63857" lon="6.5504">
        <ele>2390.94</ele>
        <time>2012-03-16T10:46:36Z</time>
      </trkpt>
      <trkpt lat="45.63854" lon="6.55051">
        <ele>2394.3</ele>
        <time>2012-03-16T10:46:45Z</time>
      </trkpt>
      <trkpt lat="45.63849" lon="6.55056">
        <ele>2393.82</ele>
        <time>2012-03-16T10:46:51Z</time>
      </trkpt>
      <trkpt lat="45.63838" lon="6.55066">
        <ele>2396.7</ele>
        <time>2012-03-16T10:47:06Z</time>
      </trkpt>
      <trkpt lat="45.63826" lon="6.5508">
        <ele>2396.7</ele>
        <time>2012-03-16T10:47:21Z</time>
      </trkpt>
      <trkpt lat="45.63816" lon="6.55093">
        <ele>2399.59</ele>
        <time>2012-03-16T10:47:35Z</time>
      </trkpt>
      <trkpt lat="45.63807" lon="6.55102">
        <ele>2400.55</ele>
        <time>2012-03-16T10:47:47Z</time>
      </trkpt>
      <trkpt lat="45.63792" lon="6.55107">
        <ele>2401.99</ele>
        <time>2012-03-16T10:48:03Z</time>
      </trkpt>
      <trkpt lat="45.63781" lon="6.55112">
        <ele>2403.43</ele>
        <time>2012-03-16T10:48:17Z</time>
      </trkpt>
      <trkpt lat="45.63769" lon="6.55119">
        <ele>2405.36</ele>
        <time>2012-03-16T10:48:30Z</time>
      </trkpt>
      <trkpt lat="45.63757" lon="6.55126">
        <ele>2404.88</ele>
        <time>2012-03-16T10:48:42Z</time>
      </trkpt>
      <trkpt lat="45.63746" lon="6.55133">
        <ele>2405.36</ele>
        <time>2012-03-16T10:48:54Z</time>
      </trkpt>
      <trkpt lat="45.63735" lon="6.55133">
        <ele>2407.28</ele>
        <time>2012-03-16T10:49:08Z</time>
      </trkpt>
      <trkpt lat="45.63722" lon="6.55128">
        <ele>2409.68</ele>
        <time>2012-03-16T10:49:24Z</time>
      </trkpt>
      <trkpt lat="45.63713" lon="6.55126">
        <ele>2411.12</ele>
        <time>2012-03-16T10:49:34Z</time>
      </trkpt>
      <trkpt lat="45.63699" lon="6.5512">
        <ele>2409.68</ele>
        <time>2012-03-16T10:49:49Z</time>
      </trkpt>
      <trkpt lat="45.63688" lon="6.55114">
        <ele>2412.57</ele>
        <time>2012-03-16T10:50:02Z</time>
      </trkpt>
      <trkpt lat="45.63674" lon="6.55108">
        <ele>2413.53</ele>
        <time>2012-03-16T10:50:17Z</time>
      </trkpt>
      <trkpt lat="45.6366" lon="6.55101">
        <ele>2413.05</ele>
        <time>2012-03-16T10:50:30Z</time>
      </trkpt>
      <trkpt lat="45.63644" lon="6.55094">
        <ele>2411.6</ele>
        <time>2012-03-16T10:50:43Z</time>
      </trkpt>
      <trkpt lat="45.63639" lon="6.55091">
        <ele>2412.09</ele>
        <time>2012-03-16T10:50:57Z</time>
      </trkpt>
      <trkpt lat="45.63632" lon="6.55086">
        <ele>2413.05</ele>
        <time>2012-03-16T10:51:04Z</time>
      </trkpt>
      <trkpt lat="45.63616" lon="6.55078">
        <ele>2413.53</ele>
        <time>2012-03-16T10:51:20Z</time>
      </trkpt>
      <trkpt lat="45.63611" lon="6.55075">
        <ele>2416.89</ele>
        <time>2012-03-16T10:51:27Z</time>
      </trkpt>
      <trkpt lat="45.63601" lon="6.55071">
        <ele>2417.85</ele>
        <time>2012-03-16T10:51:41Z</time>
      </trkpt>
      <trkpt lat="45.63592" lon="6.55067">
        <ele>2419.3</ele>
        <time>2012-03-16T10:51:52Z</time>
      </trkpt>
      <trkpt lat="45.63584" lon="6.5506">
        <ele>2419.78</ele>
        <time>2012-03-16T10:52:04Z</time>
      </trkpt>
      <trkpt lat="45.63583" lon="6.5506">
        <ele>2421.22</ele>
        <time>2012-03-16T10:52:05Z</time>
      </trkpt>
      <trkpt lat="45.63575" lon="6.55046">
        <ele>2423.62</ele>
        <time>2012-03-16T10:52:21Z</time>
      </trkpt>
      <trkpt lat="45.63568" lon="6.55033">
        <ele>2424.1</ele>
        <time>2012-03-16T10:52:35Z</time>
      </trkpt>
      <trkpt lat="45.63562" lon="6.55024">
        <ele>2427.95</ele>
        <time>2012-03-16T10:52:46Z</time>
      </trkpt>
      <trkpt lat="45.63561" lon="6.55023">
        <ele>2427.95</ele>
        <time>2012-03-16T10:52:47Z</time>
      </trkpt>
      <trkpt lat="45.63552" lon="6.55016">
        <ele>2429.39</ele>
        <time>2012-03-16T10:53:01Z</time>
      </trkpt>
      <trkpt lat="45.63545" lon="6.55011">
        <ele>2431.31</ele>
        <time>2012-03-16T10:53:10Z</time>
      </trkpt>
      <trkpt lat="45.63543" lon="6.55009">
        <ele>2428.91</ele>
        <time>2012-03-16T10:53:12Z</time>
      </trkpt>
      <trkpt lat="45.63541" lon="6.55007">
        <ele>2432.27</ele>
        <time>2012-03-16T10:53:15Z</time>
      </trkpt>
      <trkpt lat="45.63532" lon="6.55">
        <ele>2432.75</ele>
        <time>2012-03-16T10:53:28Z</time>
      </trkpt>
      <trkpt lat="45.63522" lon="6.54994">
        <ele>2434.2</ele>
        <time>2012-03-16T10:53:41Z</time>
      </trkpt>
      <trkpt lat="45.63512" lon="6.54984">
        <ele>2435.64</ele>
        <time>2012-03-16T10:53:56Z</time>
      </trkpt>
      <trkpt lat="45.63509" lon="6.54981">
        <ele>2437.08</ele>
        <time>2012-03-16T10:53:59Z</time>
      </trkpt>
      <trkpt lat="45.635" lon="6.54975">
        <ele>2438.04</ele>
        <time>2012-03-16T10:54:12Z</time>
      </trkpt>
      <trkpt lat="45.63491" lon="6.5497">
        <ele>2439.96</ele>
        <time>2012-03-16T10:54:25Z</time>
      </trkpt>
      <trkpt lat="45.63485" lon="6.54967">
        <ele>2443.33</ele>
        <time>2012-03-16T10:54:34Z</time>
      </trkpt>
      <trkpt lat="45.6348" lon="6.54964">
        <ele>2443.81</ele>
        <time>2012-03-16T10:54:41Z</time>
      </trkpt>
      <trkpt lat="45.63476" lon="6.54962">
        <ele>2441.89</ele>
        <time>2012-03-16T10:54:46Z</time>
      </trkpt>
      <trkpt lat="45.63467" lon="6.54958">
        <ele>2445.73</ele>
        <time>2012-03-16T10:54:56Z</time>
      </trkpt>
      <trkpt lat="45.63455" lon="6.54964">
        <ele>2446.69</ele>
        <time>2012-03-16T10:55:10Z</time>
      </trkpt>
      <trkpt lat="45.63453" lon="6.54965">
        <ele>2446.21</ele>
        <time>2012-03-16T10:55:13Z</time>
      </trkpt>
      <trkpt lat="45.63451" lon="6.54965">
        <ele>2447.65</ele>
        <time>2012-03-16T10:55:16Z</time>
      </trkpt>
      <trkpt lat="45.6344" lon="6.54961">
        <ele>2450.06</ele>
        <time>2012-03-16T10:55:30Z</time>
      </trkpt>
      <trkpt lat="45.63425" lon="6.5496">
        <ele>2450.06</ele>
        <time>2012-03-16T10:55:46Z</time>
      </trkpt>
      <trkpt lat="45.63419" lon="6.54958">
        <ele>2452.94</ele>
        <time>2012-03-16T10:55:53Z</time>
      </trkpt>
      <trkpt lat="45.63415" lon="6.54958">
        <ele>2450.06</ele>
        <time>2012-03-16T10:55:58Z</time>
      </trkpt>
      <trkpt lat="45.63415" lon="6.54958">
        <ele>2454.38</ele>
        <time>2012-03-16T10:55:59Z</time>
      </trkpt>
      <trkpt lat="45.63404" lon="6.54959">
        <ele>2454.86</ele>
        <time>2012-03-16T10:56:12Z</time>
      </trkpt>
      <trkpt lat="45.63392" lon="6.54959">
        <ele>2457.27</ele>
        <time>2012-03-16T10:56:27Z</time>
      </trkpt>
      <trkpt lat="45.63388" lon="6.54958">
        <ele>2458.71</ele>
        <time>2012-03-16T10:56:32Z</time>
      </trkpt>
      <trkpt lat="45.63378" lon="6.54953">
        <ele>2457.75</ele>
        <time>2012-03-16T10:56:46Z</time>
      </trkpt>
      <trkpt lat="45.63375" lon="6.54951">
        <ele>2462.07</ele>
        <time>2012-03-16T10:56:50Z</time>
      </trkpt>
      <trkpt lat="45.63365" lon="6.54947">
        <ele>2462.55</ele>
        <time>2012-03-16T10:57:03Z</time>
      </trkpt>
      <trkpt lat="45.63354" lon="6.54945">
        <ele>2464.96</ele>
        <time>2012-03-16T10:57:17Z</time>
      </trkpt>
      <trkpt lat="45.63349" lon="6.54943">
        <ele>2466.88</ele>
        <time>2012-03-16T10:57:25Z</time>
      </trkpt>
      <trkpt lat="45.6334" lon="6.54933">
        <ele>2469.28</ele>
        <time>2012-03-16T10:57:38Z</time>
      </trkpt>
      <trkpt lat="45.63328" lon="6.54922">
        <ele>2470.73</ele>
        <time>2012-03-16T10:57:54Z</time>
      </trkpt>
      <trkpt lat="45.63325" lon="6.5492">
        <ele>2468.8</ele>
        <time>2012-03-16T10:57:58Z</time>
      </trkpt>
      <trkpt lat="45.63317" lon="6.54915">
        <ele>2471.69</ele>
        <time>2012-03-16T10:58:07Z</time>
      </trkpt>
      <trkpt lat="45.63305" lon="6.54904">
        <ele>2473.13</ele>
        <time>2012-03-16T10:58:22Z</time>
      </trkpt>
      <trkpt lat="45.633" lon="6.54899">
        <ele>2476.01</ele>
        <time>2012-03-16T10:58:32Z</time>
      </trkpt>
      <trkpt lat="45.63293" lon="6.54892">
        <ele>2476.49</ele>
        <time>2012-03-16T10:58:44Z</time>
      </trkpt>
      <trkpt lat="45.63285" lon="6.54884">
        <ele>2479.38</ele>
        <time>2012-03-16T10:58:55Z</time>
      </trkpt>
      <trkpt lat="45.63276" lon="6.54876">
        <ele>2481.3</ele>
        <time>2012-03-16T10:59:09Z</time>
      </trkpt>
      <trkpt lat="45.63264" lon="6.54866">
        <ele>2483.7</ele>
        <time>2012-03-16T10:59:25Z</time>
      </trkpt>
      <trkpt lat="45.63255" lon="6.54858">
        <ele>2483.7</ele>
        <time>2012-03-16T10:59:38Z</time>
      </trkpt>
      <trkpt lat="45.63247" lon="6.54851">
        <ele>2484.66</ele>
        <time>2012-03-16T10:59:47Z</time>
      </trkpt>
      <trkpt lat="45.63235" lon="6.54838">
        <ele>2485.15</ele>
        <time>2012-03-16T11:00:01Z</time>
      </trkpt>
      <trkpt lat="45.63221" lon="6.54827">
        <ele>2486.11</ele>
        <time>2012-03-16T11:00:15Z</time>
      </trkpt>
      <trkpt lat="45.63209" lon="6.54819">
        <ele>2485.63</ele>
        <time>2012-03-16T11:00:27Z</time>
      </trkpt>
      <trkpt lat="45.63209" lon="6.54819">
        <ele>2485.63</ele>
        <time>2012-03-16T11:00:28Z</time>
      </trkpt>
      <trkpt lat="45.63201" lon="6.54813">
        <ele>2484.18</ele>
        <time>2012-03-16T11:00:37Z</time>
      </trkpt>
      <trkpt lat="45.63197" lon="6.54811">
        <ele>2485.63</ele>
        <time>2012-03-16T11:00:41Z</time>
      </trkpt>
      <trkpt lat="45.63183" lon="6.54802">
        <ele>2486.11</ele>
        <time>2012-03-16T11:00:56Z</time>
      </trkpt>
      <trkpt lat="45.63173" lon="6.54798">
        <ele>2487.07</ele>
        <time>2012-03-16T11:01:07Z</time>
      </trkpt>
      <trkpt lat="45.63162" lon="6.54789">
        <ele>2488.03</ele>
        <time>2012-03-16T11:01:22Z</time>
      </trkpt>
      <trkpt lat="45.63151" lon="6.54782">
        <ele>2490.43</ele>
        <time>2012-03-16T11:01:36Z</time>
      </trkpt>
      <trkpt lat="45.63138" lon="6.54776">
        <ele>2490.43</ele>
        <time>2012-03-16T11:01:52Z</time>
      </trkpt>
      <trkpt lat="45.63127" lon="6.54766">
        <ele>2492.84</ele>
        <time>2012-03-16T11:02:06Z</time>
      </trkpt>
      <trkpt lat="45.63115" lon="6.54752">
        <ele>2493.8</ele>
        <time>2012-03-16T11:02:22Z</time>
      </trkpt>
      <trkpt lat="45.63106" lon="6.54744">
        <ele>2495.24</ele>
        <time>2012-03-16T11:02:34Z</time>
      </trkpt>
      <trkpt lat="45.63102" lon="6.54739">
        <ele>2495.72</ele>
        <time>2012-03-16T11:02:41Z</time>
      </trkpt>
      <trkpt lat="45.63092" lon="6.54732">
        <ele>2497.64</ele>
        <time>2012-03-16T11:02:51Z</time>
      </trkpt>
      <trkpt lat="45.63077" lon="6.54721">
        <ele>2496.2</ele>
        <time>2012-03-16T11:03:08Z</time>
      </trkpt>
      <trkpt lat="45.63068" lon="6.54713">
        <ele>2497.64</ele>
        <time>2012-03-16T11:03:19Z</time>
      </trkpt>
      <trkpt lat="45.63058" lon="6.54708">
        <ele>2497.64</ele>
        <time>2012-03-16T11:03:32Z</time>
      </trkpt>
      <trkpt lat="45.63044" lon="6.54702">
        <ele>2500.05</ele>
        <time>2012-03-16T11:03:47Z</time>
      </trkpt>
      <trkpt lat="45.63029" lon="6.54694">
        <ele>2501.49</ele>
        <time>2012-03-16T11:04:04Z</time>
      </trkpt>
      <trkpt lat="45.63017" lon="6.54682">
        <ele>2502.45</ele>
        <time>2012-03-16T11:04:19Z</time>
      </trkpt>
      <trkpt lat="45.63011" lon="6.54672">
        <ele>2503.41</ele>
        <time>2012-03-16T11:04:31Z</time>
      </trkpt>
      <trkpt lat="45.63005" lon="6.54667">
        <ele>2506.29</ele>
        <time>2012-03-16T11:04:40Z</time>
      </trkpt>
      <trkpt lat="45.62997" lon="6.54663">
        <ele>2508.7</ele>
        <time>2012-03-16T11:04:53Z</time>
      </trkpt>
      <trkpt lat="45.62997" lon="6.54663">
        <ele>2504.37</ele>
        <time>2012-03-16T11:04:54Z</time>
      </trkpt>
      <trkpt lat="45.62996" lon="6.54663">
        <ele>2508.7</ele>
        <time>2012-03-16T11:04:55Z</time>
      </trkpt>
      <trkpt lat="45.62993" lon="6.54662">
        <ele>2508.7</ele>
        <time>2012-03-16T11:04:59Z</time>
      </trkpt>
      <trkpt lat="45.62988" lon="6.54658">
        <ele>2512.06</ele>
        <time>2012-03-16T11:05:08Z</time>
      </trkpt>
      <trkpt lat="45.62985" lon="6.54655">
        <ele>2512.06</ele>
        <time>2012-03-16T11:05:12Z</time>
      </trkpt>
      <trkpt lat="45.62979" lon="6.54648">
        <ele>2513.02</ele>
        <time>2012-03-16T11:05:23Z</time>
      </trkpt>
      <trkpt lat="45.62975" lon="6.54638">
        <ele>2512.06</ele>
        <time>2012-03-16T11:05:35Z</time>
      </trkpt>
      <trkpt lat="45.62972" lon="6.54632">
        <ele>2515.43</ele>
        <time>2012-03-16T11:05:40Z</time>
      </trkpt>
      <trkpt lat="45.62969" lon="6.54622">
        <ele>2518.79</ele>
        <time>2012-03-16T11:05:50Z</time>
      </trkpt>
      <trkpt lat="45.62969" lon="6.54616">
        <ele>2517.35</ele>
        <time>2012-03-16T11:05:55Z</time>
      </trkpt>
      <trkpt lat="45.62968" lon="6.54606">
        <ele>2518.79</ele>
        <time>2012-03-16T11:06:01Z</time>
      </trkpt>
      <trkpt lat="45.6297" lon="6.54598">
        <ele>2520.23</ele>
        <time>2012-03-16T11:06:08Z</time>
      </trkpt>
      <trkpt lat="45.62971" lon="6.54593">
        <ele>2516.39</ele>
        <time>2012-03-16T11:06:12Z</time>
      </trkpt>
      <trkpt lat="45.62971" lon="6.54593">
        <ele>2522.16</ele>
        <time>2012-03-16T11:06:13Z</time>
      </trkpt>
      <trkpt lat="45.62967" lon="6.54584">
        <ele>2522.16</ele>
        <time>2012-03-16T11:06:24Z</time>
      </trkpt>
      <trkpt lat="45.6296" lon="6.54579">
        <ele>2525.52</ele>
        <time>2012-03-16T11:06:37Z</time>
      </trkpt>
      <trkpt lat="45.62956" lon="6.54577">
        <ele>2525.52</ele>
        <time>2012-03-16T11:06:43Z</time>
      </trkpt>
      <trkpt lat="45.62954" lon="6.54577">
        <ele>2524.56</ele>
        <time>2012-03-16T11:06:45Z</time>
      </trkpt>
      <trkpt lat="45.6295" lon="6.54576">
        <ele>2528.4</ele>
        <time>2012-03-16T11:06:52Z</time>
      </trkpt>
      <trkpt lat="45.62944" lon="6.54572">
        <ele>2528.4</ele>
        <time>2012-03-16T11:07:03Z</time>
      </trkpt>
      <trkpt lat="45.62936" lon="6.54563">
        <ele>2530.33</ele>
        <time>2012-03-16T11:07:18Z</time>
      </trkpt>
      <trkpt lat="45.62931" lon="6.54559">
        <ele>2531.77</ele>
        <time>2012-03-16T11:07:24Z</time>
      </trkpt>
      <trkpt lat="45.62921" lon="6.54552">
        <ele>2534.17</ele>
        <time>2012-03-16T11:07:38Z</time>
      </trkpt>
      <trkpt lat="45.62913" lon="6.54546">
        <ele>2533.21</ele>
        <time>2012-03-16T11:07:52Z</time>
      </trkpt>
      <trkpt lat="45.62913" lon="6.54546">
        <ele>2536.58</ele>
        <time>2012-03-16T11:07:53Z</time>
      </trkpt>
      <trkpt lat="45.62904" lon="6.54539">
        <ele>2538.98</ele>
        <time>2012-03-16T11:08:07Z</time>
      </trkpt>
      <trkpt lat="45.62894" lon="6.54533">
        <ele>2542.82</ele>
        <time>2012-03-16T11:08:20Z</time>
      </trkpt>
      <trkpt lat="45.62888" lon="6.54531">
        <ele>2538.5</ele>
        <time>2012-03-16T11:08:28Z</time>
      </trkpt>
      <trkpt lat="45.62888" lon="6.54531">
        <ele>2543.31</ele>
        <time>2012-03-16T11:08:29Z</time>
      </trkpt>
      <trkpt lat="45.62883" lon="6.54531">
        <ele>2544.75</ele>
        <time>2012-03-16T11:08:35Z</time>
      </trkpt>
      <trkpt lat="45.62877" lon="6.54531">
        <ele>2543.31</ele>
        <time>2012-03-16T11:08:44Z</time>
      </trkpt>
      <trkpt lat="45.62876" lon="6.54531">
        <ele>2545.71</ele>
        <time>2012-03-16T11:08:46Z</time>
      </trkpt>
      <trkpt lat="45.62872" lon="6.54529">
        <ele>2548.59</ele>
        <time>2012-03-16T11:08:50Z</time>
      </trkpt>
      <trkpt lat="45.62867" lon="6.54526">
        <ele>2545.23</ele>
        <time>2012-03-16T11:08:58Z</time>
      </trkpt>
      <trkpt lat="45.62865" lon="6.54525">
        <ele>2550.51</ele>
        <time>2012-03-16T11:09:01Z</time>
      </trkpt>
      <trkpt lat="45.62862" lon="6.54522">
        <ele>2545.71</ele>
        <time>2012-03-16T11:09:06Z</time>
      </trkpt>
      <trkpt lat="45.62861" lon="6.54521">
        <ele>2549.07</ele>
        <time>2012-03-16T11:09:07Z</time>
      </trkpt>
      <trkpt lat="45.62859" lon="6.54517">
        <ele>2549.55</ele>
        <time>2012-03-16T11:09:11Z</time>
      </trkpt>
      <trkpt lat="45.62858" lon="6.54506">
        <ele>2551</ele>
        <time>2012-03-16T11:09:19Z</time>
      </trkpt>
      <trkpt lat="45.62857" lon="6.54502">
        <ele>2547.63</ele>
        <time>2012-03-16T11:09:23Z</time>
      </trkpt>
      <trkpt lat="45.62857" lon="6.54501">
        <ele>2552.44</ele>
        <time>2012-03-16T11:09:24Z</time>
      </trkpt>
      <trkpt lat="45.62856" lon="6.54497">
        <ele>2552.92</ele>
        <time>2012-03-16T11:09:28Z</time>
      </trkpt>
      <trkpt lat="45.62857" lon="6.54494">
        <ele>2551.48</ele>
        <time>2012-03-16T11:09:30Z</time>
      </trkpt>
      <trkpt lat="45.62859" lon="6.54488">
        <ele>2552.92</ele>
        <time>2012-03-16T11:09:36Z</time>
      </trkpt>
      <trkpt lat="45.62864" lon="6.54475">
        <ele>2554.84</ele>
        <time>2012-03-16T11:09:51Z</time>
      </trkpt>
      <trkpt lat="45.62865" lon="6.54475">
        <ele>2552.44</ele>
        <time>2012-03-16T11:10:14Z</time>
      </trkpt>
      <trkpt lat="45.62865" lon="6.54475">
        <ele>2555.8</ele>
        <time>2012-03-16T11:10:15Z</time>
      </trkpt>
      <trkpt lat="45.62865" lon="6.54475">
        <ele>2553.4</ele>
        <time>2012-03-16T11:11:07Z</time>
      </trkpt>
      <trkpt lat="45.62865" lon="6.54475">
        <ele>2554.84</ele>
        <time>2012-03-16T11:11:27Z</time>
      </trkpt>
      <trkpt lat="45.62865" lon="6.54475">
        <ele>2553.88</ele>
        <time>2012-03-16T11:11:29Z</time>
      </trkpt>
      <trkpt lat="45.62865" lon="6.54474">
        <ele>2553.4</ele>
        <time>2012-03-16T11:11:59Z</time>
      </trkpt>
      <trkpt lat="45.62872" lon="6.54475">
        <ele>2553.88</ele>
        <time>2012-03-16T11:12:17Z</time>
      </trkpt>
      <trkpt lat="45.62882" lon="6.54471">
        <ele>2556.76</ele>
        <time>2012-03-16T11:12:30Z</time>
      </trkpt>
      <trkpt lat="45.62891" lon="6.54467">
        <ele>2558.21</ele>
        <time>2012-03-16T11:12:46Z</time>
      </trkpt>
      <trkpt lat="45.62896" lon="6.54459">
        <ele>2560.61</ele>
        <time>2012-03-16T11:12:55Z</time>
      </trkpt>
      <trkpt lat="45.62903" lon="6.54454">
        <ele>2562.05</ele>
        <time>2012-03-16T11:13:04Z</time>
      </trkpt>
      <trkpt lat="45.62911" lon="6.54446">
        <ele>2563.49</ele>
        <time>2012-03-16T11:13:17Z</time>
      </trkpt>
      <trkpt lat="45.6292" lon="6.5444">
        <ele>2567.34</ele>
        <time>2012-03-16T11:13:31Z</time>
      </trkpt>
      <trkpt lat="45.62927" lon="6.54436">
        <ele>2568.3</ele>
        <time>2012-03-16T11:13:43Z</time>
      </trkpt>
      <trkpt lat="45.62937" lon="6.54428">
        <ele>2569.26</ele>
        <time>2012-03-16T11:13:58Z</time>
      </trkpt>
      <trkpt lat="45.62939" lon="6.54421">
        <ele>2573.11</ele>
        <time>2012-03-16T11:14:05Z</time>
      </trkpt>
      <trkpt lat="45.62943" lon="6.54413">
        <ele>2571.66</ele>
        <time>2012-03-16T11:14:15Z</time>
      </trkpt>
      <trkpt lat="45.62944" lon="6.54413">
        <ele>2574.55</ele>
        <time>2012-03-16T11:14:16Z</time>
      </trkpt>
      <trkpt lat="45.62949" lon="6.54409">
        <ele>2576.47</ele>
        <time>2012-03-16T11:14:24Z</time>
      </trkpt>
      <trkpt lat="45.62952" lon="6.54406">
        <ele>2575.99</ele>
        <time>2012-03-16T11:14:28Z</time>
      </trkpt>
      <trkpt lat="45.62959" lon="6.54397">
        <ele>2579.35</ele>
        <time>2012-03-16T11:14:44Z</time>
      </trkpt>
      <trkpt lat="45.62967" lon="6.5439">
        <ele>2578.87</ele>
        <time>2012-03-16T11:14:55Z</time>
      </trkpt>
      <trkpt lat="45.62969" lon="6.54387">
        <ele>2582.24</ele>
        <time>2012-03-16T11:14:59Z</time>
      </trkpt>
      <trkpt lat="45.62969" lon="6.54387">
        <ele>2582.24</ele>
        <time>2012-03-16T11:15:00Z</time>
      </trkpt>
      <trkpt lat="45.62978" lon="6.54376">
        <ele>2583.68</ele>
        <time>2012-03-16T11:15:15Z</time>
      </trkpt>
      <trkpt lat="45.62982" lon="6.54373">
        <ele>2584.16</ele>
        <time>2012-03-16T11:15:20Z</time>
      </trkpt>
      <trkpt lat="45.62991" lon="6.54368">
        <ele>2584.64</ele>
        <time>2012-03-16T11:15:35Z</time>
      </trkpt>
      <trkpt lat="45.62996" lon="6.54364">
        <ele>2588.01</ele>
        <time>2012-03-16T11:15:43Z</time>
      </trkpt>
      <trkpt lat="45.63005" lon="6.5436">
        <ele>2589.45</ele>
        <time>2012-03-16T11:15:56Z</time>
      </trkpt>
      <trkpt lat="45.63006" lon="6.54359">
        <ele>2591.37</ele>
        <time>2012-03-16T11:15:58Z</time>
      </trkpt>
      <trkpt lat="45.63009" lon="6.54356">
        <ele>2592.81</ele>
        <time>2012-03-16T11:16:17Z</time>
      </trkpt>
      <trkpt lat="45.63017" lon="6.54344">
        <ele>2594.74</ele>
        <time>2012-03-16T11:16:30Z</time>
      </trkpt>
      <trkpt lat="45.6302" lon="6.54332">
        <ele>2597.14</ele>
        <time>2012-03-16T11:16:43Z</time>
      </trkpt>
      <trkpt lat="45.63027" lon="6.54322">
        <ele>2598.1</ele>
        <time>2012-03-16T11:16:59Z</time>
      </trkpt>
      <trkpt lat="45.63034" lon="6.54305">
        <ele>2597.14</ele>
        <time>2012-03-16T11:17:24Z</time>
      </trkpt>
      <trkpt lat="45.63035" lon="6.54302">
        <ele>2597.14</ele>
        <time>2012-03-16T11:17:25Z</time>
      </trkpt>
      <trkpt lat="45.63044" lon="6.54285">
        <ele>2597.14</ele>
        <time>2012-03-16T11:17:37Z</time>
      </trkpt>
      <trkpt lat="45.63057" lon="6.54274">
        <ele>2597.62</ele>
        <time>2012-03-16T11:17:54Z</time>
      </trkpt>
      <trkpt lat="45.63063" lon="6.54268">
        <ele>2600.5</ele>
        <time>2012-03-16T11:18:02Z</time>
      </trkpt>
      <trkpt lat="45.63072" lon="6.54258">
        <ele>2603.39</ele>
        <time>2012-03-16T11:18:16Z</time>
      </trkpt>
      <trkpt lat="45.63081" lon="6.54247">
        <ele>2605.31</ele>
        <time>2012-03-16T11:18:31Z</time>
      </trkpt>
      <trkpt lat="45.63088" lon="6.54238">
        <ele>2608.67</ele>
        <time>2012-03-16T11:18:43Z</time>
      </trkpt>
      <trkpt lat="45.63088" lon="6.54226">
        <ele>2609.64</ele>
        <time>2012-03-16T11:18:56Z</time>
      </trkpt>
      <trkpt lat="45.63088" lon="6.54225">
        <ele>2608.67</ele>
        <time>2012-03-16T11:18:57Z</time>
      </trkpt>
      <trkpt lat="45.63088" lon="6.54214">
        <ele>2612.04</ele>
        <time>2012-03-16T11:19:07Z</time>
      </trkpt>
      <trkpt lat="45.631" lon="6.54208">
        <ele>2614.92</ele>
        <time>2012-03-16T11:19:24Z</time>
      </trkpt>
      <trkpt lat="45.63101" lon="6.542">
        <ele>2616.85</ele>
        <time>2012-03-16T11:19:37Z</time>
      </trkpt>
      <trkpt lat="45.63097" lon="6.54189">
        <ele>2617.33</ele>
        <time>2012-03-16T11:19:51Z</time>
      </trkpt>
      <trkpt lat="45.63096" lon="6.54187">
        <ele>2621.17</ele>
        <time>2012-03-16T11:19:54Z</time>
      </trkpt>
      <trkpt lat="45.63093" lon="6.54174">
        <ele>2622.61</ele>
        <time>2012-03-16T11:20:08Z</time>
      </trkpt>
      <trkpt lat="45.63101" lon="6.54174">
        <ele>2625.98</ele>
        <time>2012-03-16T11:20:21Z</time>
      </trkpt>
      <trkpt lat="45.63107" lon="6.54166">
        <ele>2626.94</ele>
        <time>2012-03-16T11:20:35Z</time>
      </trkpt>
      <trkpt lat="45.63102" lon="6.54157">
        <ele>2630.79</ele>
        <time>2012-03-16T11:20:45Z</time>
      </trkpt>
      <trkpt lat="45.63098" lon="6.54149">
        <ele>2632.23</ele>
        <time>2012-03-16T11:20:54Z</time>
      </trkpt>
      <trkpt lat="45.63101" lon="6.54139">
        <ele>2632.71</ele>
        <time>2012-03-16T11:21:06Z</time>
      </trkpt>
      <trkpt lat="45.63107" lon="6.54136">
        <ele>2632.71</ele>
        <time>2012-03-16T11:21:15Z</time>
      </trkpt>
      <trkpt lat="45.63113" lon="6.54123">
        <ele>2636.55</ele>
        <time>2012-03-16T11:21:29Z</time>
      </trkpt>
      <trkpt lat="45.63114" lon="6.54109">
        <ele>2639.92</ele>
        <time>2012-03-16T11:21:42Z</time>
      </trkpt>
      <trkpt lat="45.63113" lon="6.54099">
        <ele>2639.44</ele>
        <time>2012-03-16T11:21:51Z</time>
      </trkpt>
      <trkpt lat="45.6311" lon="6.54084">
        <ele>2643.76</ele>
        <time>2012-03-16T11:22:05Z</time>
      </trkpt>
      <trkpt lat="45.63109" lon="6.54071">
        <ele>2647.61</ele>
        <time>2012-03-16T11:22:16Z</time>
      </trkpt>
      <trkpt lat="45.63107" lon="6.54064">
        <ele>2647.13</ele>
        <time>2012-03-16T11:22:29Z</time>
      </trkpt>
      <trkpt lat="45.63107" lon="6.54064">
        <ele>2647.61</ele>
        <time>2012-03-16T11:22:34Z</time>
      </trkpt>
      <trkpt lat="45.63106" lon="6.54062">
        <ele>2646.17</ele>
        <time>2012-03-16T11:22:37Z</time>
      </trkpt>
      <trkpt lat="45.63097" lon="6.54067">
        <ele>2646.65</ele>
        <time>2012-03-16T11:22:51Z</time>
      </trkpt>
      <trkpt lat="45.63096" lon="6.54062">
        <ele>2646.65</ele>
        <time>2012-03-16T11:23:02Z</time>
      </trkpt>
      <trkpt lat="45.63096" lon="6.5405">
        <ele>2648.09</ele>
        <time>2012-03-16T11:23:15Z</time>
      </trkpt>
      <trkpt lat="45.63096" lon="6.54044">
        <ele>2647.13</ele>
        <time>2012-03-16T11:23:30Z</time>
      </trkpt>
      <trkpt lat="45.63091" lon="6.54034">
        <ele>2648.57</ele>
        <time>2012-03-16T11:23:44Z</time>
      </trkpt>
      <trkpt lat="45.63088" lon="6.54025">
        <ele>2650.49</ele>
        <time>2012-03-16T11:23:53Z</time>
      </trkpt>
      <trkpt lat="45.63082" lon="6.5401">
        <ele>2651.93</ele>
        <time>2012-03-16T11:24:08Z</time>
      </trkpt>
      <trkpt lat="45.63079" lon="6.54003">
        <ele>2655.3</ele>
        <time>2012-03-16T11:24:16Z</time>
      </trkpt>
      <trkpt lat="45.63074" lon="6.5399">
        <ele>2657.22</ele>
        <time>2012-03-16T11:24:30Z</time>
      </trkpt>
      <trkpt lat="45.63073" lon="6.53986">
        <ele>2659.14</ele>
        <time>2012-03-16T11:24:47Z</time>
      </trkpt>
      <trkpt lat="45.63077" lon="6.5399">
        <ele>2658.66</ele>
        <time>2012-03-16T11:25:03Z</time>
      </trkpt>
      <trkpt lat="45.63074" lon="6.53977">
        <ele>2654.34</ele>
        <time>2012-03-16T11:25:14Z</time>
      </trkpt>
      <trkpt lat="45.63074" lon="6.53968">
        <ele>2652.9</ele>
        <time>2012-03-16T11:25:16Z</time>
      </trkpt>
      <trkpt lat="45.63087" lon="6.53945">
        <ele>2647.13</ele>
        <time>2012-03-16T11:25:20Z</time>
      </trkpt>
      <trkpt lat="45.63096" lon="6.53929">
        <ele>2638.96</ele>
        <time>2012-03-16T11:25:22Z</time>
      </trkpt>
      <trkpt lat="45.63099" lon="6.5392">
        <ele>2638.48</ele>
        <time>2012-03-16T11:25:23Z</time>
      </trkpt>
      <trkpt lat="45.63103" lon="6.53907">
        <ele>2641.84</ele>
        <time>2012-03-16T11:25:26Z</time>
      </trkpt>
      <trkpt lat="45.63102" lon="6.53907">
        <ele>2642.32</ele>
        <time>2012-03-16T11:25:27Z</time>
      </trkpt>
      <trkpt lat="45.63102" lon="6.53897">
        <ele>2645.21</ele>
        <time>2012-03-16T11:25:37Z</time>
      </trkpt>
      <trkpt lat="45.63101" lon="6.53883">
        <ele>2646.17</ele>
        <time>2012-03-16T11:25:49Z</time>
      </trkpt>
      <trkpt lat="45.63101" lon="6.53875">
        <ele>2648.09</ele>
        <time>2012-03-16T11:25:59Z</time>
      </trkpt>
      <trkpt lat="45.631" lon="6.53866">
        <ele>2649.53</ele>
        <time>2012-03-16T11:26:08Z</time>
      </trkpt>
      <trkpt lat="45.63097" lon="6.53853">
        <ele>2651.93</ele>
        <time>2012-03-16T11:26:21Z</time>
      </trkpt>
      <trkpt lat="45.63096" lon="6.53842">
        <ele>2653.38</ele>
        <time>2012-03-16T11:26:35Z</time>
      </trkpt>
      <trkpt lat="45.63098" lon="6.53838">
        <ele>2656.74</ele>
        <time>2012-03-16T11:26:41Z</time>
      </trkpt>
      <trkpt lat="45.63099" lon="6.53838">
        <ele>2653.38</ele>
        <time>2012-03-16T11:26:43Z</time>
      </trkpt>
      <trkpt lat="45.63099" lon="6.53838">
        <ele>2656.74</ele>
        <time>2012-03-16T11:26:44Z</time>
      </trkpt>
      <trkpt lat="45.63108" lon="6.53836">
        <ele>2656.74</ele>
        <time>2012-03-16T11:26:56Z</time>
      </trkpt>
      <trkpt lat="45.63111" lon="6.5383">
        <ele>2660.11</ele>
        <time>2012-03-16T11:27:05Z</time>
      </trkpt>
      <trkpt lat="45.63111" lon="6.53829">
        <ele>2660.11</ele>
        <time>2012-03-16T11:27:06Z</time>
      </trkpt>
      <trkpt lat="45.63104" lon="6.53819">
        <ele>2660.59</ele>
        <time>2012-03-16T11:27:19Z</time>
      </trkpt>
      <trkpt lat="45.63103" lon="6.53818">
        <ele>2660.59</ele>
        <time>2012-03-16T11:27:21Z</time>
      </trkpt>
      <trkpt lat="45.63093" lon="6.5381">
        <ele>2660.59</ele>
        <time>2012-03-16T11:27:34Z</time>
      </trkpt>
      <trkpt lat="45.63085" lon="6.53801">
        <ele>2663.47</ele>
        <time>2012-03-16T11:27:47Z</time>
      </trkpt>
      <trkpt lat="45.63085" lon="6.53799">
        <ele>2662.03</ele>
        <time>2012-03-16T11:27:49Z</time>
      </trkpt>
      <trkpt lat="45.63083" lon="6.53797">
        <ele>2665.39</ele>
        <time>2012-03-16T11:27:52Z</time>
      </trkpt>
      <trkpt lat="45.63083" lon="6.53797">
        <ele>2664.91</ele>
        <time>2012-03-16T11:27:53Z</time>
      </trkpt>
      <trkpt lat="45.6308" lon="6.53792">
        <ele>2664.91</ele>
        <time>2012-03-16T11:28:10Z</time>
      </trkpt>
      <trkpt lat="45.6308" lon="6.53792">
        <ele>2665.87</ele>
        <time>2012-03-16T11:28:37Z</time>
      </trkpt>
      <trkpt lat="45.63083" lon="6.53789">
        <ele>2664.91</ele>
        <time>2012-03-16T11:28:40Z</time>
      </trkpt>
      <trkpt lat="45.63099" lon="6.53796">
        <ele>2662.03</ele>
        <time>2012-03-16T11:28:50Z</time>
      </trkpt>
      <trkpt lat="45.6311" lon="6.53798">
        <ele>2663.95</ele>
        <time>2012-03-16T11:29:02Z</time>
      </trkpt>
      <trkpt lat="45.63114" lon="6.53796">
        <ele>2663.95</ele>
        <time>2012-03-16T11:29:08Z</time>
      </trkpt>
      <trkpt lat="45.63121" lon="6.53793">
        <ele>2666.35</ele>
        <time>2012-03-16T11:29:24Z</time>
      </trkpt>
      <trkpt lat="45.63127" lon="6.53789">
        <ele>2668.28</ele>
        <time>2012-03-16T11:29:43Z</time>
      </trkpt>
      <trkpt lat="45.63137" lon="6.53783">
        <ele>2671.16</ele>
        <time>2012-03-16T11:29:56Z</time>
      </trkpt>
      <trkpt lat="45.63145" lon="6.53774">
        <ele>2673.08</ele>
        <time>2012-03-16T11:30:10Z</time>
      </trkpt>
      <trkpt lat="45.63153" lon="6.5377">
        <ele>2674.04</ele>
        <time>2012-03-16T11:30:25Z</time>
      </trkpt>
      <trkpt lat="45.63157" lon="6.53767">
        <ele>2677.41</ele>
        <time>2012-03-16T11:30:31Z</time>
      </trkpt>
      <trkpt lat="45.63163" lon="6.53756">
        <ele>2677.89</ele>
        <time>2012-03-16T11:30:45Z</time>
      </trkpt>
      <trkpt lat="45.63164" lon="6.53753">
        <ele>2679.81</ele>
        <time>2012-03-16T11:30:49Z</time>
      </trkpt>
      <trkpt lat="45.63166" lon="6.53745">
        <ele>2679.81</ele>
        <time>2012-03-16T11:31:04Z</time>
      </trkpt>
      <trkpt lat="45.63168" lon="6.53735">
        <ele>2682.7</ele>
        <time>2012-03-16T11:31:39Z</time>
      </trkpt>
      <trkpt lat="45.63169" lon="6.53732">
        <ele>2682.7</ele>
        <time>2012-03-16T11:31:42Z</time>
      </trkpt>
      <trkpt lat="45.6317" lon="6.53726">
        <ele>2682.22</ele>
        <time>2012-03-16T11:31:47Z</time>
      </trkpt>
      <trkpt lat="45.63166" lon="6.53711">
        <ele>2684.14</ele>
        <time>2012-03-16T11:32:00Z</time>
      </trkpt>
      <trkpt lat="45.63163" lon="6.53703">
        <ele>2687.5</ele>
        <time>2012-03-16T11:32:11Z</time>
      </trkpt>
      <trkpt lat="45.63164" lon="6.53698">
        <ele>2685.58</ele>
        <time>2012-03-16T11:32:14Z</time>
      </trkpt>
      <trkpt lat="45.63162" lon="6.53682">
        <ele>2688.46</ele>
        <time>2012-03-16T11:32:27Z</time>
      </trkpt>
      <trkpt lat="45.63161" lon="6.5368">
        <ele>2688.94</ele>
        <time>2012-03-16T11:32:42Z</time>
      </trkpt>
      <trkpt lat="45.63161" lon="6.53679">
        <ele>2688.94</ele>
        <time>2012-03-16T11:35:11Z</time>
      </trkpt>
      <trkpt lat="45.63161" lon="6.53679">
        <ele>2688.46</ele>
        <time>2012-03-16T11:35:20Z</time>
      </trkpt>
      <trkpt lat="45.63161" lon="6.53679">
        <ele>2688.94</ele>
        <time>2012-03-16T11:36:48Z</time>
      </trkpt>
      <trkpt lat="45.63161" lon="6.53678">
        <ele>2687.98</ele>
        <time>2012-03-16T11:39:04Z</time>
      </trkpt>
      <trkpt lat="45.63161" lon="6.53678">
        <ele>2686.54</ele>
        <time>2012-03-16T11:39:40Z</time>
      </trkpt>
      <trkpt lat="45.63161" lon="6.53678">
        <ele>2688.94</ele>
        <time>2012-03-16T11:39:42Z</time>
      </trkpt>
      <trkpt lat="45.63161" lon="6.53678">
        <ele>2687.98</ele>
        <time>2012-03-16T11:39:44Z</time>
      </trkpt>
      <trkpt lat="45.63162" lon="6.53678">
        <ele>2688.46</ele>
        <time>2012-03-16T11:40:22Z</time>
      </trkpt>
      <trkpt lat="45.63162" lon="6.53679">
        <ele>2688.46</ele>
        <time>2012-03-16T11:41:06Z</time>
      </trkpt>
      <trkpt lat="45.63163" lon="6.53686">
        <ele>2687.98</ele>
        <time>2012-03-16T11:41:08Z</time>
      </trkpt>
      <trkpt lat="45.63167" lon="6.53714">
        <ele>2684.14</ele>
        <time>2012-03-16T11:41:12Z</time>
      </trkpt>
      <trkpt lat="45.63171" lon="6.53728">
        <ele>2680.29</ele>
        <time>2012-03-16T11:41:14Z</time>
      </trkpt>
      <trkpt lat="45.63165" lon="6.53763">
        <ele>2675.01</ele>
        <time>2012-03-16T11:41:19Z</time>
      </trkpt>
      <trkpt lat="45.63163" lon="6.53766">
        <ele>2676.93</ele>
        <time>2012-03-16T11:41:20Z</time>
      </trkpt>
      <trkpt lat="45.63157" lon="6.5376">
        <ele>2674.52</ele>
        <time>2012-03-16T11:41:27Z</time>
      </trkpt>
      <trkpt lat="45.63157" lon="6.5376">
        <ele>2675.01</ele>
        <time>2012-03-16T11:41:28Z</time>
      </trkpt>
      <trkpt lat="45.63156" lon="6.53761">
        <ele>2675.49</ele>
        <time>2012-03-16T11:41:38Z</time>
      </trkpt>
      <trkpt lat="45.63153" lon="6.53776">
        <ele>2670.2</ele>
        <time>2012-03-16T11:41:43Z</time>
      </trkpt>
      <trkpt lat="45.6315" lon="6.53781">
        <ele>2672.12</ele>
        <time>2012-03-16T11:41:44Z</time>
      </trkpt>
      <trkpt lat="45.63138" lon="6.538">
        <ele>2667.8</ele>
        <time>2012-03-16T11:41:47Z</time>
      </trkpt>
      <trkpt lat="45.63125" lon="6.538">
        <ele>2664.91</ele>
        <time>2012-03-16T11:41:49Z</time>
      </trkpt>
      <trkpt lat="45.63091" lon="6.53798">
        <ele>2661.07</ele>
        <time>2012-03-16T11:41:55Z</time>
      </trkpt>
      <trkpt lat="45.63085" lon="6.53802">
        <ele>2662.03</ele>
        <time>2012-03-16T11:42:02Z</time>
      </trkpt>
      <trkpt lat="45.63084" lon="6.53802">
        <ele>2662.03</ele>
        <time>2012-03-16T11:42:15Z</time>
      </trkpt>
      <trkpt lat="45.63088" lon="6.53812">
        <ele>2658.66</ele>
        <time>2012-03-16T11:42:18Z</time>
      </trkpt>
      <trkpt lat="45.6309" lon="6.53816">
        <ele>2659.14</ele>
        <time>2012-03-16T11:42:19Z</time>
      </trkpt>
      <trkpt lat="45.63093" lon="6.5382">
        <ele>2657.7</ele>
        <time>2012-03-16T11:42:20Z</time>
      </trkpt>
      <trkpt lat="45.63099" lon="6.53828">
        <ele>2656.74</ele>
        <time>2012-03-16T11:42:22Z</time>
      </trkpt>
      <trkpt lat="45.63095" lon="6.53846">
        <ele>2652.42</ele>
        <time>2012-03-16T11:42:26Z</time>
      </trkpt>
      <trkpt lat="45.63084" lon="6.53845">
        <ele>2648.57</ele>
        <time>2012-03-16T11:42:29Z</time>
      </trkpt>
      <trkpt lat="45.63085" lon="6.5385">
        <ele>2646.17</ele>
        <time>2012-03-16T11:42:30Z</time>
      </trkpt>
      <trkpt lat="45.63076" lon="6.53859">
        <ele>2640.4</ele>
        <time>2012-03-16T11:42:35Z</time>
      </trkpt>
      <trkpt lat="45.6307" lon="6.53859">
        <ele>2636.55</ele>
        <time>2012-03-16T11:42:37Z</time>
      </trkpt>
      <trkpt lat="45.63069" lon="6.53863">
        <ele>2633.19</ele>
        <time>2012-03-16T11:42:38Z</time>
      </trkpt>
      <trkpt lat="45.63065" lon="6.53878">
        <ele>2633.67</ele>
        <time>2012-03-16T11:42:40Z</time>
      </trkpt>
      <trkpt lat="45.6306" lon="6.5389">
        <ele>2627.9</ele>
        <time>2012-03-16T11:42:43Z</time>
      </trkpt>
      <trkpt lat="45.63048" lon="6.53877">
        <ele>2625.98</ele>
        <time>2012-03-16T11:42:48Z</time>
      </trkpt>
      <trkpt lat="45.63033" lon="6.53852">
        <ele>2625.02</ele>
        <time>2012-03-16T11:42:53Z</time>
      </trkpt>
      <trkpt lat="45.63023" lon="6.53848">
        <ele>2620.69</ele>
        <time>2012-03-16T11:42:56Z</time>
      </trkpt>
      <trkpt lat="45.63019" lon="6.53847">
        <ele>2621.65</ele>
        <time>2012-03-16T11:42:57Z</time>
      </trkpt>
      <trkpt lat="45.63013" lon="6.53845">
        <ele>2618.29</ele>
        <time>2012-03-16T11:42:59Z</time>
      </trkpt>
      <trkpt lat="45.63012" lon="6.53842">
        <ele>2618.29</ele>
        <time>2012-03-16T11:43:00Z</time>
      </trkpt>
      <trkpt lat="45.63009" lon="6.53838">
        <ele>2616.85</ele>
        <time>2012-03-16T11:43:03Z</time>
      </trkpt>
      <trkpt lat="45.63003" lon="6.53844">
        <ele>2614.44</ele>
        <time>2012-03-16T11:43:06Z</time>
      </trkpt>
      <trkpt lat="45.62999" lon="6.53849">
        <ele>2614.44</ele>
        <time>2012-03-16T11:43:08Z</time>
      </trkpt>
      <trkpt lat="45.62985" lon="6.53854">
        <ele>2612.52</ele>
        <time>2012-03-16T11:43:12Z</time>
      </trkpt>
      <trkpt lat="45.62983" lon="6.53856">
        <ele>2612.52</ele>
        <time>2012-03-16T11:43:15Z</time>
      </trkpt>
      <trkpt lat="45.62977" lon="6.53853">
        <ele>2609.64</ele>
        <time>2012-03-16T11:43:18Z</time>
      </trkpt>
      <trkpt lat="45.6297" lon="6.53842">
        <ele>2605.79</ele>
        <time>2012-03-16T11:43:21Z</time>
      </trkpt>
      <trkpt lat="45.62966" lon="6.53832">
        <ele>2601.46</ele>
        <time>2012-03-16T11:43:23Z</time>
      </trkpt>
      <trkpt lat="45.62962" lon="6.53825">
        <ele>2597.14</ele>
        <time>2012-03-16T11:43:25Z</time>
      </trkpt>
      <trkpt lat="45.62963" lon="6.53821">
        <ele>2597.14</ele>
        <time>2012-03-16T11:43:26Z</time>
      </trkpt>
      <trkpt lat="45.62962" lon="6.53816">
        <ele>2592.81</ele>
        <time>2012-03-16T11:43:28Z</time>
      </trkpt>
      <trkpt lat="45.62956" lon="6.53815">
        <ele>2591.37</ele>
        <time>2012-03-16T11:43:31Z</time>
      </trkpt>
      <trkpt lat="45.62944" lon="6.53817">
        <ele>2589.45</ele>
        <time>2012-03-16T11:43:41Z</time>
      </trkpt>
      <trkpt lat="45.62944" lon="6.53817">
        <ele>2589.93</ele>
        <time>2012-03-16T11:43:55Z</time>
      </trkpt>
      <trkpt lat="45.62942" lon="6.53815">
        <ele>2587.53</ele>
        <time>2012-03-16T11:43:58Z</time>
      </trkpt>
      <trkpt lat="45.62942" lon="6.53813">
        <ele>2586.08</ele>
        <time>2012-03-16T11:44:24Z</time>
      </trkpt>
      <trkpt lat="45.62944" lon="6.5381">
        <ele>2585.6</ele>
        <time>2012-03-16T11:44:26Z</time>
      </trkpt>
      <trkpt lat="45.62945" lon="6.53809">
        <ele>2585.12</ele>
        <time>2012-03-16T11:44:51Z</time>
      </trkpt>
      <trkpt lat="45.62945" lon="6.53809">
        <ele>2584.16</ele>
        <time>2012-03-16T11:44:59Z</time>
      </trkpt>
      <trkpt lat="45.62945" lon="6.53801">
        <ele>2580.32</ele>
        <time>2012-03-16T11:45:03Z</time>
      </trkpt>
      <trkpt lat="45.6294" lon="6.53798">
        <ele>2578.87</ele>
        <time>2012-03-16T11:45:06Z</time>
      </trkpt>
      <trkpt lat="45.6294" lon="6.53792">
        <ele>2574.55</ele>
        <time>2012-03-16T11:45:08Z</time>
      </trkpt>
      <trkpt lat="45.62946" lon="6.5378">
        <ele>2569.74</ele>
        <time>2012-03-16T11:45:11Z</time>
      </trkpt>
      <trkpt lat="45.62947" lon="6.53777">
        <ele>2568.78</ele>
        <time>2012-03-16T11:45:12Z</time>
      </trkpt>
      <trkpt lat="45.62947" lon="6.5377">
        <ele>2564.93</ele>
        <time>2012-03-16T11:45:14Z</time>
      </trkpt>
      <trkpt lat="45.62942" lon="6.53771">
        <ele>2562.05</ele>
        <time>2012-03-16T11:45:17Z</time>
      </trkpt>
      <trkpt lat="45.62938" lon="6.53771">
        <ele>2560.13</ele>
        <time>2012-03-16T11:45:20Z</time>
      </trkpt>
      <trkpt lat="45.62933" lon="6.53765">
        <ele>2556.28</ele>
        <time>2012-03-16T11:45:24Z</time>
      </trkpt>
      <trkpt lat="45.62927" lon="6.53762">
        <ele>2550.03</ele>
        <time>2012-03-16T11:45:28Z</time>
      </trkpt>
      <trkpt lat="45.62926" lon="6.53761">
        <ele>2550.51</ele>
        <time>2012-03-16T11:45:29Z</time>
      </trkpt>
      <trkpt lat="45.62924" lon="6.5376">
        <ele>2546.19</ele>
        <time>2012-03-16T11:45:30Z</time>
      </trkpt>
      <trkpt lat="45.62923" lon="6.5376">
        <ele>2547.15</ele>
        <time>2012-03-16T11:45:31Z</time>
      </trkpt>
      <trkpt lat="45.62923" lon="6.53759">
        <ele>2544.75</ele>
        <time>2012-03-16T11:45:35Z</time>
      </trkpt>
      <trkpt lat="45.62922" lon="6.53752">
        <ele>2542.34</ele>
        <time>2012-03-16T11:45:37Z</time>
      </trkpt>
      <trkpt lat="45.62924" lon="6.5374">
        <ele>2536.58</ele>
        <time>2012-03-16T11:45:40Z</time>
      </trkpt>
      <trkpt lat="45.62916" lon="6.53739">
        <ele>2531.29</ele>
        <time>2012-03-16T11:45:42Z</time>
      </trkpt>
      <trkpt lat="45.62914" lon="6.53734">
        <ele>2531.29</ele>
        <time>2012-03-16T11:45:43Z</time>
      </trkpt>
      <trkpt lat="45.62912" lon="6.53721">
        <ele>2521.68</ele>
        <time>2012-03-16T11:45:46Z</time>
      </trkpt>
      <trkpt lat="45.6291" lon="6.53713">
        <ele>2516.87</ele>
        <time>2012-03-16T11:45:48Z</time>
      </trkpt>
      <trkpt lat="45.62907" lon="6.53706">
        <ele>2509.66</ele>
        <time>2012-03-16T11:45:50Z</time>
      </trkpt>
      <trkpt lat="45.62905" lon="6.53702">
        <ele>2505.81</ele>
        <time>2012-03-16T11:45:51Z</time>
      </trkpt>
      <trkpt lat="45.62903" lon="6.53698">
        <ele>2505.81</ele>
        <time>2012-03-16T11:45:52Z</time>
      </trkpt>
      <trkpt lat="45.629" lon="6.53694">
        <ele>2502.93</ele>
        <time>2012-03-16T11:45:53Z</time>
      </trkpt>
      <trkpt lat="45.6289" lon="6.53684">
        <ele>2496.68</ele>
        <time>2012-03-16T11:45:55Z</time>
      </trkpt>
      <trkpt lat="45.62866" lon="6.53664">
        <ele>2487.55</ele>
        <time>2012-03-16T11:45:58Z</time>
      </trkpt>
      <trkpt lat="45.62852" lon="6.53646">
        <ele>2484.18</ele>
        <time>2012-03-16T11:46:02Z</time>
      </trkpt>
      <trkpt lat="45.62852" lon="6.53645">
        <ele>2484.18</ele>
        <time>2012-03-16T11:46:03Z</time>
      </trkpt>
      <trkpt lat="45.62854" lon="6.53646">
        <ele>2484.66</ele>
        <time>2012-03-16T11:46:31Z</time>
      </trkpt>
      <trkpt lat="45.62863" lon="6.53625">
        <ele>2483.22</ele>
        <time>2012-03-16T11:46:37Z</time>
      </trkpt>
      <trkpt lat="45.62874" lon="6.53621">
        <ele>2482.74</ele>
        <time>2012-03-16T11:46:49Z</time>
      </trkpt>
      <trkpt lat="45.62874" lon="6.53621">
        <ele>2483.7</ele>
        <time>2012-03-16T11:47:22Z</time>
      </trkpt>
      <trkpt lat="45.62885" lon="6.53622">
        <ele>2481.78</ele>
        <time>2012-03-16T11:47:45Z</time>
      </trkpt>
      <trkpt lat="45.62906" lon="6.53596">
        <ele>2479.38</ele>
        <time>2012-03-16T11:47:51Z</time>
      </trkpt>
      <trkpt lat="45.62905" lon="6.53582">
        <ele>2477.94</ele>
        <time>2012-03-16T11:47:53Z</time>
      </trkpt>
      <trkpt lat="45.62905" lon="6.53576">
        <ele>2478.42</ele>
        <time>2012-03-16T11:47:54Z</time>
      </trkpt>
      <trkpt lat="45.62911" lon="6.53564">
        <ele>2477.45</ele>
        <time>2012-03-16T11:48:04Z</time>
      </trkpt>
      <trkpt lat="45.62912" lon="6.53563">
        <ele>2477.94</ele>
        <time>2012-03-16T11:48:08Z</time>
      </trkpt>
      <trkpt lat="45.62919" lon="6.53559">
        <ele>2475.53</ele>
        <time>2012-03-16T11:48:13Z</time>
      </trkpt>
      <trkpt lat="45.62929" lon="6.53551">
        <ele>2473.13</ele>
        <time>2012-03-16T11:48:16Z</time>
      </trkpt>
      <trkpt lat="45.62935" lon="6.53545">
        <ele>2474.09</ele>
        <time>2012-03-16T11:48:18Z</time>
      </trkpt>
      <trkpt lat="45.62934" lon="6.53538">
        <ele>2470.73</ele>
        <time>2012-03-16T11:48:21Z</time>
      </trkpt>
      <trkpt lat="45.62929" lon="6.53533">
        <ele>2467.84</ele>
        <time>2012-03-16T11:48:23Z</time>
      </trkpt>
      <trkpt lat="45.62922" lon="6.5353">
        <ele>2463.52</ele>
        <time>2012-03-16T11:48:25Z</time>
      </trkpt>
      <trkpt lat="45.62918" lon="6.5352">
        <ele>2459.67</ele>
        <time>2012-03-16T11:48:27Z</time>
      </trkpt>
      <trkpt lat="45.62912" lon="6.53512">
        <ele>2455.34</ele>
        <time>2012-03-16T11:48:29Z</time>
      </trkpt>
      <trkpt lat="45.62905" lon="6.53499">
        <ele>2450.06</ele>
        <time>2012-03-16T11:48:32Z</time>
      </trkpt>
      <trkpt lat="45.62893" lon="6.53495">
        <ele>2445.25</ele>
        <time>2012-03-16T11:48:34Z</time>
      </trkpt>
      <trkpt lat="45.62891" lon="6.53482">
        <ele>2441.89</ele>
        <time>2012-03-16T11:48:36Z</time>
      </trkpt>
      <trkpt lat="45.62888" lon="6.53477">
        <ele>2441.41</ele>
        <time>2012-03-16T11:48:37Z</time>
      </trkpt>
      <trkpt lat="45.62882" lon="6.53476">
        <ele>2438.04</ele>
        <time>2012-03-16T11:48:38Z</time>
      </trkpt>
      <trkpt lat="45.62868" lon="6.53474">
        <ele>2433.23</ele>
        <time>2012-03-16T11:48:40Z</time>
      </trkpt>
      <trkpt lat="45.62865" lon="6.53458">
        <ele>2430.35</ele>
        <time>2012-03-16T11:48:42Z</time>
      </trkpt>
      <trkpt lat="45.62866" lon="6.53447">
        <ele>2430.35</ele>
        <time>2012-03-16T11:48:43Z</time>
      </trkpt>
      <trkpt lat="45.62863" lon="6.53427">
        <ele>2426.02</ele>
        <time>2012-03-16T11:48:45Z</time>
      </trkpt>
      <trkpt lat="45.62855" lon="6.53419">
        <ele>2422.66</ele>
        <time>2012-03-16T11:48:47Z</time>
      </trkpt>
      <trkpt lat="45.62846" lon="6.5341">
        <ele>2418.81</ele>
        <time>2012-03-16T11:48:49Z</time>
      </trkpt>
      <trkpt lat="45.62843" lon="6.53395">
        <ele>2414.01</ele>
        <time>2012-03-16T11:48:51Z</time>
      </trkpt>
      <trkpt lat="45.62836" lon="6.53383">
        <ele>2409.2</ele>
        <time>2012-03-16T11:48:53Z</time>
      </trkpt>
      <trkpt lat="45.62815" lon="6.53372">
        <ele>2406.32</ele>
        <time>2012-03-16T11:48:56Z</time>
      </trkpt>
      <trkpt lat="45.62803" lon="6.53352">
        <ele>2402.47</ele>
        <time>2012-03-16T11:49:01Z</time>
      </trkpt>
      <trkpt lat="45.62803" lon="6.5335">
        <ele>2401.51</ele>
        <time>2012-03-16T11:49:03Z</time>
      </trkpt>
      <trkpt lat="45.62802" lon="6.53349">
        <ele>2401.51</ele>
        <time>2012-03-16T11:49:06Z</time>
      </trkpt>
      <trkpt lat="45.62804" lon="6.53338">
        <ele>2399.11</ele>
        <time>2012-03-16T11:49:10Z</time>
      </trkpt>
      <trkpt lat="45.62806" lon="6.53322">
        <ele>2398.15</ele>
        <time>2012-03-16T11:49:12Z</time>
      </trkpt>
      <trkpt lat="45.62802" lon="6.53281">
        <ele>2395.74</ele>
        <time>2012-03-16T11:49:16Z</time>
      </trkpt>
      <trkpt lat="45.62799" lon="6.53264">
        <ele>2394.78</ele>
        <time>2012-03-16T11:49:18Z</time>
      </trkpt>
      <trkpt lat="45.6279" lon="6.53252">
        <ele>2390.94</ele>
        <time>2012-03-16T11:49:21Z</time>
      </trkpt>
      <trkpt lat="45.62783" lon="6.53254">
        <ele>2388.05</ele>
        <time>2012-03-16T11:49:23Z</time>
      </trkpt>
      <trkpt lat="45.62777" lon="6.53245">
        <ele>2386.61</ele>
        <time>2012-03-16T11:49:25Z</time>
      </trkpt>
      <trkpt lat="45.62776" lon="6.53243">
        <ele>2383.73</ele>
        <time>2012-03-16T11:49:26Z</time>
      </trkpt>
      <trkpt lat="45.62764" lon="6.53241">
        <ele>2376.52</ele>
        <time>2012-03-16T11:49:30Z</time>
      </trkpt>
      <trkpt lat="45.62757" lon="6.53225">
        <ele>2371.71</ele>
        <time>2012-03-16T11:49:33Z</time>
      </trkpt>
      <trkpt lat="45.62753" lon="6.53217">
        <ele>2365.94</ele>
        <time>2012-03-16T11:49:35Z</time>
      </trkpt>
      <trkpt lat="45.6275" lon="6.53217">
        <ele>2365.94</ele>
        <time>2012-03-16T11:49:36Z</time>
      </trkpt>
      <trkpt lat="45.62745" lon="6.53214">
        <ele>2362.58</ele>
        <time>2012-03-16T11:49:37Z</time>
      </trkpt>
      <trkpt lat="45.62733" lon="6.53208">
        <ele>2355.85</ele>
        <time>2012-03-16T11:49:39Z</time>
      </trkpt>
      <trkpt lat="45.62727" lon="6.53208">
        <ele>2352</ele>
        <time>2012-03-16T11:49:40Z</time>
      </trkpt>
      <trkpt lat="45.62707" lon="6.5321">
        <ele>2344.79</ele>
        <time>2012-03-16T11:49:43Z</time>
      </trkpt>
      <trkpt lat="45.62701" lon="6.53213">
        <ele>2340.95</ele>
        <time>2012-03-16T11:49:44Z</time>
      </trkpt>
      <trkpt lat="45.6269" lon="6.5322">
        <ele>2336.62</ele>
        <time>2012-03-16T11:49:46Z</time>
      </trkpt>
      <trkpt lat="45.6268" lon="6.53217">
        <ele>2332.78</ele>
        <time>2012-03-16T11:49:48Z</time>
      </trkpt>
      <trkpt lat="45.62674" lon="6.53225">
        <ele>2326.53</ele>
        <time>2012-03-16T11:49:50Z</time>
      </trkpt>
      <trkpt lat="45.62663" lon="6.53236">
        <ele>2323.64</ele>
        <time>2012-03-16T11:49:52Z</time>
      </trkpt>
      <trkpt lat="45.62656" lon="6.53237">
        <ele>2319.8</ele>
        <time>2012-03-16T11:49:54Z</time>
      </trkpt>
      <trkpt lat="45.62653" lon="6.53229">
        <ele>2315.47</ele>
        <time>2012-03-16T11:49:56Z</time>
      </trkpt>
      <trkpt lat="45.62649" lon="6.53225">
        <ele>2312.11</ele>
        <time>2012-03-16T11:49:57Z</time>
      </trkpt>
      <trkpt lat="45.62635" lon="6.53214">
        <ele>2308.26</ele>
        <time>2012-03-16T11:50:00Z</time>
      </trkpt>
      <trkpt lat="45.62639" lon="6.532">
        <ele>2304.9</ele>
        <time>2012-03-16T11:50:02Z</time>
      </trkpt>
      <trkpt lat="45.62646" lon="6.53188">
        <ele>2303.46</ele>
        <time>2012-03-16T11:50:05Z</time>
      </trkpt>
      <trkpt lat="45.62645" lon="6.53181">
        <ele>2296.25</ele>
        <time>2012-03-16T11:50:09Z</time>
      </trkpt>
      <trkpt lat="45.62642" lon="6.53174">
        <ele>2292.4</ele>
        <time>2012-03-16T11:50:11Z</time>
      </trkpt>
      <trkpt lat="45.62639" lon="6.53166">
        <ele>2287.59</ele>
        <time>2012-03-16T11:50:13Z</time>
      </trkpt>
      <trkpt lat="45.62638" lon="6.53165">
        <ele>2283.75</ele>
        <time>2012-03-16T11:50:15Z</time>
      </trkpt>
      <trkpt lat="45.62635" lon="6.53158">
        <ele>2278.94</ele>
        <time>2012-03-16T11:50:18Z</time>
      </trkpt>
      <trkpt lat="45.62637" lon="6.53149">
        <ele>2274.14</ele>
        <time>2012-03-16T11:50:20Z</time>
      </trkpt>
      <trkpt lat="45.62629" lon="6.53146">
        <ele>2271.73</ele>
        <time>2012-03-16T11:50:22Z</time>
      </trkpt>
      <trkpt lat="45.62622" lon="6.53128">
        <ele>2260.2</ele>
        <time>2012-03-16T11:50:26Z</time>
      </trkpt>
      <trkpt lat="45.62623" lon="6.53121">
        <ele>2257.31</ele>
        <time>2012-03-16T11:50:27Z</time>
      </trkpt>
      <trkpt lat="45.62632" lon="6.53101">
        <ele>2254.43</ele>
        <time>2012-03-16T11:50:29Z</time>
      </trkpt>
      <trkpt lat="45.62639" lon="6.53085">
        <ele>2252.51</ele>
        <time>2012-03-16T11:50:31Z</time>
      </trkpt>
      <trkpt lat="45.62645" lon="6.53064">
        <ele>2252.03</ele>
        <time>2012-03-16T11:50:35Z</time>
      </trkpt>
      <trkpt lat="45.62646" lon="6.53055">
        <ele>2251.54</ele>
        <time>2012-03-16T11:50:37Z</time>
      </trkpt>
      <trkpt lat="45.62636" lon="6.5304">
        <ele>2243.37</ele>
        <time>2012-03-16T11:50:40Z</time>
      </trkpt>
      <trkpt lat="45.62636" lon="6.53032">
        <ele>2241.93</ele>
        <time>2012-03-16T11:50:41Z</time>
      </trkpt>
      <trkpt lat="45.62635" lon="6.53014">
        <ele>2240.01</ele>
        <time>2012-03-16T11:50:44Z</time>
      </trkpt>
      <trkpt lat="45.62634" lon="6.53012">
        <ele>2238.57</ele>
        <time>2012-03-16T11:50:50Z</time>
      </trkpt>
      <trkpt lat="45.62635" lon="6.52992">
        <ele>2235.68</ele>
        <time>2012-03-16T11:50:56Z</time>
      </trkpt>
      <trkpt lat="45.62635" lon="6.5299">
        <ele>2234.72</ele>
        <time>2012-03-16T11:51:09Z</time>
      </trkpt>
      <trkpt lat="45.6263" lon="6.52988">
        <ele>2230.88</ele>
        <time>2012-03-16T11:51:11Z</time>
      </trkpt>
      <trkpt lat="45.62627" lon="6.52986">
        <ele>2231.36</ele>
        <time>2012-03-16T11:51:12Z</time>
      </trkpt>
      <trkpt lat="45.62625" lon="6.5298">
        <ele>2227.51</ele>
        <time>2012-03-16T11:51:13Z</time>
      </trkpt>
      <trkpt lat="45.62622" lon="6.5297">
        <ele>2224.63</ele>
        <time>2012-03-16T11:51:15Z</time>
      </trkpt>
      <trkpt lat="45.62611" lon="6.52956">
        <ele>2215.98</ele>
        <time>2012-03-16T11:51:19Z</time>
      </trkpt>
      <trkpt lat="45.62604" lon="6.52951">
        <ele>2212.61</ele>
        <time>2012-03-16T11:51:21Z</time>
      </trkpt>
      <trkpt lat="45.62608" lon="6.52941">
        <ele>2209.25</ele>
        <time>2012-03-16T11:51:23Z</time>
      </trkpt>
      <trkpt lat="45.62632" lon="6.5291">
        <ele>2206.84</ele>
        <time>2012-03-16T11:51:36Z</time>
      </trkpt>
      <trkpt lat="45.62658" lon="6.52881">
        <ele>2203.48</ele>
        <time>2012-03-16T11:51:46Z</time>
      </trkpt>
      <trkpt lat="45.62682" lon="6.52853">
        <ele>2203</ele>
        <time>2012-03-16T11:51:57Z</time>
      </trkpt>
      <trkpt lat="45.627" lon="6.52813">
        <ele>2200.59</ele>
        <time>2012-03-16T11:52:10Z</time>
      </trkpt>
      <trkpt lat="45.62706" lon="6.52792">
        <ele>2199.15</ele>
        <time>2012-03-16T11:52:22Z</time>
      </trkpt>
      <trkpt lat="45.6271" lon="6.5278">
        <ele>2199.63</ele>
        <time>2012-03-16T11:52:34Z</time>
      </trkpt>
      <trkpt lat="45.62718" lon="6.52761">
        <ele>2199.15</ele>
        <time>2012-03-16T11:52:40Z</time>
      </trkpt>
      <trkpt lat="45.62718" lon="6.52756">
        <ele>2199.15</ele>
        <time>2012-03-16T11:52:53Z</time>
      </trkpt>
      <trkpt lat="45.62719" lon="6.52752">
        <ele>2199.15</ele>
        <time>2012-03-16T11:53:09Z</time>
      </trkpt>
      <trkpt lat="45.62719" lon="6.52752">
        <ele>2198.19</ele>
        <time>2012-03-16T11:54:08Z</time>
      </trkpt>
      <trkpt lat="45.62719" lon="6.52752">
        <ele>2196.75</ele>
        <time>2012-03-16T11:54:18Z</time>
      </trkpt>
      <trkpt lat="45.62719" lon="6.52752">
        <ele>2197.71</ele>
        <time>2012-03-16T11:55:21Z</time>
      </trkpt>
      <trkpt lat="45.62719" lon="6.52751">
        <ele>2196.75</ele>
        <time>2012-03-16T11:56:23Z</time>
      </trkpt>
      <trkpt lat="45.62719" lon="6.52751">
        <ele>2196.75</ele>
        <time>2012-03-16T11:56:28Z</time>
      </trkpt>
      <trkpt lat="45.62719" lon="6.52752">
        <ele>2197.23</ele>
        <time>2012-03-16T11:57:14Z</time>
      </trkpt>
      <trkpt lat="45.6272" lon="6.52752">
        <ele>2195.79</ele>
        <time>2012-03-16T11:58:24Z</time>
      </trkpt>
      <trkpt lat="45.6272" lon="6.52752">
        <ele>2195.79</ele>
        <time>2012-03-16T11:59:04Z</time>
      </trkpt>
      <trkpt lat="45.6272" lon="6.52752">
        <ele>2195.79</ele>
        <time>2012-03-16T11:59:47Z</time>
      </trkpt>
      <trkpt lat="45.62719" lon="6.52752">
        <ele>2194.35</ele>
        <time>2012-03-16T12:02:00Z</time>
      </trkpt>
      <trkpt lat="45.62718" lon="6.52751">
        <ele>2194.35</ele>
        <time>2012-03-16T12:02:37Z</time>
      </trkpt>
      <trkpt lat="45.62718" lon="6.52751">
        <ele>2186.18</ele>
        <time>2012-03-16T12:03:04Z</time>
      </trkpt>
      <trkpt lat="45.62718" lon="6.52751">
        <ele>2194.83</ele>
        <time>2012-03-16T12:03:05Z</time>
      </trkpt>
      <trkpt lat="45.62719" lon="6.52751">
        <ele>2193.87</ele>
        <time>2012-03-16T12:03:38Z</time>
      </trkpt>
      <trkpt lat="45.62722" lon="6.52748">
        <ele>2194.83</ele>
        <time>2012-03-16T12:03:45Z</time>
      </trkpt>
      <trkpt lat="45.62729" lon="6.52748">
        <ele>2198.19</ele>
        <time>2012-03-16T12:03:59Z</time>
      </trkpt>
      <trkpt lat="45.6273" lon="6.52759">
        <ele>2198.67</ele>
        <time>2012-03-16T12:04:15Z</time>
      </trkpt>
      <trkpt lat="45.62732" lon="6.52765">
        <ele>2198.19</ele>
        <time>2012-03-16T12:04:31Z</time>
      </trkpt>
      <trkpt lat="45.62732" lon="6.52766">
        <ele>2201.08</ele>
        <time>2012-03-16T12:04:34Z</time>
      </trkpt>
      <trkpt lat="45.62734" lon="6.52764">
        <ele>2201.56</ele>
        <time>2012-03-16T12:04:39Z</time>
      </trkpt>
      <trkpt lat="45.62736" lon="6.52762">
        <ele>2200.59</ele>
        <time>2012-03-16T12:04:41Z</time>
      </trkpt>
      <trkpt lat="45.62738" lon="6.52761">
        <ele>2202.52</ele>
        <time>2012-03-16T12:04:45Z</time>
      </trkpt>
      <trkpt lat="45.62741" lon="6.5276">
        <ele>2203.96</ele>
        <time>2012-03-16T12:04:51Z</time>
      </trkpt>
      <trkpt lat="45.62749" lon="6.52761">
        <ele>2205.88</ele>
        <time>2012-03-16T12:05:06Z</time>
      </trkpt>
      <trkpt lat="45.62751" lon="6.52774">
        <ele>2209.73</ele>
        <time>2012-03-16T12:05:21Z</time>
      </trkpt>
      <trkpt lat="45.62752" lon="6.52775">
        <ele>2209.25</ele>
        <time>2012-03-16T12:05:29Z</time>
      </trkpt>
      <trkpt lat="45.62759" lon="6.52773">
        <ele>2212.13</ele>
        <time>2012-03-16T12:05:39Z</time>
      </trkpt>
      <trkpt lat="45.62768" lon="6.52778">
        <ele>2215.5</ele>
        <time>2012-03-16T12:05:54Z</time>
      </trkpt>
      <trkpt lat="45.62769" lon="6.52779">
        <ele>2212.13</ele>
        <time>2012-03-16T12:05:56Z</time>
      </trkpt>
      <trkpt lat="45.62771" lon="6.5278">
        <ele>2213.57</ele>
        <time>2012-03-16T12:05:59Z</time>
      </trkpt>
      <trkpt lat="45.62777" lon="6.52788">
        <ele>2216.46</ele>
        <time>2012-03-16T12:06:17Z</time>
      </trkpt>
      <trkpt lat="45.62782" lon="6.52792">
        <ele>2216.46</ele>
        <time>2012-03-16T12:06:24Z</time>
      </trkpt>
      <trkpt lat="45.62791" lon="6.52797">
        <ele>2216.46</ele>
        <time>2012-03-16T12:06:36Z</time>
      </trkpt>
      <trkpt lat="45.62796" lon="6.52796">
        <ele>2216.94</ele>
        <time>2012-03-16T12:06:49Z</time>
      </trkpt>
      <trkpt lat="45.628" lon="6.52795">
        <ele>2216.46</ele>
        <time>2012-03-16T12:07:03Z</time>
      </trkpt>
      <trkpt lat="45.62804" lon="6.52796">
        <ele>2219.34</ele>
        <time>2012-03-16T12:07:12Z</time>
      </trkpt>
      <trkpt lat="45.6281" lon="6.52797">
        <ele>2218.86</ele>
        <time>2012-03-16T12:07:24Z</time>
      </trkpt>
      <trkpt lat="45.62815" lon="6.52798">
        <ele>2221.26</ele>
        <time>2012-03-16T12:07:36Z</time>
      </trkpt>
      <trkpt lat="45.62815" lon="6.52798">
        <ele>2223.19</ele>
        <time>2012-03-16T12:07:51Z</time>
      </trkpt>
      <trkpt lat="45.62815" lon="6.52798">
        <ele>2223.19</ele>
        <time>2012-03-16T12:07:57Z</time>
      </trkpt>
      <trkpt lat="45.62825" lon="6.52801">
        <ele>2224.15</ele>
        <time>2012-03-16T12:08:10Z</time>
      </trkpt>
      <trkpt lat="45.62825" lon="6.52801">
        <ele>2224.15</ele>
        <time>2012-03-16T12:08:24Z</time>
      </trkpt>
      <trkpt lat="45.62829" lon="6.52803">
        <ele>2224.15</ele>
        <time>2012-03-16T12:08:37Z</time>
      </trkpt>
      <trkpt lat="45.62829" lon="6.52803">
        <ele>2226.07</ele>
        <time>2012-03-16T12:08:54Z</time>
      </trkpt>
      <trkpt lat="45.62837" lon="6.52814">
        <ele>2226.07</ele>
        <time>2012-03-16T12:09:06Z</time>
      </trkpt>
      <trkpt lat="45.62843" lon="6.52819">
        <ele>2227.03</ele>
        <time>2012-03-16T12:09:18Z</time>
      </trkpt>
      <trkpt lat="45.62843" lon="6.52822">
        <ele>2227.03</ele>
        <time>2012-03-16T12:09:21Z</time>
      </trkpt>
      <trkpt lat="45.6284" lon="6.52825">
        <ele>2227.51</ele>
        <time>2012-03-16T12:09:23Z</time>
      </trkpt>
      <trkpt lat="45.62841" lon="6.5283">
        <ele>2228.47</ele>
        <time>2012-03-16T12:09:30Z</time>
      </trkpt>
      <trkpt lat="45.62841" lon="6.5283">
        <ele>2227.99</ele>
        <time>2012-03-16T12:09:31Z</time>
      </trkpt>
      <trkpt lat="45.6286" lon="6.52833">
        <ele>2228.47</ele>
        <time>2012-03-16T12:09:42Z</time>
      </trkpt>
      <trkpt lat="45.62898" lon="6.52831">
        <ele>2228.95</ele>
        <time>2012-03-16T12:09:57Z</time>
      </trkpt>
      <trkpt lat="45.62907" lon="6.52831">
        <ele>2230.88</ele>
        <time>2012-03-16T12:10:01Z</time>
      </trkpt>
      <trkpt lat="45.6292" lon="6.52832">
        <ele>2231.36</ele>
        <time>2012-03-16T12:10:15Z</time>
      </trkpt>
      <trkpt lat="45.62928" lon="6.52834">
        <ele>2235.2</ele>
        <time>2012-03-16T12:10:26Z</time>
      </trkpt>
      <trkpt lat="45.62936" lon="6.52837">
        <ele>2236.16</ele>
        <time>2012-03-16T12:10:40Z</time>
      </trkpt>
      <trkpt lat="45.62947" lon="6.52836">
        <ele>2239.05</ele>
        <time>2012-03-16T12:10:53Z</time>
      </trkpt>
      <trkpt lat="45.62958" lon="6.52837">
        <ele>2241.93</ele>
        <time>2012-03-16T12:11:12Z</time>
      </trkpt>
      <trkpt lat="45.62962" lon="6.52837">
        <ele>2238.57</ele>
        <time>2012-03-16T12:11:16Z</time>
      </trkpt>
      <trkpt lat="45.62966" lon="6.52837">
        <ele>2241.45</ele>
        <time>2012-03-16T12:11:23Z</time>
      </trkpt>
      <trkpt lat="45.6298" lon="6.52837">
        <ele>2241.93</ele>
        <time>2012-03-16T12:11:39Z</time>
      </trkpt>
      <trkpt lat="45.62987" lon="6.52837">
        <ele>2244.82</ele>
        <time>2012-03-16T12:11:51Z</time>
      </trkpt>
      <trkpt lat="45.62996" lon="6.52836">
        <ele>2245.3</ele>
        <time>2012-03-16T12:12:05Z</time>
      </trkpt>
      <trkpt lat="45.63004" lon="6.52836">
        <ele>2249.62</ele>
        <time>2012-03-16T12:12:20Z</time>
      </trkpt>
      <trkpt lat="45.63012" lon="6.52834">
        <ele>2249.14</ele>
        <time>2012-03-16T12:12:32Z</time>
      </trkpt>
      <trkpt lat="45.63019" lon="6.52834">
        <ele>2254.43</ele>
        <time>2012-03-16T12:12:46Z</time>
      </trkpt>
      <trkpt lat="45.6302" lon="6.52834">
        <ele>2251.06</ele>
        <time>2012-03-16T12:12:47Z</time>
      </trkpt>
      <trkpt lat="45.63021" lon="6.52835">
        <ele>2253.95</ele>
        <time>2012-03-16T12:12:50Z</time>
      </trkpt>
      <trkpt lat="45.63028" lon="6.52837">
        <ele>2255.39</ele>
        <time>2012-03-16T12:13:05Z</time>
      </trkpt>
      <trkpt lat="45.63037" lon="6.52837">
        <ele>2256.35</ele>
        <time>2012-03-16T12:13:20Z</time>
      </trkpt>
      <trkpt lat="45.63041" lon="6.5284">
        <ele>2260.2</ele>
        <time>2012-03-16T12:13:29Z</time>
      </trkpt>
      <trkpt lat="45.63047" lon="6.5285">
        <ele>2260.2</ele>
        <time>2012-03-16T12:13:46Z</time>
      </trkpt>
      <trkpt lat="45.63048" lon="6.52851">
        <ele>2263.56</ele>
        <time>2012-03-16T12:13:47Z</time>
      </trkpt>
      <trkpt lat="45.63049" lon="6.52852">
        <ele>2260.2</ele>
        <time>2012-03-16T12:13:49Z</time>
      </trkpt>
      <trkpt lat="45.6305" lon="6.52852">
        <ele>2262.12</ele>
        <time>2012-03-16T12:13:51Z</time>
      </trkpt>
      <trkpt lat="45.63051" lon="6.52857">
        <ele>2265</ele>
        <time>2012-03-16T12:13:58Z</time>
      </trkpt>
      <trkpt lat="45.63052" lon="6.52858">
        <ele>2261.64</ele>
        <time>2012-03-16T12:14:00Z</time>
      </trkpt>
      <trkpt lat="45.63053" lon="6.52858">
        <ele>2263.56</ele>
        <time>2012-03-16T12:14:02Z</time>
      </trkpt>
      <trkpt lat="45.63056" lon="6.52862">
        <ele>2265.48</ele>
        <time>2012-03-16T12:14:18Z</time>
      </trkpt>
      <trkpt lat="45.63058" lon="6.52859">
        <ele>2268.37</ele>
        <time>2012-03-16T12:14:27Z</time>
      </trkpt>
      <trkpt lat="45.63062" lon="6.52853">
        <ele>2267.41</ele>
        <time>2012-03-16T12:14:38Z</time>
      </trkpt>
      <trkpt lat="45.63063" lon="6.52852">
        <ele>2270.77</ele>
        <time>2012-03-16T12:14:40Z</time>
      </trkpt>
      <trkpt lat="45.63064" lon="6.52851">
        <ele>2266.93</ele>
        <time>2012-03-16T12:14:42Z</time>
      </trkpt>
      <trkpt lat="45.63066" lon="6.52849">
        <ele>2270.29</ele>
        <time>2012-03-16T12:14:47Z</time>
      </trkpt>
      <trkpt lat="45.63074" lon="6.52841">
        <ele>2271.73</ele>
        <time>2012-03-16T12:15:03Z</time>
      </trkpt>
      <trkpt lat="45.63079" lon="6.52837">
        <ele>2275.58</ele>
        <time>2012-03-16T12:15:12Z</time>
      </trkpt>
      <trkpt lat="45.63085" lon="6.52835">
        <ele>2274.62</ele>
        <time>2012-03-16T12:15:27Z</time>
      </trkpt>
      <trkpt lat="45.63087" lon="6.52837">
        <ele>2277.98</ele>
        <time>2012-03-16T12:15:32Z</time>
      </trkpt>
      <trkpt lat="45.63095" lon="6.52844">
        <ele>2277.02</ele>
        <time>2012-03-16T12:15:48Z</time>
      </trkpt>
      <trkpt lat="45.63098" lon="6.52846">
        <ele>2281.35</ele>
        <time>2012-03-16T12:15:53Z</time>
      </trkpt>
      <trkpt lat="45.63098" lon="6.52847">
        <ele>2277.98</ele>
        <time>2012-03-16T12:15:54Z</time>
      </trkpt>
      <trkpt lat="45.63102" lon="6.5285">
        <ele>2282.79</ele>
        <time>2012-03-16T12:16:02Z</time>
      </trkpt>
      <trkpt lat="45.63103" lon="6.52851">
        <ele>2278.94</ele>
        <time>2012-03-16T12:16:04Z</time>
      </trkpt>
      <trkpt lat="45.63106" lon="6.52853">
        <ele>2282.31</ele>
        <time>2012-03-16T12:16:09Z</time>
      </trkpt>
      <trkpt lat="45.63112" lon="6.52858">
        <ele>2285.19</ele>
        <time>2012-03-16T12:16:21Z</time>
      </trkpt>
      <trkpt lat="45.63113" lon="6.52858">
        <ele>2283.75</ele>
        <time>2012-03-16T12:16:22Z</time>
      </trkpt>
      <trkpt lat="45.63115" lon="6.52862">
        <ele>2286.15</ele>
        <time>2012-03-16T12:16:36Z</time>
      </trkpt>
      <trkpt lat="45.63123" lon="6.52863">
        <ele>2289.04</ele>
        <time>2012-03-16T12:17:23Z</time>
      </trkpt>
      <trkpt lat="45.6313" lon="6.5286">
        <ele>2292.4</ele>
        <time>2012-03-16T12:17:36Z</time>
      </trkpt>
      <trkpt lat="45.63134" lon="6.52857">
        <ele>2289.52</ele>
        <time>2012-03-16T12:17:44Z</time>
      </trkpt>
      <trkpt lat="45.63138" lon="6.52857">
        <ele>2294.8</ele>
        <time>2012-03-16T12:17:52Z</time>
      </trkpt>
      <trkpt lat="45.63146" lon="6.52852">
        <ele>2295.28</ele>
        <time>2012-03-16T12:18:09Z</time>
      </trkpt>
      <trkpt lat="45.63148" lon="6.5285">
        <ele>2296.25</ele>
        <time>2012-03-16T12:18:25Z</time>
      </trkpt>
      <trkpt lat="45.63151" lon="6.52857">
        <ele>2298.17</ele>
        <time>2012-03-16T12:18:47Z</time>
      </trkpt>
      <trkpt lat="45.63152" lon="6.52861">
        <ele>2299.13</ele>
        <time>2012-03-16T12:19:01Z</time>
      </trkpt>
      <trkpt lat="45.6316" lon="6.52867">
        <ele>2300.57</ele>
        <time>2012-03-16T12:19:14Z</time>
      </trkpt>
      <trkpt lat="45.63164" lon="6.52872">
        <ele>2302.49</ele>
        <time>2012-03-16T12:19:24Z</time>
      </trkpt>
      <trkpt lat="45.63168" lon="6.52877">
        <ele>2304.42</ele>
        <time>2012-03-16T12:19:39Z</time>
      </trkpt>
      <trkpt lat="45.63167" lon="6.52876">
        <ele>2304.42</ele>
        <time>2012-03-16T12:20:05Z</time>
      </trkpt>
      <trkpt lat="45.63167" lon="6.52876">
        <ele>2303.46</ele>
        <time>2012-03-16T12:20:17Z</time>
      </trkpt>
      <trkpt lat="45.63167" lon="6.52876">
        <ele>2303.46</ele>
        <time>2012-03-16T12:20:31Z</time>
      </trkpt>
      <trkpt lat="45.63167" lon="6.52876">
        <ele>2299.13</ele>
        <time>2012-03-16T12:20:44Z</time>
      </trkpt>
      <trkpt lat="45.63167" lon="6.52876">
        <ele>2303.94</ele>
        <time>2012-03-16T12:20:45Z</time>
      </trkpt>
      <trkpt lat="45.63166" lon="6.52874">
        <ele>2305.38</ele>
        <time>2012-03-16T12:20:54Z</time>
      </trkpt>
      <trkpt lat="45.63165" lon="6.52874">
        <ele>2304.42</ele>
        <time>2012-03-16T12:21:22Z</time>
      </trkpt>
      <trkpt lat="45.63165" lon="6.52874">
        <ele>2305.38</ele>
        <time>2012-03-16T12:21:57Z</time>
      </trkpt>
      <trkpt lat="45.63165" lon="6.52874">
        <ele>2307.3</ele>
        <time>2012-03-16T12:22:07Z</time>
      </trkpt>
      <trkpt lat="45.63171" lon="6.52887">
        <ele>2309.22</ele>
        <time>2012-03-16T12:22:21Z</time>
      </trkpt>
      <trkpt lat="45.63178" lon="6.52897">
        <ele>2311.15</ele>
        <time>2012-03-16T12:22:31Z</time>
      </trkpt>
      <trkpt lat="45.6318" lon="6.529">
        <ele>2312.11</ele>
        <time>2012-03-16T12:22:47Z</time>
      </trkpt>
      <trkpt lat="45.63184" lon="6.52904">
        <ele>2314.03</ele>
        <time>2012-03-16T12:23:06Z</time>
      </trkpt>
      <trkpt lat="45.63187" lon="6.52913">
        <ele>2315.47</ele>
        <time>2012-03-16T12:23:19Z</time>
      </trkpt>
      <trkpt lat="45.63192" lon="6.52923">
        <ele>2317.4</ele>
        <time>2012-03-16T12:23:32Z</time>
      </trkpt>
      <trkpt lat="45.63198" lon="6.52932">
        <ele>2318.84</ele>
        <time>2012-03-16T12:23:45Z</time>
      </trkpt>
      <trkpt lat="45.63202" lon="6.52934">
        <ele>2319.32</ele>
        <time>2012-03-16T12:23:51Z</time>
      </trkpt>
      <trkpt lat="45.63209" lon="6.52942">
        <ele>2322.2</ele>
        <time>2012-03-16T12:24:05Z</time>
      </trkpt>
      <trkpt lat="45.63213" lon="6.52951">
        <ele>2323.16</ele>
        <time>2012-03-16T12:24:18Z</time>
      </trkpt>
      <trkpt lat="45.63215" lon="6.52953">
        <ele>2322.68</ele>
        <time>2012-03-16T12:24:23Z</time>
      </trkpt>
      <trkpt lat="45.63217" lon="6.52957">
        <ele>2324.61</ele>
        <time>2012-03-16T12:24:27Z</time>
      </trkpt>
      <trkpt lat="45.63224" lon="6.52967">
        <ele>2326.05</ele>
        <time>2012-03-16T12:24:40Z</time>
      </trkpt>
      <trkpt lat="45.63232" lon="6.52975">
        <ele>2326.53</ele>
        <time>2012-03-16T12:24:53Z</time>
      </trkpt>
      <trkpt lat="45.63232" lon="6.52975">
        <ele>2327.97</ele>
        <time>2012-03-16T12:24:55Z</time>
      </trkpt>
      <trkpt lat="45.6324" lon="6.52982">
        <ele>2329.41</ele>
        <time>2012-03-16T12:25:10Z</time>
      </trkpt>
      <trkpt lat="45.6324" lon="6.52982">
        <ele>2329.41</ele>
        <time>2012-03-16T12:25:11Z</time>
      </trkpt>
      <trkpt lat="45.6325" lon="6.52989">
        <ele>2331.81</ele>
        <time>2012-03-16T12:25:26Z</time>
      </trkpt>
      <trkpt lat="45.6326" lon="6.52993">
        <ele>2334.22</ele>
        <time>2012-03-16T12:25:40Z</time>
      </trkpt>
      <trkpt lat="45.63268" lon="6.52997">
        <ele>2335.18</ele>
        <time>2012-03-16T12:25:52Z</time>
      </trkpt>
      <trkpt lat="45.6327" lon="6.52997">
        <ele>2336.14</ele>
        <time>2012-03-16T12:26:02Z</time>
      </trkpt>
      <trkpt lat="45.63274" lon="6.52997">
        <ele>2338.06</ele>
        <time>2012-03-16T12:26:14Z</time>
      </trkpt>
      <trkpt lat="45.6328" lon="6.52996">
        <ele>2338.54</ele>
        <time>2012-03-16T12:26:21Z</time>
      </trkpt>
      <trkpt lat="45.63288" lon="6.52996">
        <ele>2339.51</ele>
        <time>2012-03-16T12:26:33Z</time>
      </trkpt>
      <trkpt lat="45.63296" lon="6.52997">
        <ele>2341.91</ele>
        <time>2012-03-16T12:26:42Z</time>
      </trkpt>
      <trkpt lat="45.63306" lon="6.52995">
        <ele>2340.47</ele>
        <time>2012-03-16T12:26:54Z</time>
      </trkpt>
      <trkpt lat="45.63313" lon="6.52998">
        <ele>2343.35</ele>
        <time>2012-03-16T12:27:05Z</time>
      </trkpt>
      <trkpt lat="45.63317" lon="6.52999">
        <ele>2344.31</ele>
        <time>2012-03-16T12:27:11Z</time>
      </trkpt>
      <trkpt lat="45.63318" lon="6.52999">
        <ele>2343.35</ele>
        <time>2012-03-16T12:27:14Z</time>
      </trkpt>
      <trkpt lat="45.63325" lon="6.53003">
        <ele>2345.27</ele>
        <time>2012-03-16T12:27:25Z</time>
      </trkpt>
      <trkpt lat="45.63333" lon="6.53008">
        <ele>2345.27</ele>
        <time>2012-03-16T12:27:39Z</time>
      </trkpt>
      <trkpt lat="45.63341" lon="6.53013">
        <ele>2348.64</ele>
        <time>2012-03-16T12:27:50Z</time>
      </trkpt>
      <trkpt lat="45.63344" lon="6.53015">
        <ele>2348.64</ele>
        <time>2012-03-16T12:27:56Z</time>
      </trkpt>
      <trkpt lat="45.63352" lon="6.53019">
        <ele>2349.6</ele>
        <time>2012-03-16T12:28:07Z</time>
      </trkpt>
      <trkpt lat="45.6336" lon="6.53023">
        <ele>2348.64</ele>
        <time>2012-03-16T12:28:18Z</time>
      </trkpt>
      <trkpt lat="45.63367" lon="6.53028">
        <ele>2349.12</ele>
        <time>2012-03-16T12:28:32Z</time>
      </trkpt>
      <trkpt lat="45.63371" lon="6.53031">
        <ele>2349.12</ele>
        <time>2012-03-16T12:28:44Z</time>
      </trkpt>
      <trkpt lat="45.63378" lon="6.53035">
        <ele>2349.6</ele>
        <time>2012-03-16T12:28:51Z</time>
      </trkpt>
      <trkpt lat="45.6339" lon="6.53038">
        <ele>2350.08</ele>
        <time>2012-03-16T12:29:04Z</time>
      </trkpt>
      <trkpt lat="45.63393" lon="6.53038">
        <ele>2350.56</ele>
        <time>2012-03-16T12:29:07Z</time>
      </trkpt>
      <trkpt lat="45.63398" lon="6.53037">
        <ele>2351.52</ele>
        <time>2012-03-16T12:29:24Z</time>
      </trkpt>
      <trkpt lat="45.63402" lon="6.53036">
        <ele>2350.08</ele>
        <time>2012-03-16T12:29:38Z</time>
      </trkpt>
      <trkpt lat="45.63411" lon="6.53024">
        <ele>2352.96</ele>
        <time>2012-03-16T12:29:52Z</time>
      </trkpt>
      <trkpt lat="45.63414" lon="6.53017">
        <ele>2354.41</ele>
        <time>2012-03-16T12:30:06Z</time>
      </trkpt>
      <trkpt lat="45.63415" lon="6.53014">
        <ele>2356.33</ele>
        <time>2012-03-16T12:30:18Z</time>
      </trkpt>
      <trkpt lat="45.63419" lon="6.52999">
        <ele>2359.21</ele>
        <time>2012-03-16T12:30:31Z</time>
      </trkpt>
      <trkpt lat="45.63421" lon="6.52993">
        <ele>2360.17</ele>
        <time>2012-03-16T12:30:39Z</time>
      </trkpt>
      <trkpt lat="45.63422" lon="6.52989">
        <ele>2360.65</ele>
        <time>2012-03-16T12:30:47Z</time>
      </trkpt>
      <trkpt lat="45.63422" lon="6.52989">
        <ele>2362.1</ele>
        <time>2012-03-16T12:31:16Z</time>
      </trkpt>
      <trkpt lat="45.63424" lon="6.52972">
        <ele>2364.02</ele>
        <time>2012-03-16T12:31:33Z</time>
      </trkpt>
      <trkpt lat="45.63423" lon="6.52966">
        <ele>2365.46</ele>
        <time>2012-03-16T12:31:36Z</time>
      </trkpt>
      <trkpt lat="45.63421" lon="6.52956">
        <ele>2365.94</ele>
        <time>2012-03-16T12:31:48Z</time>
      </trkpt>
      <trkpt lat="45.6342" lon="6.5295">
        <ele>2365.46</ele>
        <time>2012-03-16T12:31:56Z</time>
      </trkpt>
      <trkpt lat="45.63414" lon="6.52937">
        <ele>2367.86</ele>
        <time>2012-03-16T12:32:10Z</time>
      </trkpt>
      <trkpt lat="45.63413" lon="6.52934">
        <ele>2368.35</ele>
        <time>2012-03-16T12:32:13Z</time>
      </trkpt>
      <trkpt lat="45.63408" lon="6.5292">
        <ele>2369.79</ele>
        <time>2012-03-16T12:32:27Z</time>
      </trkpt>
      <trkpt lat="45.63406" lon="6.52914">
        <ele>2368.35</ele>
        <time>2012-03-16T12:32:33Z</time>
      </trkpt>
      <trkpt lat="45.63403" lon="6.52906">
        <ele>2371.71</ele>
        <time>2012-03-16T12:32:42Z</time>
      </trkpt>
      <trkpt lat="45.63402" lon="6.52891">
        <ele>2372.19</ele>
        <time>2012-03-16T12:32:56Z</time>
      </trkpt>
      <trkpt lat="45.63403" lon="6.52877">
        <ele>2372.67</ele>
        <time>2012-03-16T12:33:10Z</time>
      </trkpt>
      <trkpt lat="45.63402" lon="6.52869">
        <ele>2372.67</ele>
        <time>2012-03-16T12:33:24Z</time>
      </trkpt>
      <trkpt lat="45.63402" lon="6.52856">
        <ele>2372.67</ele>
        <time>2012-03-16T12:33:40Z</time>
      </trkpt>
      <trkpt lat="45.63402" lon="6.52846">
        <ele>2376.52</ele>
        <time>2012-03-16T12:33:49Z</time>
      </trkpt>
      <trkpt lat="45.63401" lon="6.52831">
        <ele>2375.55</ele>
        <time>2012-03-16T12:34:02Z</time>
      </trkpt>
      <trkpt lat="45.63401" lon="6.52819">
        <ele>2377.96</ele>
        <time>2012-03-16T12:34:16Z</time>
      </trkpt>
      <trkpt lat="45.63401" lon="6.52815">
        <ele>2378.92</ele>
        <time>2012-03-16T12:34:21Z</time>
      </trkpt>
      <trkpt lat="45.63402" lon="6.52806">
        <ele>2380.84</ele>
        <time>2012-03-16T12:34:35Z</time>
      </trkpt>
      <trkpt lat="45.63404" lon="6.52797">
        <ele>2382.76</ele>
        <time>2012-03-16T12:34:48Z</time>
      </trkpt>
      <trkpt lat="45.63408" lon="6.52785">
        <ele>2384.69</ele>
        <time>2012-03-16T12:35:03Z</time>
      </trkpt>
      <trkpt lat="45.63411" lon="6.5278">
        <ele>2385.17</ele>
        <time>2012-03-16T12:35:10Z</time>
      </trkpt>
      <trkpt lat="45.63417" lon="6.52767">
        <ele>2387.09</ele>
        <time>2012-03-16T12:35:25Z</time>
      </trkpt>
      <trkpt lat="45.6342" lon="6.52762">
        <ele>2387.57</ele>
        <time>2012-03-16T12:35:35Z</time>
      </trkpt>
      <trkpt lat="45.63426" lon="6.52751">
        <ele>2388.53</ele>
        <time>2012-03-16T12:35:48Z</time>
      </trkpt>
      <trkpt lat="45.63432" lon="6.52741">
        <ele>2389.01</ele>
        <time>2012-03-16T12:35:59Z</time>
      </trkpt>
      <trkpt lat="45.63434" lon="6.52738">
        <ele>2389.49</ele>
        <time>2012-03-16T12:36:03Z</time>
      </trkpt>
      <trkpt lat="45.6344" lon="6.52723">
        <ele>2390.46</ele>
        <time>2012-03-16T12:36:17Z</time>
      </trkpt>
      <trkpt lat="45.63442" lon="6.5271">
        <ele>2391.42</ele>
        <time>2012-03-16T12:36:30Z</time>
      </trkpt>
      <trkpt lat="45.63442" lon="6.52698">
        <ele>2391.9</ele>
        <time>2012-03-16T12:36:41Z</time>
      </trkpt>
      <trkpt lat="45.63442" lon="6.52688">
        <ele>2393.82</ele>
        <time>2012-03-16T12:36:52Z</time>
      </trkpt>
      <trkpt lat="45.63442" lon="6.52687">
        <ele>2393.34</ele>
        <time>2012-03-16T12:37:14Z</time>
      </trkpt>
      <trkpt lat="45.63441" lon="6.52681">
        <ele>2396.7</ele>
        <time>2012-03-16T12:37:43Z</time>
      </trkpt>
      <trkpt lat="45.63441" lon="6.5267">
        <ele>2397.67</ele>
        <time>2012-03-16T12:37:55Z</time>
      </trkpt>
      <trkpt lat="45.63441" lon="6.52669">
        <ele>2397.67</ele>
        <time>2012-03-16T12:37:57Z</time>
      </trkpt>
      <trkpt lat="45.6344" lon="6.52661">
        <ele>2398.15</ele>
        <time>2012-03-16T12:38:07Z</time>
      </trkpt>
      <trkpt lat="45.63441" lon="6.5266">
        <ele>2399.59</ele>
        <time>2012-03-16T12:38:19Z</time>
      </trkpt>
      <trkpt lat="45.63449" lon="6.52659">
        <ele>2401.51</ele>
        <time>2012-03-16T12:38:31Z</time>
      </trkpt>
      <trkpt lat="45.63452" lon="6.52658">
        <ele>2401.03</ele>
        <time>2012-03-16T12:38:40Z</time>
      </trkpt>
      <trkpt lat="45.63452" lon="6.52658">
        <ele>2402.95</ele>
        <time>2012-03-16T12:38:47Z</time>
      </trkpt>
      <trkpt lat="45.63449" lon="6.5265">
        <ele>2404.39</ele>
        <time>2012-03-16T12:39:01Z</time>
      </trkpt>
      <trkpt lat="45.63448" lon="6.5265">
        <ele>2403.91</ele>
        <time>2012-03-16T12:39:07Z</time>
      </trkpt>
      <trkpt lat="45.63447" lon="6.52648">
        <ele>2404.88</ele>
        <time>2012-03-16T12:39:10Z</time>
      </trkpt>
      <trkpt lat="45.63445" lon="6.52644">
        <ele>2405.84</ele>
        <time>2012-03-16T12:39:16Z</time>
      </trkpt>
      <trkpt lat="45.63443" lon="6.52642">
        <ele>2408.72</ele>
        <time>2012-03-16T12:39:27Z</time>
      </trkpt>
      <trkpt lat="45.63442" lon="6.52641">
        <ele>2405.36</ele>
        <time>2012-03-16T12:39:28Z</time>
      </trkpt>
      <trkpt lat="45.63442" lon="6.52641">
        <ele>2406.8</ele>
        <time>2012-03-16T12:39:29Z</time>
      </trkpt>
      <trkpt lat="45.63444" lon="6.52641">
        <ele>2407.28</ele>
        <time>2012-03-16T12:39:46Z</time>
      </trkpt>
      <trkpt lat="45.63448" lon="6.5264">
        <ele>2409.2</ele>
        <time>2012-03-16T12:40:03Z</time>
      </trkpt>
      <trkpt lat="45.63454" lon="6.52638">
        <ele>2411.6</ele>
        <time>2012-03-16T12:40:15Z</time>
      </trkpt>
      <trkpt lat="45.63459" lon="6.52635">
        <ele>2411.6</ele>
        <time>2012-03-16T12:40:26Z</time>
      </trkpt>
      <trkpt lat="45.6346" lon="6.52634">
        <ele>2413.05</ele>
        <time>2012-03-16T12:40:34Z</time>
      </trkpt>
      <trkpt lat="45.63461" lon="6.52632">
        <ele>2414.01</ele>
        <time>2012-03-16T12:40:37Z</time>
      </trkpt>
      <trkpt lat="45.63466" lon="6.52628">
        <ele>2414.97</ele>
        <time>2012-03-16T12:40:49Z</time>
      </trkpt>
      <trkpt lat="45.63473" lon="6.52624">
        <ele>2416.41</ele>
        <time>2012-03-16T12:41:02Z</time>
      </trkpt>
      <trkpt lat="45.63479" lon="6.52624">
        <ele>2418.81</ele>
        <time>2012-03-16T12:41:11Z</time>
      </trkpt>
      <trkpt lat="45.63489" lon="6.52623">
        <ele>2419.78</ele>
        <time>2012-03-16T12:41:27Z</time>
      </trkpt>
      <trkpt lat="45.63497" lon="6.5262">
        <ele>2422.18</ele>
        <time>2012-03-16T12:41:40Z</time>
      </trkpt>
      <trkpt lat="45.63498" lon="6.5262">
        <ele>2421.7</ele>
        <time>2012-03-16T12:41:41Z</time>
      </trkpt>
      <trkpt lat="45.63499" lon="6.52619">
        <ele>2420.74</ele>
        <time>2012-03-16T12:41:43Z</time>
      </trkpt>
      <trkpt lat="45.63502" lon="6.52619">
        <ele>2422.66</ele>
        <time>2012-03-16T12:41:47Z</time>
      </trkpt>
      <trkpt lat="45.63505" lon="6.52617">
        <ele>2422.66</ele>
        <time>2012-03-16T12:41:53Z</time>
      </trkpt>
      <trkpt lat="45.63512" lon="6.52614">
        <ele>2423.62</ele>
        <time>2012-03-16T12:42:05Z</time>
      </trkpt>
      <trkpt lat="45.63517" lon="6.52612">
        <ele>2425.54</ele>
        <time>2012-03-16T12:42:18Z</time>
      </trkpt>
      <trkpt lat="45.63526" lon="6.52609">
        <ele>2426.99</ele>
        <time>2012-03-16T12:42:31Z</time>
      </trkpt>
      <trkpt lat="45.63526" lon="6.52609">
        <ele>2427.47</ele>
        <time>2012-03-16T12:43:07Z</time>
      </trkpt>
      <trkpt lat="45.6353" lon="6.52609">
        <ele>2428.43</ele>
        <time>2012-03-16T12:43:14Z</time>
      </trkpt>
      <trkpt lat="45.63534" lon="6.52605">
        <ele>2428.91</ele>
        <time>2012-03-16T12:43:26Z</time>
      </trkpt>
      <trkpt lat="45.63534" lon="6.52605">
        <ele>2428.91</ele>
        <time>2012-03-16T12:43:27Z</time>
      </trkpt>
      <trkpt lat="45.63534" lon="6.52605">
        <ele>2428.91</ele>
        <time>2012-03-16T12:43:31Z</time>
      </trkpt>
      <trkpt lat="45.63534" lon="6.52605">
        <ele>2431.79</ele>
        <time>2012-03-16T12:43:37Z</time>
      </trkpt>
      <trkpt lat="45.63538" lon="6.52602">
        <ele>2433.71</ele>
        <time>2012-03-16T12:43:47Z</time>
      </trkpt>
      <trkpt lat="45.63538" lon="6.52601">
        <ele>2433.23</ele>
        <time>2012-03-16T12:44:06Z</time>
      </trkpt>
      <trkpt lat="45.63538" lon="6.52601">
        <ele>2433.71</ele>
        <time>2012-03-16T12:44:26Z</time>
      </trkpt>
      <trkpt lat="45.63539" lon="6.52601">
        <ele>2435.16</ele>
        <time>2012-03-16T12:44:54Z</time>
      </trkpt>
      <trkpt lat="45.63541" lon="6.52589">
        <ele>2436.6</ele>
        <time>2012-03-16T12:45:06Z</time>
      </trkpt>
      <trkpt lat="45.63541" lon="6.52589">
        <ele>2438.52</ele>
        <time>2012-03-16T12:45:12Z</time>
      </trkpt>
      <trkpt lat="45.63541" lon="6.52589">
        <ele>2439.96</ele>
        <time>2012-03-16T12:45:26Z</time>
      </trkpt>
      <trkpt lat="45.63541" lon="6.52589">
        <ele>2440.92</ele>
        <time>2012-03-16T12:45:38Z</time>
      </trkpt>
      <trkpt lat="45.6354" lon="6.5257">
        <ele>2443.33</ele>
        <time>2012-03-16T12:45:50Z</time>
      </trkpt>
      <trkpt lat="45.63534" lon="6.52562">
        <ele>2445.25</ele>
        <time>2012-03-16T12:46:05Z</time>
      </trkpt>
      <trkpt lat="45.63529" lon="6.52554">
        <ele>2445.25</ele>
        <time>2012-03-16T12:46:18Z</time>
      </trkpt>
      <trkpt lat="45.63525" lon="6.52548">
        <ele>2448.13</ele>
        <time>2012-03-16T12:46:23Z</time>
      </trkpt>
      <trkpt lat="45.63515" lon="6.5254">
        <ele>2448.13</ele>
        <time>2012-03-16T12:46:39Z</time>
      </trkpt>
      <trkpt lat="45.63514" lon="6.52538">
        <ele>2450.06</ele>
        <time>2012-03-16T12:47:04Z</time>
      </trkpt>
      <trkpt lat="45.63509" lon="6.52528">
        <ele>2449.58</ele>
        <time>2012-03-16T12:47:18Z</time>
      </trkpt>
      <trkpt lat="45.63509" lon="6.52527">
        <ele>2452.94</ele>
        <time>2012-03-16T12:47:20Z</time>
      </trkpt>
      <trkpt lat="45.63506" lon="6.52523">
        <ele>2452.94</ele>
        <time>2012-03-16T12:47:34Z</time>
      </trkpt>
      <trkpt lat="45.63501" lon="6.52514">
        <ele>2455.82</ele>
        <time>2012-03-16T12:47:46Z</time>
      </trkpt>
      <trkpt lat="45.63498" lon="6.52508">
        <ele>2456.79</ele>
        <time>2012-03-16T12:47:53Z</time>
      </trkpt>
      <trkpt lat="45.63497" lon="6.52504">
        <ele>2457.75</ele>
        <time>2012-03-16T12:48:00Z</time>
      </trkpt>
      <trkpt lat="45.63492" lon="6.52493">
        <ele>2459.19</ele>
        <time>2012-03-16T12:48:13Z</time>
      </trkpt>
      <trkpt lat="45.63485" lon="6.52484">
        <ele>2459.67</ele>
        <time>2012-03-16T12:48:27Z</time>
      </trkpt>
      <trkpt lat="45.63481" lon="6.52476">
        <ele>2462.55</ele>
        <time>2012-03-16T12:48:38Z</time>
      </trkpt>
      <trkpt lat="45.63478" lon="6.52472">
        <ele>2463.04</ele>
        <time>2012-03-16T12:48:46Z</time>
      </trkpt>
      <trkpt lat="45.63473" lon="6.52463">
        <ele>2464.96</ele>
        <time>2012-03-16T12:49:02Z</time>
      </trkpt>
      <trkpt lat="45.63469" lon="6.52453">
        <ele>2465.92</ele>
        <time>2012-03-16T12:49:17Z</time>
      </trkpt>
      <trkpt lat="45.63468" lon="6.52451">
        <ele>2469.28</ele>
        <time>2012-03-16T12:49:20Z</time>
      </trkpt>
      <trkpt lat="45.63463" lon="6.52445">
        <ele>2468.32</ele>
        <time>2012-03-16T12:49:32Z</time>
      </trkpt>
      <trkpt lat="45.63462" lon="6.52444">
        <ele>2470.73</ele>
        <time>2012-03-16T12:49:48Z</time>
      </trkpt>
      <trkpt lat="45.63462" lon="6.52444">
        <ele>2469.28</ele>
        <time>2012-03-16T12:50:29Z</time>
      </trkpt>
      <trkpt lat="45.63462" lon="6.5244">
        <ele>2472.17</ele>
        <time>2012-03-16T12:50:50Z</time>
      </trkpt>
      <trkpt lat="45.63467" lon="6.52438">
        <ele>2472.17</ele>
        <time>2012-03-16T12:51:02Z</time>
      </trkpt>
      <trkpt lat="45.63471" lon="6.52435">
        <ele>2474.09</ele>
        <time>2012-03-16T12:51:11Z</time>
      </trkpt>
      <trkpt lat="45.63476" lon="6.52434">
        <ele>2475.05</ele>
        <time>2012-03-16T12:51:23Z</time>
      </trkpt>
      <trkpt lat="45.6348" lon="6.52435">
        <ele>2476.01</ele>
        <time>2012-03-16T12:51:28Z</time>
      </trkpt>
      <trkpt lat="45.63479" lon="6.52433">
        <ele>2476.49</ele>
        <time>2012-03-16T12:51:42Z</time>
      </trkpt>
      <trkpt lat="45.63479" lon="6.52431">
        <ele>2478.42</ele>
        <time>2012-03-16T12:51:50Z</time>
      </trkpt>
      <trkpt lat="45.63475" lon="6.52424">
        <ele>2479.86</ele>
        <time>2012-03-16T12:52:03Z</time>
      </trkpt>
      <trkpt lat="45.63472" lon="6.52417">
        <ele>2481.78</ele>
        <time>2012-03-16T12:52:14Z</time>
      </trkpt>
      <trkpt lat="45.63472" lon="6.52415">
        <ele>2482.26</ele>
        <time>2012-03-16T12:52:19Z</time>
      </trkpt>
      <trkpt lat="45.63471" lon="6.52412">
        <ele>2483.7</ele>
        <time>2012-03-16T12:52:24Z</time>
      </trkpt>
      <trkpt lat="45.63471" lon="6.52409">
        <ele>2482.26</ele>
        <time>2012-03-16T12:52:29Z</time>
      </trkpt>
      <trkpt lat="45.63471" lon="6.52409">
        <ele>2483.7</ele>
        <time>2012-03-16T12:52:31Z</time>
      </trkpt>
      <trkpt lat="45.63477" lon="6.5241">
        <ele>2485.15</ele>
        <time>2012-03-16T12:52:44Z</time>
      </trkpt>
      <trkpt lat="45.63486" lon="6.52408">
        <ele>2485.63</ele>
        <time>2012-03-16T12:52:55Z</time>
      </trkpt>
      <trkpt lat="45.63491" lon="6.52409">
        <ele>2486.59</ele>
        <time>2012-03-16T12:53:09Z</time>
      </trkpt>
      <trkpt lat="45.63493" lon="6.52409">
        <ele>2486.59</ele>
        <time>2012-03-16T12:53:11Z</time>
      </trkpt>
      <trkpt lat="45.63501" lon="6.52405">
        <ele>2489.47</ele>
        <time>2012-03-16T12:53:25Z</time>
      </trkpt>
      <trkpt lat="45.63501" lon="6.52403">
        <ele>2488.51</ele>
        <time>2012-03-16T12:53:37Z</time>
      </trkpt>
      <trkpt lat="45.63501" lon="6.52403">
        <ele>2491.39</ele>
        <time>2012-03-16T12:53:44Z</time>
      </trkpt>
      <trkpt lat="45.63501" lon="6.52403">
        <ele>2487.55</ele>
        <time>2012-03-16T12:53:46Z</time>
      </trkpt>
      <trkpt lat="45.63501" lon="6.52403">
        <ele>2488.51</ele>
        <time>2012-03-16T12:53:47Z</time>
      </trkpt>
      <trkpt lat="45.63502" lon="6.52403">
        <ele>2489.47</ele>
        <time>2012-03-16T12:53:49Z</time>
      </trkpt>
      <trkpt lat="45.63502" lon="6.52402">
        <ele>2488.51</ele>
        <time>2012-03-16T12:54:09Z</time>
      </trkpt>
      <trkpt lat="45.63502" lon="6.52402">
        <ele>2486.59</ele>
        <time>2012-03-16T12:54:17Z</time>
      </trkpt>
      <trkpt lat="45.63502" lon="6.52402">
        <ele>2488.03</ele>
        <time>2012-03-16T12:54:19Z</time>
      </trkpt>
      <trkpt lat="45.63502" lon="6.52402">
        <ele>2489.47</ele>
        <time>2012-03-16T12:54:34Z</time>
      </trkpt>
      <trkpt lat="45.63502" lon="6.52402">
        <ele>2488.99</ele>
        <time>2012-03-16T12:55:41Z</time>
      </trkpt>
      <trkpt lat="45.63502" lon="6.52402">
        <ele>2487.55</ele>
        <time>2012-03-16T12:57:09Z</time>
      </trkpt>
      <trkpt lat="45.63502" lon="6.52403">
        <ele>2491.39</ele>
        <time>2012-03-16T12:57:18Z</time>
      </trkpt>
      <trkpt lat="45.63501" lon="6.52404">
        <ele>2485.15</ele>
        <time>2012-03-16T12:57:29Z</time>
      </trkpt>
      <trkpt lat="45.63501" lon="6.52404">
        <ele>2480.82</ele>
        <time>2012-03-16T12:57:30Z</time>
      </trkpt>
      <trkpt lat="45.63501" lon="6.52404">
        <ele>2487.55</ele>
        <time>2012-03-16T12:57:31Z</time>
      </trkpt>
      <trkpt lat="45.63501" lon="6.52404">
        <ele>2489.47</ele>
        <time>2012-03-16T12:57:34Z</time>
      </trkpt>
      <trkpt lat="45.63501" lon="6.52404">
        <ele>2488.51</ele>
        <time>2012-03-16T12:58:08Z</time>
      </trkpt>
      <trkpt lat="45.63501" lon="6.52404">
        <ele>2484.18</ele>
        <time>2012-03-16T12:59:40Z</time>
      </trkpt>
      <trkpt lat="45.63501" lon="6.52404">
        <ele>2488.51</ele>
        <time>2012-03-16T12:59:41Z</time>
      </trkpt>
      <trkpt lat="45.63501" lon="6.52404">
        <ele>2488.03</ele>
        <time>2012-03-16T13:00:23Z</time>
      </trkpt>
      <trkpt lat="45.63502" lon="6.52404">
        <ele>2488.99</ele>
        <time>2012-03-16T13:00:51Z</time>
      </trkpt>
      <trkpt lat="45.63502" lon="6.52405">
        <ele>2488.51</ele>
        <time>2012-03-16T13:01:29Z</time>
      </trkpt>
      <trkpt lat="45.63502" lon="6.52405">
        <ele>2488.51</ele>
        <time>2012-03-16T13:02:01Z</time>
      </trkpt>
      <trkpt lat="45.63501" lon="6.52404">
        <ele>2488.03</ele>
        <time>2012-03-16T13:02:51Z</time>
      </trkpt>
      <trkpt lat="45.63501" lon="6.52404">
        <ele>2488.51</ele>
        <time>2012-03-16T13:03:35Z</time>
      </trkpt>
      <trkpt lat="45.63501" lon="6.52404">
        <ele>2491.87</ele>
        <time>2012-03-16T13:03:51Z</time>
      </trkpt>
      <trkpt lat="45.63501" lon="6.52404">
        <ele>2488.99</ele>
        <time>2012-03-16T13:03:52Z</time>
      </trkpt>
      <trkpt lat="45.63501" lon="6.52403">
        <ele>2488.51</ele>
        <time>2012-03-16T13:05:03Z</time>
      </trkpt>
      <trkpt lat="45.63501" lon="6.52403">
        <ele>2488.03</ele>
        <time>2012-03-16T13:05:31Z</time>
      </trkpt>
      <trkpt lat="45.63501" lon="6.52403">
        <ele>2488.03</ele>
        <time>2012-03-16T13:05:47Z</time>
      </trkpt>
      <trkpt lat="45.63501" lon="6.52408">
        <ele>2487.07</ele>
        <time>2012-03-16T13:05:56Z</time>
      </trkpt>
      <trkpt lat="45.63503" lon="6.52427">
        <ele>2482.26</ele>
        <time>2012-03-16T13:06:01Z</time>
      </trkpt>
      <trkpt lat="45.63504" lon="6.5244">
        <ele>2479.38</ele>
        <time>2012-03-16T13:06:04Z</time>
      </trkpt>
      <trkpt lat="45.63509" lon="6.5245">
        <ele>2476.49</ele>
        <time>2012-03-16T13:06:07Z</time>
      </trkpt>
      <trkpt lat="45.63514" lon="6.52453">
        <ele>2475.05</ele>
        <time>2012-03-16T13:06:09Z</time>
      </trkpt>
      <trkpt lat="45.63513" lon="6.5246">
        <ele>2472.65</ele>
        <time>2012-03-16T13:06:11Z</time>
      </trkpt>
      <trkpt lat="45.63518" lon="6.52472">
        <ele>2469.28</ele>
        <time>2012-03-16T13:06:14Z</time>
      </trkpt>
      <trkpt lat="45.63522" lon="6.52473">
        <ele>2469.28</ele>
        <time>2012-03-16T13:06:15Z</time>
      </trkpt>
      <trkpt lat="45.63527" lon="6.52483">
        <ele>2465.92</ele>
        <time>2012-03-16T13:06:20Z</time>
      </trkpt>
      <trkpt lat="45.63515" lon="6.52484">
        <ele>2464</ele>
        <time>2012-03-16T13:06:23Z</time>
      </trkpt>
      <trkpt lat="45.635" lon="6.52482">
        <ele>2462.07</ele>
        <time>2012-03-16T13:06:32Z</time>
      </trkpt>
      <trkpt lat="45.635" lon="6.52482">
        <ele>2463.04</ele>
        <time>2012-03-16T13:06:34Z</time>
      </trkpt>
      <trkpt lat="45.63496" lon="6.52493">
        <ele>2459.67</ele>
        <time>2012-03-16T13:06:38Z</time>
      </trkpt>
      <trkpt lat="45.63502" lon="6.52508">
        <ele>2456.31</ele>
        <time>2012-03-16T13:06:41Z</time>
      </trkpt>
      <trkpt lat="45.63496" lon="6.5252">
        <ele>2450.54</ele>
        <time>2012-03-16T13:06:44Z</time>
      </trkpt>
      <trkpt lat="45.63498" lon="6.52526">
        <ele>2450.06</ele>
        <time>2012-03-16T13:06:45Z</time>
      </trkpt>
      <trkpt lat="45.63504" lon="6.52533">
        <ele>2447.17</ele>
        <time>2012-03-16T13:06:47Z</time>
      </trkpt>
      <trkpt lat="45.63507" lon="6.52535">
        <ele>2447.65</ele>
        <time>2012-03-16T13:06:55Z</time>
      </trkpt>
      <trkpt lat="45.63507" lon="6.52535">
        <ele>2447.17</ele>
        <time>2012-03-16T13:06:57Z</time>
      </trkpt>
      <trkpt lat="45.63511" lon="6.52542">
        <ele>2446.21</ele>
        <time>2012-03-16T13:07:00Z</time>
      </trkpt>
      <trkpt lat="45.63506" lon="6.52559">
        <ele>2441.89</ele>
        <time>2012-03-16T13:07:04Z</time>
      </trkpt>
      <trkpt lat="45.63502" lon="6.52568">
        <ele>2437.56</ele>
        <time>2012-03-16T13:07:06Z</time>
      </trkpt>
      <trkpt lat="45.63509" lon="6.52577">
        <ele>2434.68</ele>
        <time>2012-03-16T13:07:08Z</time>
      </trkpt>
      <trkpt lat="45.63516" lon="6.52605">
        <ele>2427.47</ele>
        <time>2012-03-16T13:07:13Z</time>
      </trkpt>
      <trkpt lat="45.63501" lon="6.52605">
        <ele>2426.02</ele>
        <time>2012-03-16T13:07:15Z</time>
      </trkpt>
      <trkpt lat="45.63492" lon="6.52602">
        <ele>2425.06</ele>
        <time>2012-03-16T13:07:17Z</time>
      </trkpt>
      <trkpt lat="45.63489" lon="6.52612">
        <ele>2419.3</ele>
        <time>2012-03-16T13:07:20Z</time>
      </trkpt>
      <trkpt lat="45.63499" lon="6.52631">
        <ele>2417.85</ele>
        <time>2012-03-16T13:07:22Z</time>
      </trkpt>
      <trkpt lat="45.63512" lon="6.52641">
        <ele>2415.93</ele>
        <time>2012-03-16T13:07:24Z</time>
      </trkpt>
      <trkpt lat="45.63538" lon="6.52657">
        <ele>2414.01</ele>
        <time>2012-03-16T13:07:29Z</time>
      </trkpt>
      <trkpt lat="45.6353" lon="6.52676">
        <ele>2409.68</ele>
        <time>2012-03-16T13:07:33Z</time>
      </trkpt>
      <trkpt lat="45.63525" lon="6.52675">
        <ele>2409.68</ele>
        <time>2012-03-16T13:07:34Z</time>
      </trkpt>
      <trkpt lat="45.63513" lon="6.52687">
        <ele>2406.32</ele>
        <time>2012-03-16T13:07:40Z</time>
      </trkpt>
      <trkpt lat="45.63513" lon="6.52687">
        <ele>2405.84</ele>
        <time>2012-03-16T13:07:58Z</time>
      </trkpt>
      <trkpt lat="45.63507" lon="6.52689">
        <ele>2404.39</ele>
        <time>2012-03-16T13:08:02Z</time>
      </trkpt>
      <trkpt lat="45.63506" lon="6.52696">
        <ele>2401.03</ele>
        <time>2012-03-16T13:08:04Z</time>
      </trkpt>
      <trkpt lat="45.63501" lon="6.52704">
        <ele>2397.18</ele>
        <time>2012-03-16T13:08:07Z</time>
      </trkpt>
      <trkpt lat="45.63501" lon="6.52707">
        <ele>2397.18</ele>
        <time>2012-03-16T13:08:08Z</time>
      </trkpt>
      <trkpt lat="45.63495" lon="6.52711">
        <ele>2392.86</ele>
        <time>2012-03-16T13:08:10Z</time>
      </trkpt>
      <trkpt lat="45.63492" lon="6.52721">
        <ele>2389.49</ele>
        <time>2012-03-16T13:08:12Z</time>
      </trkpt>
      <trkpt lat="45.63507" lon="6.52742">
        <ele>2386.13</ele>
        <time>2012-03-16T13:08:16Z</time>
      </trkpt>
      <trkpt lat="45.6351" lon="6.52764">
        <ele>2380.84</ele>
        <time>2012-03-16T13:08:18Z</time>
      </trkpt>
      <trkpt lat="45.63509" lon="6.52778">
        <ele>2377</ele>
        <time>2012-03-16T13:08:19Z</time>
      </trkpt>
      <trkpt lat="45.63506" lon="6.52806">
        <ele>2377.48</ele>
        <time>2012-03-16T13:08:21Z</time>
      </trkpt>
      <trkpt lat="45.63507" lon="6.52831">
        <ele>2375.07</ele>
        <time>2012-03-16T13:08:23Z</time>
      </trkpt>
      <trkpt lat="45.63511" lon="6.52861">
        <ele>2373.63</ele>
        <time>2012-03-16T13:08:26Z</time>
      </trkpt>
      <trkpt lat="45.63517" lon="6.52874">
        <ele>2370.27</ele>
        <time>2012-03-16T13:08:28Z</time>
      </trkpt>
      <trkpt lat="45.63527" lon="6.52884">
        <ele>2366.42</ele>
        <time>2012-03-16T13:08:30Z</time>
      </trkpt>
      <trkpt lat="45.63532" lon="6.52905">
        <ele>2364.98</ele>
        <time>2012-03-16T13:08:36Z</time>
      </trkpt>
      <trkpt lat="45.63532" lon="6.52905">
        <ele>2365.46</ele>
        <time>2012-03-16T13:08:56Z</time>
      </trkpt>
      <trkpt lat="45.63536" lon="6.52917">
        <ele>2364.5</ele>
        <time>2012-03-16T13:09:00Z</time>
      </trkpt>
      <trkpt lat="45.63553" lon="6.52933">
        <ele>2360.17</ele>
        <time>2012-03-16T13:09:04Z</time>
      </trkpt>
      <trkpt lat="45.6356" lon="6.52938">
        <ele>2356.81</ele>
        <time>2012-03-16T13:09:06Z</time>
      </trkpt>
      <trkpt lat="45.63571" lon="6.52948">
        <ele>2353.44</ele>
        <time>2012-03-16T13:09:09Z</time>
      </trkpt>
      <trkpt lat="45.63576" lon="6.52958">
        <ele>2350.08</ele>
        <time>2012-03-16T13:09:11Z</time>
      </trkpt>
      <trkpt lat="45.63582" lon="6.52962">
        <ele>2347.2</ele>
        <time>2012-03-16T13:09:13Z</time>
      </trkpt>
      <trkpt lat="45.63593" lon="6.5296">
        <ele>2344.31</ele>
        <time>2012-03-16T13:09:15Z</time>
      </trkpt>
      <trkpt lat="45.63621" lon="6.52968">
        <ele>2337.58</ele>
        <time>2012-03-16T13:09:18Z</time>
      </trkpt>
      <trkpt lat="45.63629" lon="6.52974">
        <ele>2337.58</ele>
        <time>2012-03-16T13:09:19Z</time>
      </trkpt>
      <trkpt lat="45.63642" lon="6.52985">
        <ele>2336.62</ele>
        <time>2012-03-16T13:09:21Z</time>
      </trkpt>
      <trkpt lat="45.63653" lon="6.52999">
        <ele>2335.18</ele>
        <time>2012-03-16T13:09:24Z</time>
      </trkpt>
      <trkpt lat="45.63659" lon="6.53019">
        <ele>2335.66</ele>
        <time>2012-03-16T13:09:33Z</time>
      </trkpt>
      <trkpt lat="45.6366" lon="6.5302">
        <ele>2335.66</ele>
        <time>2012-03-16T13:09:34Z</time>
      </trkpt>
      <trkpt lat="45.63681" lon="6.53037">
        <ele>2334.22</ele>
        <time>2012-03-16T13:09:49Z</time>
      </trkpt>
      <trkpt lat="45.63681" lon="6.53038">
        <ele>2332.78</ele>
        <time>2012-03-16T13:10:20Z</time>
      </trkpt>
      <trkpt lat="45.63675" lon="6.53044">
        <ele>2332.3</ele>
        <time>2012-03-16T13:10:26Z</time>
      </trkpt>
      <trkpt lat="45.6367" lon="6.53051">
        <ele>2330.85</ele>
        <time>2012-03-16T13:10:30Z</time>
      </trkpt>
      <trkpt lat="45.63654" lon="6.53044">
        <ele>2328.93</ele>
        <time>2012-03-16T13:10:41Z</time>
      </trkpt>
      <trkpt lat="45.63645" lon="6.53032">
        <ele>2326.05</ele>
        <time>2012-03-16T13:10:45Z</time>
      </trkpt>
      <trkpt lat="45.63636" lon="6.5302">
        <ele>2325.09</ele>
        <time>2012-03-16T13:10:48Z</time>
      </trkpt>
      <trkpt lat="45.63628" lon="6.53012">
        <ele>2323.16</ele>
        <time>2012-03-16T13:10:50Z</time>
      </trkpt>
      <trkpt lat="45.63613" lon="6.53009">
        <ele>2321.24</ele>
        <time>2012-03-16T13:10:54Z</time>
      </trkpt>
      <trkpt lat="45.636" lon="6.53021">
        <ele>2320.76</ele>
        <time>2012-03-16T13:10:59Z</time>
      </trkpt>
      <trkpt lat="45.63583" lon="6.53033">
        <ele>2316.91</ele>
        <time>2012-03-16T13:11:06Z</time>
      </trkpt>
      <trkpt lat="45.63573" lon="6.53038">
        <ele>2317.4</ele>
        <time>2012-03-16T13:11:14Z</time>
      </trkpt>
      <trkpt lat="45.63573" lon="6.53038">
        <ele>2316.91</ele>
        <time>2012-03-16T13:11:18Z</time>
      </trkpt>
      <trkpt lat="45.63568" lon="6.53047">
        <ele>2313.55</ele>
        <time>2012-03-16T13:11:21Z</time>
      </trkpt>
      <trkpt lat="45.63572" lon="6.53063">
        <ele>2309.22</ele>
        <time>2012-03-16T13:11:23Z</time>
      </trkpt>
      <trkpt lat="45.63578" lon="6.53076">
        <ele>2305.38</ele>
        <time>2012-03-16T13:11:25Z</time>
      </trkpt>
      <trkpt lat="45.63575" lon="6.53083">
        <ele>2301.05</ele>
        <time>2012-03-16T13:11:26Z</time>
      </trkpt>
      <trkpt lat="45.6356" lon="6.53118">
        <ele>2298.17</ele>
        <time>2012-03-16T13:11:30Z</time>
      </trkpt>
      <trkpt lat="45.63562" lon="6.5314">
        <ele>2296.73</ele>
        <time>2012-03-16T13:11:33Z</time>
      </trkpt>
      <trkpt lat="45.63575" lon="6.53157">
        <ele>2293.36</ele>
        <time>2012-03-16T13:11:37Z</time>
      </trkpt>
      <trkpt lat="45.63587" lon="6.53173">
        <ele>2289.04</ele>
        <time>2012-03-16T13:11:39Z</time>
      </trkpt>
      <trkpt lat="45.63589" lon="6.53183">
        <ele>2287.11</ele>
        <time>2012-03-16T13:11:40Z</time>
      </trkpt>
      <trkpt lat="45.6361" lon="6.53227">
        <ele>2283.27</ele>
        <time>2012-03-16T13:11:49Z</time>
      </trkpt>
      <trkpt lat="45.63626" lon="6.53252">
        <ele>2278.94</ele>
        <time>2012-03-16T13:11:53Z</time>
      </trkpt>
      <trkpt lat="45.63631" lon="6.5326">
        <ele>2276.54</ele>
        <time>2012-03-16T13:11:54Z</time>
      </trkpt>
      <trkpt lat="45.63657" lon="6.53288">
        <ele>2271.25</ele>
        <time>2012-03-16T13:11:58Z</time>
      </trkpt>
      <trkpt lat="45.6367" lon="6.53296">
        <ele>2270.77</ele>
        <time>2012-03-16T13:12:00Z</time>
      </trkpt>
      <trkpt lat="45.6368" lon="6.53303">
        <ele>2269.81</ele>
        <time>2012-03-16T13:12:02Z</time>
      </trkpt>
      <trkpt lat="45.63697" lon="6.53317">
        <ele>2267.89</ele>
        <time>2012-03-16T13:12:06Z</time>
      </trkpt>
      <trkpt lat="45.63706" lon="6.53323">
        <ele>2267.41</ele>
        <time>2012-03-16T13:12:08Z</time>
      </trkpt>
      <trkpt lat="45.63716" lon="6.53332">
        <ele>2265.96</ele>
        <time>2012-03-16T13:12:11Z</time>
      </trkpt>
      <trkpt lat="45.63729" lon="6.5335">
        <ele>2264.52</ele>
        <time>2012-03-16T13:12:16Z</time>
      </trkpt>
      <trkpt lat="45.63754" lon="6.53363">
        <ele>2261.16</ele>
        <time>2012-03-16T13:12:22Z</time>
      </trkpt>
      <trkpt lat="45.63761" lon="6.53375">
        <ele>2259.72</ele>
        <time>2012-03-16T13:12:25Z</time>
      </trkpt>
      <trkpt lat="45.63762" lon="6.5339">
        <ele>2258.75</ele>
        <time>2012-03-16T13:12:32Z</time>
      </trkpt>
      <trkpt lat="45.63762" lon="6.5339">
        <ele>2258.27</ele>
        <time>2012-03-16T13:12:49Z</time>
      </trkpt>
      <trkpt lat="45.63763" lon="6.53394">
        <ele>2257.79</ele>
        <time>2012-03-16T13:12:51Z</time>
      </trkpt>
      <trkpt lat="45.63775" lon="6.53408">
        <ele>2253.95</ele>
        <time>2012-03-16T13:12:55Z</time>
      </trkpt>
      <trkpt lat="45.63779" lon="6.5341">
        <ele>2253.95</ele>
        <time>2012-03-16T13:12:56Z</time>
      </trkpt>
      <trkpt lat="45.63783" lon="6.5342">
        <ele>2250.1</ele>
        <time>2012-03-16T13:12:58Z</time>
      </trkpt>
      <trkpt lat="45.63787" lon="6.53421">
        <ele>2249.62</ele>
        <time>2012-03-16T13:12:59Z</time>
      </trkpt>
      <trkpt lat="45.63799" lon="6.53431">
        <ele>2243.37</ele>
        <time>2012-03-16T13:13:03Z</time>
      </trkpt>
      <trkpt lat="45.63807" lon="6.53438">
        <ele>2239.53</ele>
        <time>2012-03-16T13:13:06Z</time>
      </trkpt>
      <trkpt lat="45.63814" lon="6.5345">
        <ele>2233.76</ele>
        <time>2012-03-16T13:13:10Z</time>
      </trkpt>
      <trkpt lat="45.63821" lon="6.53462">
        <ele>2229.43</ele>
        <time>2012-03-16T13:13:13Z</time>
      </trkpt>
      <trkpt lat="45.63818" lon="6.53481">
        <ele>2226.07</ele>
        <time>2012-03-16T13:13:16Z</time>
      </trkpt>
      <trkpt lat="45.63823" lon="6.53489">
        <ele>2221.74</ele>
        <time>2012-03-16T13:13:18Z</time>
      </trkpt>
      <trkpt lat="45.63828" lon="6.53487">
        <ele>2221.74</ele>
        <time>2012-03-16T13:13:19Z</time>
      </trkpt>
      <trkpt lat="45.6384" lon="6.53487">
        <ele>2217.42</ele>
        <time>2012-03-16T13:13:22Z</time>
      </trkpt>
      <trkpt lat="45.63847" lon="6.53482">
        <ele>2214.05</ele>
        <time>2012-03-16T13:13:24Z</time>
      </trkpt>
      <trkpt lat="45.63849" lon="6.53478">
        <ele>2213.57</ele>
        <time>2012-03-16T13:13:25Z</time>
      </trkpt>
      <trkpt lat="45.6385" lon="6.53471">
        <ele>2213.57</ele>
        <time>2012-03-16T13:13:35Z</time>
      </trkpt>
      <trkpt lat="45.63853" lon="6.53483">
        <ele>2210.69</ele>
        <time>2012-03-16T13:13:39Z</time>
      </trkpt>
      <trkpt lat="45.6385" lon="6.53499">
        <ele>2208.77</ele>
        <time>2012-03-16T13:13:42Z</time>
      </trkpt>
      <trkpt lat="45.6385" lon="6.53505">
        <ele>2208.77</ele>
        <time>2012-03-16T13:13:43Z</time>
      </trkpt>
      <trkpt lat="45.63853" lon="6.53517">
        <ele>2203</ele>
        <time>2012-03-16T13:13:46Z</time>
      </trkpt>
      <trkpt lat="45.63855" lon="6.53517">
        <ele>2204.44</ele>
        <time>2012-03-16T13:13:47Z</time>
      </trkpt>
      <trkpt lat="45.63868" lon="6.53523">
        <ele>2201.08</ele>
        <time>2012-03-16T13:13:51Z</time>
      </trkpt>
      <trkpt lat="45.63874" lon="6.53529">
        <ele>2198.67</ele>
        <time>2012-03-16T13:13:53Z</time>
      </trkpt>
      <trkpt lat="45.63875" lon="6.53543">
        <ele>2194.35</ele>
        <time>2012-03-16T13:13:56Z</time>
      </trkpt>
      <trkpt lat="45.63881" lon="6.53548">
        <ele>2189.54</ele>
        <time>2012-03-16T13:13:58Z</time>
      </trkpt>
      <trkpt lat="45.63885" lon="6.53547">
        <ele>2190.02</ele>
        <time>2012-03-16T13:13:59Z</time>
      </trkpt>
      <trkpt lat="45.63887" lon="6.5356">
        <ele>2184.25</ele>
        <time>2012-03-16T13:14:02Z</time>
      </trkpt>
      <trkpt lat="45.63889" lon="6.53564">
        <ele>2186.18</ele>
        <time>2012-03-16T13:14:03Z</time>
      </trkpt>
      <trkpt lat="45.63891" lon="6.53566">
        <ele>2182.33</ele>
        <time>2012-03-16T13:14:04Z</time>
      </trkpt>
      <trkpt lat="45.63899" lon="6.53559">
        <ele>2180.89</ele>
        <time>2012-03-16T13:14:06Z</time>
      </trkpt>
      <trkpt lat="45.63906" lon="6.53546">
        <ele>2180.41</ele>
        <time>2012-03-16T13:14:23Z</time>
      </trkpt>
      <trkpt lat="45.63912" lon="6.53565">
        <ele>2175.6</ele>
        <time>2012-03-16T13:14:27Z</time>
      </trkpt>
      <trkpt lat="45.63911" lon="6.53571">
        <ele>2175.12</ele>
        <time>2012-03-16T13:14:28Z</time>
      </trkpt>
      <trkpt lat="45.63909" lon="6.53594">
        <ele>2171.27</ele>
        <time>2012-03-16T13:14:31Z</time>
      </trkpt>
      <trkpt lat="45.63914" lon="6.536">
        <ele>2171.27</ele>
        <time>2012-03-16T13:14:32Z</time>
      </trkpt>
      <trkpt lat="45.6392" lon="6.53602">
        <ele>2168.39</ele>
        <time>2012-03-16T13:14:33Z</time>
      </trkpt>
      <trkpt lat="45.63929" lon="6.53611">
        <ele>2166.95</ele>
        <time>2012-03-16T13:14:35Z</time>
      </trkpt>
      <trkpt lat="45.63945" lon="6.53635">
        <ele>2160.7</ele>
        <time>2012-03-16T13:14:40Z</time>
      </trkpt>
      <trkpt lat="45.63961" lon="6.53648">
        <ele>2157.34</ele>
        <time>2012-03-16T13:14:43Z</time>
      </trkpt>
      <trkpt lat="45.63963" lon="6.53653">
        <ele>2157.82</ele>
        <time>2012-03-16T13:14:44Z</time>
      </trkpt>
      <trkpt lat="45.63966" lon="6.53663">
        <ele>2155.41</ele>
        <time>2012-03-16T13:14:48Z</time>
      </trkpt>
      <trkpt lat="45.63967" lon="6.53666">
        <ele>2155.89</ele>
        <time>2012-03-16T13:14:58Z</time>
      </trkpt>
      <trkpt lat="45.63967" lon="6.53666">
        <ele>2155.41</ele>
        <time>2012-03-16T13:15:03Z</time>
      </trkpt>
      <trkpt lat="45.63973" lon="6.53687">
        <ele>2152.05</ele>
        <time>2012-03-16T13:15:08Z</time>
      </trkpt>
      <trkpt lat="45.63979" lon="6.53713">
        <ele>2149.65</ele>
        <time>2012-03-16T13:15:11Z</time>
      </trkpt>
      <trkpt lat="45.64" lon="6.53768">
        <ele>2144.36</ele>
        <time>2012-03-16T13:15:19Z</time>
      </trkpt>
      <trkpt lat="45.64007" lon="6.53787">
        <ele>2142.44</ele>
        <time>2012-03-16T13:15:22Z</time>
      </trkpt>
      <trkpt lat="45.6401" lon="6.538">
        <ele>2140.51</ele>
        <time>2012-03-16T13:15:24Z</time>
      </trkpt>
      <trkpt lat="45.64012" lon="6.53813">
        <ele>2139.55</ele>
        <time>2012-03-16T13:15:26Z</time>
      </trkpt>
      <trkpt lat="45.64017" lon="6.53828">
        <ele>2137.63</ele>
        <time>2012-03-16T13:15:28Z</time>
      </trkpt>
      <trkpt lat="45.6402" lon="6.53852">
        <ele>2134.74</ele>
        <time>2012-03-16T13:15:31Z</time>
      </trkpt>
      <trkpt lat="45.64019" lon="6.53855">
        <ele>2133.78</ele>
        <time>2012-03-16T13:15:39Z</time>
      </trkpt>
      <trkpt lat="45.64018" lon="6.53856">
        <ele>2134.26</ele>
        <time>2012-03-16T13:15:54Z</time>
      </trkpt>
      <trkpt lat="45.64022" lon="6.5386">
        <ele>2133.3</ele>
        <time>2012-03-16T13:15:56Z</time>
      </trkpt>
      <trkpt lat="45.64033" lon="6.53865">
        <ele>2128.98</ele>
        <time>2012-03-16T13:15:58Z</time>
      </trkpt>
      <trkpt lat="45.6404" lon="6.53864">
        <ele>2126.09</ele>
        <time>2012-03-16T13:15:59Z</time>
      </trkpt>
      <trkpt lat="45.64049" lon="6.53878">
        <ele>2122.25</ele>
        <time>2012-03-16T13:16:03Z</time>
      </trkpt>
      <trkpt lat="45.64056" lon="6.53883">
        <ele>2118.4</ele>
        <time>2012-03-16T13:16:06Z</time>
      </trkpt>
      <trkpt lat="45.64055" lon="6.53887">
        <ele>2117.44</ele>
        <time>2012-03-16T13:16:08Z</time>
      </trkpt>
      <trkpt lat="45.64054" lon="6.53889">
        <ele>2116.96</ele>
        <time>2012-03-16T13:16:29Z</time>
      </trkpt>
      <trkpt lat="45.64054" lon="6.53889">
        <ele>2116.48</ele>
        <time>2012-03-16T13:16:48Z</time>
      </trkpt>
      <trkpt lat="45.64056" lon="6.53899">
        <ele>2113.6</ele>
        <time>2012-03-16T13:16:53Z</time>
      </trkpt>
      <trkpt lat="45.64063" lon="6.53901">
        <ele>2110.23</ele>
        <time>2012-03-16T13:16:55Z</time>
      </trkpt>
      <trkpt lat="45.64063" lon="6.53904">
        <ele>2106.87</ele>
        <time>2012-03-16T13:16:56Z</time>
      </trkpt>
      <trkpt lat="45.64063" lon="6.53915">
        <ele>2103.02</ele>
        <time>2012-03-16T13:16:59Z</time>
      </trkpt>
      <trkpt lat="45.64065" lon="6.53916">
        <ele>2099.18</ele>
        <time>2012-03-16T13:17:00Z</time>
      </trkpt>
      <trkpt lat="45.64068" lon="6.53915">
        <ele>2100.62</ele>
        <time>2012-03-16T13:17:01Z</time>
      </trkpt>
      <trkpt lat="45.64073" lon="6.53915">
        <ele>2103.98</ele>
        <time>2012-03-16T13:17:02Z</time>
      </trkpt>
      <trkpt lat="45.64082" lon="6.53917">
        <ele>2095.81</ele>
        <time>2012-03-16T13:17:04Z</time>
      </trkpt>
      <trkpt lat="45.64082" lon="6.53924">
        <ele>2092.93</ele>
        <time>2012-03-16T13:17:06Z</time>
      </trkpt>
      <trkpt lat="45.6408" lon="6.53929">
        <ele>2092.45</ele>
        <time>2012-03-16T13:17:08Z</time>
      </trkpt>
      <trkpt lat="45.64087" lon="6.53937">
        <ele>2085.24</ele>
        <time>2012-03-16T13:17:12Z</time>
      </trkpt>
      <trkpt lat="45.6409" lon="6.53938">
        <ele>2085.24</ele>
        <time>2012-03-16T13:17:13Z</time>
      </trkpt>
      <trkpt lat="45.64091" lon="6.53954">
        <ele>2080.91</ele>
        <time>2012-03-16T13:17:16Z</time>
      </trkpt>
      <trkpt lat="45.64089" lon="6.53959">
        <ele>2080.91</ele>
        <time>2012-03-16T13:17:17Z</time>
      </trkpt>
      <trkpt lat="45.6408" lon="6.53987">
        <ele>2077.55</ele>
        <time>2012-03-16T13:17:25Z</time>
      </trkpt>
      <trkpt lat="45.6408" lon="6.53994">
        <ele>2077.55</ele>
        <time>2012-03-16T13:17:27Z</time>
      </trkpt>
      <trkpt lat="45.64082" lon="6.54002">
        <ele>2073.7</ele>
        <time>2012-03-16T13:17:29Z</time>
      </trkpt>
      <trkpt lat="45.64095" lon="6.54014">
        <ele>2067.93</ele>
        <time>2012-03-16T13:17:32Z</time>
      </trkpt>
      <trkpt lat="45.6412" lon="6.54026">
        <ele>2061.2</ele>
        <time>2012-03-16T13:17:34Z</time>
      </trkpt>
      <trkpt lat="45.64134" lon="6.54032">
        <ele>2054.96</ele>
        <time>2012-03-16T13:17:35Z</time>
      </trkpt>
      <trkpt lat="45.64147" lon="6.54038">
        <ele>2056.88</ele>
        <time>2012-03-16T13:17:36Z</time>
      </trkpt>
      <trkpt lat="45.64184" lon="6.54054">
        <ele>2051.59</ele>
        <time>2012-03-16T13:17:39Z</time>
      </trkpt>
      <trkpt lat="45.64194" lon="6.54059">
        <ele>2051.11</ele>
        <time>2012-03-16T13:17:40Z</time>
      </trkpt>
      <trkpt lat="45.64232" lon="6.54087">
        <ele>2048.23</ele>
        <time>2012-03-16T13:17:45Z</time>
      </trkpt>
      <trkpt lat="45.64256" lon="6.541">
        <ele>2044.38</ele>
        <time>2012-03-16T13:17:48Z</time>
      </trkpt>
      <trkpt lat="45.64281" lon="6.54115">
        <ele>2039.57</ele>
        <time>2012-03-16T13:17:51Z</time>
      </trkpt>
      <trkpt lat="45.64288" lon="6.5412">
        <ele>2039.57</ele>
        <time>2012-03-16T13:17:52Z</time>
      </trkpt>
      <trkpt lat="45.64296" lon="6.54124">
        <ele>2037.65</ele>
        <time>2012-03-16T13:17:53Z</time>
      </trkpt>
      <trkpt lat="45.64315" lon="6.54144">
        <ele>2036.69</ele>
        <time>2012-03-16T13:17:56Z</time>
      </trkpt>
      <trkpt lat="45.64328" lon="6.54152">
        <ele>2036.21</ele>
        <time>2012-03-16T13:18:03Z</time>
      </trkpt>
      <trkpt lat="45.64326" lon="6.54151">
        <ele>2036.21</ele>
        <time>2012-03-16T13:18:23Z</time>
      </trkpt>
      <trkpt lat="45.64333" lon="6.54163">
        <ele>2031.4</ele>
        <time>2012-03-16T13:18:26Z</time>
      </trkpt>
      <trkpt lat="45.64343" lon="6.54178">
        <ele>2028.52</ele>
        <time>2012-03-16T13:18:28Z</time>
      </trkpt>
      <trkpt lat="45.64354" lon="6.5419">
        <ele>2027.08</ele>
        <time>2012-03-16T13:18:30Z</time>
      </trkpt>
      <trkpt lat="45.64366" lon="6.54201">
        <ele>2024.19</ele>
        <time>2012-03-16T13:18:32Z</time>
      </trkpt>
      <trkpt lat="45.64394" lon="6.5422">
        <ele>2018.43</ele>
        <time>2012-03-16T13:18:36Z</time>
      </trkpt>
      <trkpt lat="45.64415" lon="6.54232">
        <ele>2015.54</ele>
        <time>2012-03-16T13:18:40Z</time>
      </trkpt>
      <trkpt lat="45.64416" lon="6.54231">
        <ele>2014.58</ele>
        <time>2012-03-16T13:18:41Z</time>
      </trkpt>
      <trkpt lat="45.64414" lon="6.54233">
        <ele>2015.06</ele>
        <time>2012-03-16T13:18:49Z</time>
      </trkpt>
      <trkpt lat="45.64418" lon="6.54242">
        <ele>2009.77</ele>
        <time>2012-03-16T13:18:53Z</time>
      </trkpt>
      <trkpt lat="45.64421" lon="6.54244">
        <ele>2009.77</ele>
        <time>2012-03-16T13:18:54Z</time>
      </trkpt>
      <trkpt lat="45.64425" lon="6.54246">
        <ele>2009.77</ele>
        <time>2012-03-16T13:18:55Z</time>
      </trkpt>
      <trkpt lat="45.64431" lon="6.54249">
        <ele>2006.89</ele>
        <time>2012-03-16T13:18:56Z</time>
      </trkpt>
      <trkpt lat="45.6444" lon="6.54247">
        <ele>2005.93</ele>
        <time>2012-03-16T13:18:57Z</time>
      </trkpt>
      <trkpt lat="45.64448" lon="6.54244">
        <ele>2005.45</ele>
        <time>2012-03-16T13:18:58Z</time>
      </trkpt>
      <trkpt lat="45.64453" lon="6.54241">
        <ele>2004.97</ele>
        <time>2012-03-16T13:18:59Z</time>
      </trkpt>
      <trkpt lat="45.64458" lon="6.54238">
        <ele>2004.97</ele>
        <time>2012-03-16T13:19:00Z</time>
      </trkpt>
      <trkpt lat="45.64462" lon="6.54236">
        <ele>2003.52</ele>
        <time>2012-03-16T13:19:01Z</time>
      </trkpt>
      <trkpt lat="45.64467" lon="6.54233">
        <ele>2001.6</ele>
        <time>2012-03-16T13:19:02Z</time>
      </trkpt>
      <trkpt lat="45.64472" lon="6.54229">
        <ele>2001.6</ele>
        <time>2012-03-16T13:19:03Z</time>
      </trkpt>
      <trkpt lat="45.64476" lon="6.54225">
        <ele>2001.6</ele>
        <time>2012-03-16T13:19:04Z</time>
      </trkpt>
      <trkpt lat="45.6448" lon="6.54223">
        <ele>2002.08</ele>
        <time>2012-03-16T13:19:05Z</time>
      </trkpt>
      <trkpt lat="45.64485" lon="6.5422">
        <ele>2000.16</ele>
        <time>2012-03-16T13:19:06Z</time>
      </trkpt>
      <trkpt lat="45.6449" lon="6.54215">
        <ele>1999.2</ele>
        <time>2012-03-16T13:19:07Z</time>
      </trkpt>
      <trkpt lat="45.64491" lon="6.54209">
        <ele>1999.2</ele>
        <time>2012-03-16T13:19:08Z</time>
      </trkpt>
      <trkpt lat="45.6449" lon="6.54204">
        <ele>1999.68</ele>
        <time>2012-03-16T13:19:15Z</time>
      </trkpt>
      <trkpt lat="45.64491" lon="6.54189">
        <ele>1996.32</ele>
        <time>2012-03-16T13:19:23Z</time>
      </trkpt>
      <trkpt lat="45.64492" lon="6.54171">
        <ele>1994.87</ele>
        <time>2012-03-16T13:19:29Z</time>
      </trkpt>
      <trkpt lat="45.64492" lon="6.5416">
        <ele>1992.47</ele>
        <time>2012-03-16T13:19:33Z</time>
      </trkpt>
      <trkpt lat="45.64491" lon="6.54157">
        <ele>1991.51</ele>
        <time>2012-03-16T13:19:42Z</time>
      </trkpt>
      <trkpt lat="45.64498" lon="6.54161">
        <ele>1990.55</ele>
        <time>2012-03-16T13:19:45Z</time>
      </trkpt>
      <trkpt lat="45.64504" lon="6.54163">
        <ele>1989.1</ele>
        <time>2012-03-16T13:19:48Z</time>
      </trkpt>
      <trkpt lat="45.64505" lon="6.5416">
        <ele>1986.22</ele>
        <time>2012-03-16T13:19:49Z</time>
      </trkpt>
      <trkpt lat="45.64502" lon="6.54151">
        <ele>1982.38</ele>
        <time>2012-03-16T13:19:51Z</time>
      </trkpt>
      <trkpt lat="45.645" lon="6.54145">
        <ele>1984.3</ele>
        <time>2012-03-16T13:19:52Z</time>
      </trkpt>
      <trkpt lat="45.64497" lon="6.54131">
        <ele>1980.45</ele>
        <time>2012-03-16T13:19:54Z</time>
      </trkpt>
      <trkpt lat="45.64495" lon="6.54115">
        <ele>1978.05</ele>
        <time>2012-03-16T13:19:56Z</time>
      </trkpt>
      <trkpt lat="45.64495" lon="6.54098">
        <ele>1976.61</ele>
        <time>2012-03-16T13:19:58Z</time>
      </trkpt>
      <trkpt lat="45.64496" lon="6.54091">
        <ele>1975.17</ele>
        <time>2012-03-16T13:19:59Z</time>
      </trkpt>
      <trkpt lat="45.64497" lon="6.54088">
        <ele>1973.72</ele>
        <time>2012-03-16T13:20:00Z</time>
      </trkpt>
      <trkpt lat="45.64503" lon="6.54097">
        <ele>1969.4</ele>
        <time>2012-03-16T13:20:02Z</time>
      </trkpt>
      <trkpt lat="45.64513" lon="6.54108">
        <ele>1966.51</ele>
        <time>2012-03-16T13:20:06Z</time>
      </trkpt>
      <trkpt lat="45.64514" lon="6.54111">
        <ele>1965.55</ele>
        <time>2012-03-16T13:20:08Z</time>
      </trkpt>
      <trkpt lat="45.64516" lon="6.54111">
        <ele>1966.03</ele>
        <time>2012-03-16T13:20:26Z</time>
      </trkpt>
      <trkpt lat="45.6452" lon="6.54119">
        <ele>1961.71</ele>
        <time>2012-03-16T13:20:29Z</time>
      </trkpt>
      <trkpt lat="45.64528" lon="6.54136">
        <ele>1958.34</ele>
        <time>2012-03-16T13:20:33Z</time>
      </trkpt>
      <trkpt lat="45.64531" lon="6.5414">
        <ele>1958.34</ele>
        <time>2012-03-16T13:20:34Z</time>
      </trkpt>
      <trkpt lat="45.64534" lon="6.54143">
        <ele>1957.86</ele>
        <time>2012-03-16T13:20:35Z</time>
      </trkpt>
      <trkpt lat="45.64538" lon="6.54142">
        <ele>1954.02</ele>
        <time>2012-03-16T13:20:38Z</time>
      </trkpt>
      <trkpt lat="45.64538" lon="6.5414">
        <ele>1951.13</ele>
        <time>2012-03-16T13:20:40Z</time>
      </trkpt>
      <trkpt lat="45.64543" lon="6.54141">
        <ele>1949.69</ele>
        <time>2012-03-16T13:20:42Z</time>
      </trkpt>
      <trkpt lat="45.64544" lon="6.5414">
        <ele>1946.81</ele>
        <time>2012-03-16T13:20:43Z</time>
      </trkpt>
      <trkpt lat="45.64545" lon="6.54137">
        <ele>1943.44</ele>
        <time>2012-03-16T13:20:44Z</time>
      </trkpt>
      <trkpt lat="45.64547" lon="6.54131">
        <ele>1942</ele>
        <time>2012-03-16T13:20:47Z</time>
      </trkpt>
      <trkpt lat="45.64567" lon="6.5413">
        <ele>1933.83</ele>
        <time>2012-03-16T13:20:53Z</time>
      </trkpt>
      <trkpt lat="45.64575" lon="6.54132">
        <ele>1930.46</ele>
        <time>2012-03-16T13:20:55Z</time>
      </trkpt>
      <trkpt lat="45.64583" lon="6.54134">
        <ele>1927.1</ele>
        <time>2012-03-16T13:20:58Z</time>
      </trkpt>
      <trkpt lat="45.64586" lon="6.54133">
        <ele>1927.1</ele>
        <time>2012-03-16T13:20:59Z</time>
      </trkpt>
      <trkpt lat="45.64589" lon="6.54135">
        <ele>1923.74</ele>
        <time>2012-03-16T13:21:00Z</time>
      </trkpt>
      <trkpt lat="45.64608" lon="6.54135">
        <ele>1917.97</ele>
        <time>2012-03-16T13:21:04Z</time>
      </trkpt>
      <trkpt lat="45.64612" lon="6.54131">
        <ele>1918.45</ele>
        <time>2012-03-16T13:21:05Z</time>
      </trkpt>
      <trkpt lat="45.64616" lon="6.54127">
        <ele>1917.49</ele>
        <time>2012-03-16T13:21:06Z</time>
      </trkpt>
      <trkpt lat="45.64625" lon="6.54124">
        <ele>1913.64</ele>
        <time>2012-03-16T13:21:09Z</time>
      </trkpt>
      <trkpt lat="45.64626" lon="6.54127">
        <ele>1913.16</ele>
        <time>2012-03-16T13:21:19Z</time>
      </trkpt>
      <trkpt lat="45.64626" lon="6.54127">
        <ele>1912.68</ele>
        <time>2012-03-16T13:21:23Z</time>
      </trkpt>
      <trkpt lat="45.64627" lon="6.54131">
        <ele>1911.24</ele>
        <time>2012-03-16T13:21:25Z</time>
      </trkpt>
      <trkpt lat="45.64637" lon="6.54135">
        <ele>1906.91</ele>
        <time>2012-03-16T13:21:28Z</time>
      </trkpt>
      <trkpt lat="45.64641" lon="6.54135">
        <ele>1906.91</ele>
        <time>2012-03-16T13:21:29Z</time>
      </trkpt>
      <trkpt lat="45.64652" lon="6.54146">
        <ele>1904.51</ele>
        <time>2012-03-16T13:21:33Z</time>
      </trkpt>
      <trkpt lat="45.64659" lon="6.54154">
        <ele>1903.07</ele>
        <time>2012-03-16T13:21:35Z</time>
      </trkpt>
      <trkpt lat="45.64675" lon="6.54165">
        <ele>1898.26</ele>
        <time>2012-03-16T13:21:39Z</time>
      </trkpt>
      <trkpt lat="45.64686" lon="6.54159">
        <ele>1894.42</ele>
        <time>2012-03-16T13:21:41Z</time>
      </trkpt>
      <trkpt lat="45.64692" lon="6.5416">
        <ele>1889.61</ele>
        <time>2012-03-16T13:21:43Z</time>
      </trkpt>
      <trkpt lat="45.64694" lon="6.54159">
        <ele>1890.57</ele>
        <time>2012-03-16T13:21:44Z</time>
      </trkpt>
      <trkpt lat="45.64702" lon="6.54162">
        <ele>1887.21</ele>
        <time>2012-03-16T13:21:46Z</time>
      </trkpt>
      <trkpt lat="45.64712" lon="6.54162">
        <ele>1883.84</ele>
        <time>2012-03-16T13:21:49Z</time>
      </trkpt>
      <trkpt lat="45.64722" lon="6.54165">
        <ele>1880.96</ele>
        <time>2012-03-16T13:21:52Z</time>
      </trkpt>
      <trkpt lat="45.64736" lon="6.54173">
        <ele>1878.55</ele>
        <time>2012-03-16T13:21:55Z</time>
      </trkpt>
      <trkpt lat="45.64746" lon="6.54188">
        <ele>1873.27</ele>
        <time>2012-03-16T13:22:00Z</time>
      </trkpt>
      <trkpt lat="45.64746" lon="6.54192">
        <ele>1872.3</ele>
        <time>2012-03-16T13:22:01Z</time>
      </trkpt>
      <trkpt lat="45.64761" lon="6.54215">
        <ele>1867.98</ele>
        <time>2012-03-16T13:22:06Z</time>
      </trkpt>
      <trkpt lat="45.64764" lon="6.54244">
        <ele>1867.02</ele>
        <time>2012-03-16T13:22:11Z</time>
      </trkpt>
      <trkpt lat="45.64763" lon="6.54245">
        <ele>1868.46</ele>
        <time>2012-03-16T13:22:14Z</time>
      </trkpt>
      <trkpt lat="45.64762" lon="6.54246">
        <ele>1867.98</ele>
        <time>2012-03-16T13:22:33Z</time>
      </trkpt>
      <trkpt lat="45.64766" lon="6.54254">
        <ele>1866.06</ele>
        <time>2012-03-16T13:22:36Z</time>
      </trkpt>
      <trkpt lat="45.64776" lon="6.5426">
        <ele>1862.21</ele>
        <time>2012-03-16T13:22:39Z</time>
      </trkpt>
      <trkpt lat="45.64785" lon="6.5427">
        <ele>1859.33</ele>
        <time>2012-03-16T13:22:42Z</time>
      </trkpt>
      <trkpt lat="45.64793" lon="6.54271">
        <ele>1855.48</ele>
        <time>2012-03-16T13:22:44Z</time>
      </trkpt>
      <trkpt lat="45.64796" lon="6.54273">
        <ele>1853.56</ele>
        <time>2012-03-16T13:22:45Z</time>
      </trkpt>
      <trkpt lat="45.64809" lon="6.54289">
        <ele>1848.75</ele>
        <time>2012-03-16T13:22:49Z</time>
      </trkpt>
      <trkpt lat="45.64813" lon="6.54287">
        <ele>1848.75</ele>
        <time>2012-03-16T13:22:50Z</time>
      </trkpt>
      <trkpt lat="45.64818" lon="6.54277">
        <ele>1845.39</ele>
        <time>2012-03-16T13:22:52Z</time>
      </trkpt>
      <trkpt lat="45.64828" lon="6.5427">
        <ele>1841.54</ele>
        <time>2012-03-16T13:22:54Z</time>
      </trkpt>
      <trkpt lat="45.64836" lon="6.54271">
        <ele>1840.58</ele>
        <time>2012-03-16T13:22:56Z</time>
      </trkpt>
      <trkpt lat="45.64846" lon="6.54277">
        <ele>1834.33</ele>
        <time>2012-03-16T13:22:59Z</time>
      </trkpt>
      <trkpt lat="45.6486" lon="6.54275">
        <ele>1831.45</ele>
        <time>2012-03-16T13:23:02Z</time>
      </trkpt>
      <trkpt lat="45.64876" lon="6.5428">
        <ele>1829.05</ele>
        <time>2012-03-16T13:23:05Z</time>
      </trkpt>
      <trkpt lat="45.64884" lon="6.54291">
        <ele>1825.2</ele>
        <time>2012-03-16T13:23:08Z</time>
      </trkpt>
      <trkpt lat="45.64898" lon="6.54301">
        <ele>1822.8</ele>
        <time>2012-03-16T13:23:12Z</time>
      </trkpt>
      <trkpt lat="45.64901" lon="6.54318">
        <ele>1818.47</ele>
        <time>2012-03-16T13:23:14Z</time>
      </trkpt>
      <trkpt lat="45.64918" lon="6.5435">
        <ele>1812.7</ele>
        <time>2012-03-16T13:23:19Z</time>
      </trkpt>
      <trkpt lat="45.64923" lon="6.54366">
        <ele>1810.3</ele>
        <time>2012-03-16T13:23:22Z</time>
      </trkpt>
      <trkpt lat="45.64929" lon="6.5439">
        <ele>1806.45</ele>
        <time>2012-03-16T13:23:25Z</time>
      </trkpt>
      <trkpt lat="45.64933" lon="6.54404">
        <ele>1806.45</ele>
        <time>2012-03-16T13:23:27Z</time>
      </trkpt>
      <trkpt lat="45.64944" lon="6.54415">
        <ele>1802.61</ele>
        <time>2012-03-16T13:23:31Z</time>
      </trkpt>
      <trkpt lat="45.64949" lon="6.54416">
        <ele>1799.73</ele>
        <time>2012-03-16T13:23:33Z</time>
      </trkpt>
      <trkpt lat="45.64945" lon="6.54412">
        <ele>1798.28</ele>
        <time>2012-03-16T13:23:40Z</time>
      </trkpt>
      <trkpt lat="45.64945" lon="6.54412">
        <ele>1798.76</ele>
        <time>2012-03-16T13:23:57Z</time>
      </trkpt>
      <trkpt lat="45.64949" lon="6.54409">
        <ele>1794.92</ele>
        <time>2012-03-16T13:24:00Z</time>
      </trkpt>
      <trkpt lat="45.64959" lon="6.54412">
        <ele>1792.52</ele>
        <time>2012-03-16T13:24:03Z</time>
      </trkpt>
      <trkpt lat="45.64972" lon="6.54422">
        <ele>1788.19</ele>
        <time>2012-03-16T13:24:07Z</time>
      </trkpt>
      <trkpt lat="45.64973" lon="6.54424">
        <ele>1788.67</ele>
        <time>2012-03-16T13:24:08Z</time>
      </trkpt>
      <trkpt lat="45.64974" lon="6.54426">
        <ele>1788.19</ele>
        <time>2012-03-16T13:24:09Z</time>
      </trkpt>
      <trkpt lat="45.6498" lon="6.54433">
        <ele>1786.27</ele>
        <time>2012-03-16T13:24:12Z</time>
      </trkpt>
      <trkpt lat="45.64987" lon="6.54438">
        <ele>1783.86</ele>
        <time>2012-03-16T13:24:15Z</time>
      </trkpt>
      <trkpt lat="45.64992" lon="6.54448">
        <ele>1780.98</ele>
        <time>2012-03-16T13:24:18Z</time>
      </trkpt>
      <trkpt lat="45.64995" lon="6.54451">
        <ele>1779.06</ele>
        <time>2012-03-16T13:24:19Z</time>
      </trkpt>
      <trkpt lat="45.65008" lon="6.54464">
        <ele>1776.65</ele>
        <time>2012-03-16T13:24:23Z</time>
      </trkpt>
      <trkpt lat="45.65017" lon="6.5447">
        <ele>1775.21</ele>
        <time>2012-03-16T13:24:25Z</time>
      </trkpt>
      <trkpt lat="45.65028" lon="6.54478">
        <ele>1773.77</ele>
        <time>2012-03-16T13:24:28Z</time>
      </trkpt>
      <trkpt lat="45.65032" lon="6.54483">
        <ele>1771.85</ele>
        <time>2012-03-16T13:24:38Z</time>
      </trkpt>
      <trkpt lat="45.65047" lon="6.5449">
        <ele>1768</ele>
        <time>2012-03-16T13:24:42Z</time>
      </trkpt>
      <trkpt lat="45.65055" lon="6.54494">
        <ele>1764.16</ele>
        <time>2012-03-16T13:24:44Z</time>
      </trkpt>
      <trkpt lat="45.6506" lon="6.54504">
        <ele>1763.68</ele>
        <time>2012-03-16T13:24:50Z</time>
      </trkpt>
      <trkpt lat="45.6506" lon="6.54504">
        <ele>1763.68</ele>
        <time>2012-03-16T13:24:52Z</time>
      </trkpt>
      <trkpt lat="45.65065" lon="6.54507">
        <ele>1761.75</ele>
        <time>2012-03-16T13:24:54Z</time>
      </trkpt>
      <trkpt lat="45.65071" lon="6.5452">
        <ele>1757.91</ele>
        <time>2012-03-16T13:24:57Z</time>
      </trkpt>
      <trkpt lat="45.65073" lon="6.54523">
        <ele>1755.02</ele>
        <time>2012-03-16T13:24:58Z</time>
      </trkpt>
      <trkpt lat="45.65075" lon="6.54524">
        <ele>1754.54</ele>
        <time>2012-03-16T13:24:59Z</time>
      </trkpt>
      <trkpt lat="45.65087" lon="6.54533">
        <ele>1749.26</ele>
        <time>2012-03-16T13:25:04Z</time>
      </trkpt>
      <trkpt lat="45.65097" lon="6.54542">
        <ele>1745.89</ele>
        <time>2012-03-16T13:25:07Z</time>
      </trkpt>
      <trkpt lat="45.65113" lon="6.54564">
        <ele>1739.64</ele>
        <time>2012-03-16T13:25:13Z</time>
      </trkpt>
      <trkpt lat="45.65115" lon="6.54566">
        <ele>1739.64</ele>
        <time>2012-03-16T13:25:14Z</time>
      </trkpt>
      <trkpt lat="45.65117" lon="6.5457">
        <ele>1739.16</ele>
        <time>2012-03-16T13:25:15Z</time>
      </trkpt>
      <trkpt lat="45.65118" lon="6.54576">
        <ele>1738.68</ele>
        <time>2012-03-16T13:25:16Z</time>
      </trkpt>
      <trkpt lat="45.65125" lon="6.54595">
        <ele>1736.28</ele>
        <time>2012-03-16T13:25:20Z</time>
      </trkpt>
      <trkpt lat="45.65134" lon="6.54598">
        <ele>1732.43</ele>
        <time>2012-03-16T13:25:23Z</time>
      </trkpt>
      <trkpt lat="45.65137" lon="6.54596">
        <ele>1732.43</ele>
        <time>2012-03-16T13:25:24Z</time>
      </trkpt>
      <trkpt lat="45.65139" lon="6.54597">
        <ele>1730.99</ele>
        <time>2012-03-16T13:25:26Z</time>
      </trkpt>
      <trkpt lat="45.65143" lon="6.54594">
        <ele>1729.55</ele>
        <time>2012-03-16T13:25:28Z</time>
      </trkpt>
      <trkpt lat="45.6515" lon="6.546">
        <ele>1726.67</ele>
        <time>2012-03-16T13:25:31Z</time>
      </trkpt>
      <trkpt lat="45.65161" lon="6.54604">
        <ele>1725.7</ele>
        <time>2012-03-16T13:25:34Z</time>
      </trkpt>
      <trkpt lat="45.65175" lon="6.54608">
        <ele>1721.38</ele>
        <time>2012-03-16T13:25:36Z</time>
      </trkpt>
      <trkpt lat="45.65189" lon="6.54612">
        <ele>1718.01</ele>
        <time>2012-03-16T13:25:38Z</time>
      </trkpt>
      <trkpt lat="45.65203" lon="6.54621">
        <ele>1717.05</ele>
        <time>2012-03-16T13:25:40Z</time>
      </trkpt>
      <trkpt lat="45.65218" lon="6.54626">
        <ele>1717.53</ele>
        <time>2012-03-16T13:25:45Z</time>
      </trkpt>
      <trkpt lat="45.65207" lon="6.54612">
        <ele>1717.05</ele>
        <time>2012-03-16T13:26:06Z</time>
      </trkpt>
      <trkpt lat="45.65207" lon="6.54612">
        <ele>1715.61</ele>
        <time>2012-03-16T13:26:18Z</time>
      </trkpt>
      <trkpt lat="45.65207" lon="6.54613">
        <ele>1713.69</ele>
        <time>2012-03-16T13:26:21Z</time>
      </trkpt>
      <trkpt lat="45.65206" lon="6.54626">
        <ele>1711.76</ele>
        <time>2012-03-16T13:26:24Z</time>
      </trkpt>
      <trkpt lat="45.65201" lon="6.54641">
        <ele>1710.8</ele>
        <time>2012-03-16T13:26:29Z</time>
      </trkpt>
      <trkpt lat="45.65202" lon="6.54655">
        <ele>1706</ele>
        <time>2012-03-16T13:26:32Z</time>
      </trkpt>
      <trkpt lat="45.65204" lon="6.54664">
        <ele>1705.04</ele>
        <time>2012-03-16T13:26:34Z</time>
      </trkpt>
      <trkpt lat="45.65206" lon="6.54684">
        <ele>1701.19</ele>
        <time>2012-03-16T13:26:37Z</time>
      </trkpt>
      <trkpt lat="45.65205" lon="6.547">
        <ele>1699.75</ele>
        <time>2012-03-16T13:26:43Z</time>
      </trkpt>
      <trkpt lat="45.65212" lon="6.54711">
        <ele>1695.42</ele>
        <time>2012-03-16T13:26:46Z</time>
      </trkpt>
      <trkpt lat="45.65213" lon="6.54723">
        <ele>1693.5</ele>
        <time>2012-03-16T13:26:49Z</time>
      </trkpt>
      <trkpt lat="45.65214" lon="6.54727">
        <ele>1693.5</ele>
        <time>2012-03-16T13:26:52Z</time>
      </trkpt>
      <trkpt lat="45.65218" lon="6.54747">
        <ele>1688.69</ele>
        <time>2012-03-16T13:26:56Z</time>
      </trkpt>
      <trkpt lat="45.65224" lon="6.54767">
        <ele>1685.33</ele>
        <time>2012-03-16T13:27:00Z</time>
      </trkpt>
      <trkpt lat="45.65239" lon="6.54787">
        <ele>1682.44</ele>
        <time>2012-03-16T13:27:07Z</time>
      </trkpt>
      <trkpt lat="45.65244" lon="6.5479">
        <ele>1681.96</ele>
        <time>2012-03-16T13:27:20Z</time>
      </trkpt>
      <trkpt lat="45.65249" lon="6.5479">
        <ele>1679.56</ele>
        <time>2012-03-16T13:27:33Z</time>
      </trkpt>
      <trkpt lat="45.65253" lon="6.5479">
        <ele>1676.2</ele>
        <time>2012-03-16T13:27:39Z</time>
      </trkpt>
      <trkpt lat="45.65255" lon="6.5479">
        <ele>1674.75</ele>
        <time>2012-03-16T13:27:41Z</time>
      </trkpt>
      <trkpt lat="45.65262" lon="6.54788">
        <ele>1671.39</ele>
        <time>2012-03-16T13:27:48Z</time>
      </trkpt>
      <trkpt lat="45.65265" lon="6.54787">
        <ele>1669.47</ele>
        <time>2012-03-16T13:27:54Z</time>
      </trkpt>
      <trkpt lat="45.65265" lon="6.54797">
        <ele>1664.66</ele>
        <time>2012-03-16T13:28:00Z</time>
      </trkpt>
      <trkpt lat="45.65264" lon="6.548">
        <ele>1665.14</ele>
        <time>2012-03-16T13:28:01Z</time>
      </trkpt>
      <trkpt lat="45.65263" lon="6.54804">
        <ele>1663.22</ele>
        <time>2012-03-16T13:28:03Z</time>
      </trkpt>
      <trkpt lat="45.65264" lon="6.54818">
        <ele>1661.78</ele>
        <time>2012-03-16T13:28:07Z</time>
      </trkpt>
      <trkpt lat="45.65266" lon="6.54823">
        <ele>1658.89</ele>
        <time>2012-03-16T13:28:08Z</time>
      </trkpt>
      <trkpt lat="45.65275" lon="6.54833">
        <ele>1657.93</ele>
        <time>2012-03-16T13:28:19Z</time>
      </trkpt>
      <trkpt lat="45.65276" lon="6.54834">
        <ele>1657.93</ele>
        <time>2012-03-16T13:28:23Z</time>
      </trkpt>
      <trkpt lat="45.65277" lon="6.5484">
        <ele>1655.05</ele>
        <time>2012-03-16T13:28:26Z</time>
      </trkpt>
      <trkpt lat="45.65277" lon="6.54847">
        <ele>1651.68</ele>
        <time>2012-03-16T13:28:30Z</time>
      </trkpt>
      <trkpt lat="45.65282" lon="6.54864">
        <ele>1648.32</ele>
        <time>2012-03-16T13:28:34Z</time>
      </trkpt>
      <trkpt lat="45.65286" lon="6.54868">
        <ele>1645.91</ele>
        <time>2012-03-16T13:28:36Z</time>
      </trkpt>
      <trkpt lat="45.65291" lon="6.54874">
        <ele>1643.03</ele>
        <time>2012-03-16T13:28:38Z</time>
      </trkpt>
      <trkpt lat="45.65303" lon="6.54883">
        <ele>1641.11</ele>
        <time>2012-03-16T13:28:43Z</time>
      </trkpt>
      <trkpt lat="45.65316" lon="6.54896">
        <ele>1636.78</ele>
        <time>2012-03-16T13:28:49Z</time>
      </trkpt>
      <trkpt lat="45.6532" lon="6.54898">
        <ele>1637.26</ele>
        <time>2012-03-16T13:28:51Z</time>
      </trkpt>
      <trkpt lat="45.6533" lon="6.54908">
        <ele>1634.86</ele>
        <time>2012-03-16T13:28:54Z</time>
      </trkpt>
      <trkpt lat="45.65334" lon="6.54912">
        <ele>1632.94</ele>
        <time>2012-03-16T13:28:55Z</time>
      </trkpt>
      <trkpt lat="45.65349" lon="6.54923">
        <ele>1630.05</ele>
        <time>2012-03-16T13:28:59Z</time>
      </trkpt>
      <trkpt lat="45.65351" lon="6.54936">
        <ele>1627.65</ele>
        <time>2012-03-16T13:29:01Z</time>
      </trkpt>
      <trkpt lat="45.65362" lon="6.54948">
        <ele>1623.8</ele>
        <time>2012-03-16T13:29:05Z</time>
      </trkpt>
      <trkpt lat="45.65368" lon="6.54958">
        <ele>1619.96</ele>
        <time>2012-03-16T13:29:08Z</time>
      </trkpt>
      <trkpt lat="45.65377" lon="6.54956">
        <ele>1618.52</ele>
        <time>2012-03-16T13:29:10Z</time>
      </trkpt>
      <trkpt lat="45.65381" lon="6.54956">
        <ele>1617.07</ele>
        <time>2012-03-16T13:29:11Z</time>
      </trkpt>
      <trkpt lat="45.65387" lon="6.54962">
        <ele>1617.07</ele>
        <time>2012-03-16T13:29:13Z</time>
      </trkpt>
      <trkpt lat="45.654" lon="6.54967">
        <ele>1613.71</ele>
        <time>2012-03-16T13:29:16Z</time>
      </trkpt>
      <trkpt lat="45.65409" lon="6.5498">
        <ele>1608.9</ele>
        <time>2012-03-16T13:29:21Z</time>
      </trkpt>
      <trkpt lat="45.65411" lon="6.54981">
        <ele>1609.86</ele>
        <time>2012-03-16T13:29:22Z</time>
      </trkpt>
      <trkpt lat="45.65415" lon="6.54989">
        <ele>1606.98</ele>
        <time>2012-03-16T13:29:24Z</time>
      </trkpt>
      <trkpt lat="45.6542" lon="6.54995">
        <ele>1604.58</ele>
        <time>2012-03-16T13:29:26Z</time>
      </trkpt>
      <trkpt lat="45.65429" lon="6.54997">
        <ele>1601.69</ele>
        <time>2012-03-16T13:29:30Z</time>
      </trkpt>
      <trkpt lat="45.65434" lon="6.55">
        <ele>1599.77</ele>
        <time>2012-03-16T13:29:32Z</time>
      </trkpt>
      <trkpt lat="45.65441" lon="6.55001">
        <ele>1599.77</ele>
        <time>2012-03-16T13:29:41Z</time>
      </trkpt>
      <trkpt lat="45.65441" lon="6.55001">
        <ele>1599.77</ele>
        <time>2012-03-16T13:29:49Z</time>
      </trkpt>
      <trkpt lat="45.65453" lon="6.55007">
        <ele>1593.52</ele>
        <time>2012-03-16T13:29:55Z</time>
      </trkpt>
      <trkpt lat="45.65455" lon="6.55008">
        <ele>1594.48</ele>
        <time>2012-03-16T13:29:56Z</time>
      </trkpt>
      <trkpt lat="45.65464" lon="6.55015">
        <ele>1591.12</ele>
        <time>2012-03-16T13:30:02Z</time>
      </trkpt>
      <trkpt lat="45.65466" lon="6.55013">
        <ele>1590.64</ele>
        <time>2012-03-16T13:30:03Z</time>
      </trkpt>
      <trkpt lat="45.6547" lon="6.55017">
        <ele>1589.2</ele>
        <time>2012-03-16T13:30:06Z</time>
      </trkpt>
      <trkpt lat="45.65472" lon="6.55032">
        <ele>1585.35</ele>
        <time>2012-03-16T13:30:10Z</time>
      </trkpt>
      <trkpt lat="45.65478" lon="6.55042">
        <ele>1584.87</ele>
        <time>2012-03-16T13:30:14Z</time>
      </trkpt>
      <trkpt lat="45.65495" lon="6.55046">
        <ele>1581.03</ele>
        <time>2012-03-16T13:30:19Z</time>
      </trkpt>
      <trkpt lat="45.65499" lon="6.55046">
        <ele>1580.54</ele>
        <time>2012-03-16T13:30:20Z</time>
      </trkpt>
      <trkpt lat="45.6551" lon="6.55059">
        <ele>1577.66</ele>
        <time>2012-03-16T13:30:26Z</time>
      </trkpt>
      <trkpt lat="45.65519" lon="6.55066">
        <ele>1575.26</ele>
        <time>2012-03-16T13:30:32Z</time>
      </trkpt>
      <trkpt lat="45.65526" lon="6.5507">
        <ele>1572.85</ele>
        <time>2012-03-16T13:30:35Z</time>
      </trkpt>
      <trkpt lat="45.65527" lon="6.55071">
        <ele>1572.37</ele>
        <time>2012-03-16T13:30:36Z</time>
      </trkpt>
      <trkpt lat="45.65531" lon="6.55086">
        <ele>1569.97</ele>
        <time>2012-03-16T13:30:42Z</time>
      </trkpt>
      <trkpt lat="45.65541" lon="6.55113">
        <ele>1568.05</ele>
        <time>2012-03-16T13:30:51Z</time>
      </trkpt>
      <trkpt lat="45.65541" lon="6.55113">
        <ele>1568.05</ele>
        <time>2012-03-16T13:31:08Z</time>
      </trkpt>
      <trkpt lat="45.65541" lon="6.55113">
        <ele>1568.05</ele>
        <time>2012-03-16T13:31:18Z</time>
      </trkpt>
      <trkpt lat="45.65547" lon="6.55119">
        <ele>1565.64</ele>
        <time>2012-03-16T13:31:21Z</time>
      </trkpt>
      <trkpt lat="45.65551" lon="6.55124">
        <ele>1563.24</ele>
        <time>2012-03-16T13:31:22Z</time>
      </trkpt>
      <trkpt lat="45.65555" lon="6.5513">
        <ele>1562.76</ele>
        <time>2012-03-16T13:31:23Z</time>
      </trkpt>
      <trkpt lat="45.65562" lon="6.55141">
        <ele>1560.84</ele>
        <time>2012-03-16T13:31:25Z</time>
      </trkpt>
      <trkpt lat="45.6557" lon="6.5515">
        <ele>1559.88</ele>
        <time>2012-03-16T13:31:27Z</time>
      </trkpt>
      <trkpt lat="45.65577" lon="6.55158">
        <ele>1559.88</ele>
        <time>2012-03-16T13:31:35Z</time>
      </trkpt>
      <trkpt lat="45.65578" lon="6.55162">
        <ele>1558.43</ele>
        <time>2012-03-16T13:32:03Z</time>
      </trkpt>
      <trkpt lat="45.65579" lon="6.5517">
        <ele>1556.99</ele>
        <time>2012-03-16T13:32:06Z</time>
      </trkpt>
      <trkpt lat="45.65586" lon="6.55172">
        <ele>1553.15</ele>
        <time>2012-03-16T13:32:11Z</time>
      </trkpt>
      <trkpt lat="45.65591" lon="6.55167">
        <ele>1551.22</ele>
        <time>2012-03-16T13:32:13Z</time>
      </trkpt>
      <trkpt lat="45.65594" lon="6.55166">
        <ele>1547.86</ele>
        <time>2012-03-16T13:32:14Z</time>
      </trkpt>
      <trkpt lat="45.65597" lon="6.55164">
        <ele>1547.86</ele>
        <time>2012-03-16T13:32:15Z</time>
      </trkpt>
      <trkpt lat="45.65607" lon="6.55165">
        <ele>1545.46</ele>
        <time>2012-03-16T13:32:18Z</time>
      </trkpt>
      <trkpt lat="45.65614" lon="6.55171">
        <ele>1544.01</ele>
        <time>2012-03-16T13:32:20Z</time>
      </trkpt>
      <trkpt lat="45.65619" lon="6.55173">
        <ele>1541.61</ele>
        <time>2012-03-16T13:32:21Z</time>
      </trkpt>
      <trkpt lat="45.65623" lon="6.55178">
        <ele>1541.13</ele>
        <time>2012-03-16T13:32:22Z</time>
      </trkpt>
      <trkpt lat="45.65627" lon="6.55182">
        <ele>1540.17</ele>
        <time>2012-03-16T13:32:23Z</time>
      </trkpt>
      <trkpt lat="45.65631" lon="6.55183">
        <ele>1539.21</ele>
        <time>2012-03-16T13:32:24Z</time>
      </trkpt>
      <trkpt lat="45.65636" lon="6.55186">
        <ele>1537.77</ele>
        <time>2012-03-16T13:32:25Z</time>
      </trkpt>
      <trkpt lat="45.6564" lon="6.55188">
        <ele>1537.29</ele>
        <time>2012-03-16T13:32:26Z</time>
      </trkpt>
      <trkpt lat="45.65644" lon="6.55188">
        <ele>1535.36</ele>
        <time>2012-03-16T13:32:27Z</time>
      </trkpt>
      <trkpt lat="45.65654" lon="6.55186">
        <ele>1533.44</ele>
        <time>2012-03-16T13:32:29Z</time>
      </trkpt>
      <trkpt lat="45.65659" lon="6.55185">
        <ele>1532.48</ele>
        <time>2012-03-16T13:32:30Z</time>
      </trkpt>
      <trkpt lat="45.65669" lon="6.55184">
        <ele>1531.52</ele>
        <time>2012-03-16T13:32:32Z</time>
      </trkpt>
      <trkpt lat="45.65673" lon="6.55181">
        <ele>1530.08</ele>
        <time>2012-03-16T13:32:33Z</time>
      </trkpt>
      <trkpt lat="45.65678" lon="6.55181">
        <ele>1528.63</ele>
        <time>2012-03-16T13:32:34Z</time>
      </trkpt>
      <trkpt lat="45.65683" lon="6.55181">
        <ele>1528.63</ele>
        <time>2012-03-16T13:32:35Z</time>
      </trkpt>
      <trkpt lat="45.65689" lon="6.55181">
        <ele>1527.67</ele>
        <time>2012-03-16T13:32:36Z</time>
      </trkpt>
      <trkpt lat="45.65694" lon="6.55182">
        <ele>1527.19</ele>
        <time>2012-03-16T13:32:37Z</time>
      </trkpt>
      <trkpt lat="45.65698" lon="6.55184">
        <ele>1526.71</ele>
        <time>2012-03-16T13:32:38Z</time>
      </trkpt>
      <trkpt lat="45.65702" lon="6.55185">
        <ele>1525.75</ele>
        <time>2012-03-16T13:32:39Z</time>
      </trkpt>
      <trkpt lat="45.65709" lon="6.55185">
        <ele>1525.75</ele>
        <time>2012-03-16T13:32:46Z</time>
      </trkpt>
      <trkpt lat="45.65714" lon="6.55185">
        <ele>1523.83</ele>
        <time>2012-03-16T13:32:57Z</time>
      </trkpt>
      <trkpt lat="45.65723" lon="6.55185">
        <ele>1520.46</ele>
        <time>2012-03-16T13:33:02Z</time>
      </trkpt>
      <trkpt lat="45.65735" lon="6.55186">
        <ele>1516.62</ele>
        <time>2012-03-16T13:33:07Z</time>
      </trkpt>
      <trkpt lat="45.65738" lon="6.55187">
        <ele>1516.62</ele>
        <time>2012-03-16T13:33:08Z</time>
      </trkpt>
      <trkpt lat="45.65748" lon="6.55186">
        <ele>1513.73</ele>
        <time>2012-03-16T13:33:12Z</time>
      </trkpt>
      <trkpt lat="45.65759" lon="6.55185">
        <ele>1511.33</ele>
        <time>2012-03-16T13:33:16Z</time>
      </trkpt>
      <trkpt lat="45.65766" lon="6.55186">
        <ele>1507.48</ele>
        <time>2012-03-16T13:33:19Z</time>
      </trkpt>
      <trkpt lat="45.6577" lon="6.55186">
        <ele>1507.48</ele>
        <time>2012-03-16T13:33:20Z</time>
      </trkpt>
      <trkpt lat="45.65784" lon="6.55189">
        <ele>1503.64</ele>
        <time>2012-03-16T13:33:24Z</time>
      </trkpt>
      <trkpt lat="45.65796" lon="6.5519">
        <ele>1501.72</ele>
        <time>2012-03-16T13:33:27Z</time>
      </trkpt>
      <trkpt lat="45.65803" lon="6.55192">
        <ele>1501.24</ele>
        <time>2012-03-16T13:33:29Z</time>
      </trkpt>
      <trkpt lat="45.65807" lon="6.55191">
        <ele>1499.79</ele>
        <time>2012-03-16T13:33:30Z</time>
      </trkpt>
      <trkpt lat="45.65813" lon="6.5519">
        <ele>1497.87</ele>
        <time>2012-03-16T13:33:32Z</time>
      </trkpt>
      <trkpt lat="45.65818" lon="6.55189">
        <ele>1497.39</ele>
        <time>2012-03-16T13:33:35Z</time>
      </trkpt>
      <trkpt lat="45.65819" lon="6.55188">
        <ele>1496.43</ele>
        <time>2012-03-16T13:33:36Z</time>
      </trkpt>
      <trkpt lat="45.65821" lon="6.55188">
        <ele>1495.95</ele>
        <time>2012-03-16T13:33:37Z</time>
      </trkpt>
      <trkpt lat="45.65822" lon="6.55189">
        <ele>1495.95</ele>
        <time>2012-03-16T13:33:38Z</time>
      </trkpt>
      <trkpt lat="45.65824" lon="6.5519">
        <ele>1495.47</ele>
        <time>2012-03-16T13:33:39Z</time>
      </trkpt>
      <trkpt lat="45.65835" lon="6.55199">
        <ele>1492.58</ele>
        <time>2012-03-16T13:33:43Z</time>
      </trkpt>
      <trkpt lat="45.65843" lon="6.55211">
        <ele>1490.66</ele>
        <time>2012-03-16T13:33:46Z</time>
      </trkpt>
      <trkpt lat="45.65856" lon="6.55231">
        <ele>1486.82</ele>
        <time>2012-03-16T13:33:53Z</time>
      </trkpt>
      <trkpt lat="45.65864" lon="6.5524">
        <ele>1483.93</ele>
        <time>2012-03-16T13:33:57Z</time>
      </trkpt>
      <trkpt lat="45.65873" lon="6.5525">
        <ele>1481.05</ele>
        <time>2012-03-16T13:34:02Z</time>
      </trkpt>
      <trkpt lat="45.65884" lon="6.55247">
        <ele>1477.68</ele>
        <time>2012-03-16T13:34:09Z</time>
      </trkpt>
      <trkpt lat="45.65887" lon="6.55243">
        <ele>1477.68</ele>
        <time>2012-03-16T13:34:12Z</time>
      </trkpt>
      <trkpt lat="45.65891" lon="6.5524">
        <ele>1476.24</ele>
        <time>2012-03-16T13:34:15Z</time>
      </trkpt>
      <trkpt lat="45.65893" lon="6.55239">
        <ele>1475.76</ele>
        <time>2012-03-16T13:34:17Z</time>
      </trkpt>
      <trkpt lat="45.65895" lon="6.55239">
        <ele>1474.8</ele>
        <time>2012-03-16T13:34:18Z</time>
      </trkpt>
      <trkpt lat="45.65898" lon="6.55238">
        <ele>1473.84</ele>
        <time>2012-03-16T13:34:19Z</time>
      </trkpt>
      <trkpt lat="45.65902" lon="6.55239">
        <ele>1473.84</ele>
        <time>2012-03-16T13:34:20Z</time>
      </trkpt>
      <trkpt lat="45.65906" lon="6.55241">
        <ele>1472.88</ele>
        <time>2012-03-16T13:34:21Z</time>
      </trkpt>
      <trkpt lat="45.6591" lon="6.55241">
        <ele>1471.92</ele>
        <time>2012-03-16T13:34:22Z</time>
      </trkpt>
      <trkpt lat="45.65914" lon="6.55241">
        <ele>1471.44</ele>
        <time>2012-03-16T13:34:23Z</time>
      </trkpt>
      <trkpt lat="45.65917" lon="6.55242">
        <ele>1469.99</ele>
        <time>2012-03-16T13:34:24Z</time>
      </trkpt>
      <trkpt lat="45.65922" lon="6.55244">
        <ele>1468.07</ele>
        <time>2012-03-16T13:34:25Z</time>
      </trkpt>
      <trkpt lat="45.65926" lon="6.55243">
        <ele>1467.59</ele>
        <time>2012-03-16T13:34:26Z</time>
      </trkpt>
      <trkpt lat="45.65928" lon="6.55239">
        <ele>1467.11</ele>
        <time>2012-03-16T13:34:27Z</time>
      </trkpt>
      <trkpt lat="45.65928" lon="6.55236">
        <ele>1466.15</ele>
        <time>2012-03-16T13:34:28Z</time>
      </trkpt>
      <trkpt lat="45.65928" lon="6.55233">
        <ele>1466.15</ele>
        <time>2012-03-16T13:34:40Z</time>
      </trkpt>
      <trkpt lat="45.65922" lon="6.55221">
        <ele>1464.71</ele>
        <time>2012-03-16T13:34:51Z</time>
      </trkpt>
      <trkpt lat="45.65921" lon="6.55217">
        <ele>1463.74</ele>
        <time>2012-03-16T13:34:52Z</time>
      </trkpt>
      <trkpt lat="45.65919" lon="6.55213">
        <ele>1462.78</ele>
        <time>2012-03-16T13:34:53Z</time>
      </trkpt>
      <trkpt lat="45.65917" lon="6.55209">
        <ele>1462.3</ele>
        <time>2012-03-16T13:34:54Z</time>
      </trkpt>
      <trkpt lat="45.65916" lon="6.55204">
        <ele>1461.34</ele>
        <time>2012-03-16T13:34:55Z</time>
      </trkpt>
      <trkpt lat="45.65917" lon="6.55198">
        <ele>1460.38</ele>
        <time>2012-03-16T13:34:56Z</time>
      </trkpt>
      <trkpt lat="45.6592" lon="6.55195">
        <ele>1459.9</ele>
        <time>2012-03-16T13:34:57Z</time>
      </trkpt>
      <trkpt lat="45.65924" lon="6.55195">
        <ele>1458.94</ele>
        <time>2012-03-16T13:34:58Z</time>
      </trkpt>
      <trkpt lat="45.65928" lon="6.55198">
        <ele>1457.98</ele>
        <time>2012-03-16T13:34:59Z</time>
      </trkpt>
      <trkpt lat="45.65932" lon="6.552">
        <ele>1457.5</ele>
        <time>2012-03-16T13:35:00Z</time>
      </trkpt>
      <trkpt lat="45.65935" lon="6.55203">
        <ele>1456.53</ele>
        <time>2012-03-16T13:35:01Z</time>
      </trkpt>
      <trkpt lat="45.65938" lon="6.55204">
        <ele>1455.57</ele>
        <time>2012-03-16T13:35:02Z</time>
      </trkpt>
      <trkpt lat="45.65951" lon="6.55211">
        <ele>1451.73</ele>
        <time>2012-03-16T13:35:06Z</time>
      </trkpt>
      <trkpt lat="45.65957" lon="6.55212">
        <ele>1450.77</ele>
        <time>2012-03-16T13:35:08Z</time>
      </trkpt>
      <trkpt lat="45.65966" lon="6.55212">
        <ele>1447.4</ele>
        <time>2012-03-16T13:35:11Z</time>
      </trkpt>
      <trkpt lat="45.65973" lon="6.55216">
        <ele>1445.96</ele>
        <time>2012-03-16T13:35:13Z</time>
      </trkpt>
      <trkpt lat="45.65976" lon="6.55217">
        <ele>1445.96</ele>
        <time>2012-03-16T13:35:14Z</time>
      </trkpt>
      <trkpt lat="45.65979" lon="6.55216">
        <ele>1443.56</ele>
        <time>2012-03-16T13:35:15Z</time>
      </trkpt>
      <trkpt lat="45.65985" lon="6.55217">
        <ele>1442.11</ele>
        <time>2012-03-16T13:35:18Z</time>
      </trkpt>
      <trkpt lat="45.65984" lon="6.55217">
        <ele>1442.11</ele>
        <time>2012-03-16T13:35:19Z</time>
      </trkpt>
      <trkpt lat="45.65983" lon="6.55216">
        <ele>1442.11</ele>
        <time>2012-03-16T13:35:20Z</time>
      </trkpt>
      <trkpt lat="45.65981" lon="6.55213">
        <ele>1441.15</ele>
        <time>2012-03-16T13:35:21Z</time>
      </trkpt>
      <trkpt lat="45.65974" lon="6.55206">
        <ele>1439.71</ele>
        <time>2012-03-16T13:35:23Z</time>
      </trkpt>
      <trkpt lat="45.65979" lon="6.55201">
        <ele>1437.31</ele>
        <time>2012-03-16T13:35:29Z</time>
      </trkpt>
      <trkpt lat="45.65984" lon="6.55204">
        <ele>1435.87</ele>
        <time>2012-03-16T13:35:32Z</time>
      </trkpt>
      <trkpt lat="45.65998" lon="6.55209">
        <ele>1432.98</ele>
        <time>2012-03-16T13:35:37Z</time>
      </trkpt>
      <trkpt lat="45.66002" lon="6.55211">
        <ele>1432.5</ele>
        <time>2012-03-16T13:35:38Z</time>
      </trkpt>
      <trkpt lat="45.66007" lon="6.55213">
        <ele>1431.06</ele>
        <time>2012-03-16T13:35:39Z</time>
      </trkpt>
      <trkpt lat="45.66012" lon="6.55214">
        <ele>1430.58</ele>
        <time>2012-03-16T13:35:40Z</time>
      </trkpt>
      <trkpt lat="45.66018" lon="6.55214">
        <ele>1429.62</ele>
        <time>2012-03-16T13:35:41Z</time>
      </trkpt>
      <trkpt lat="45.66023" lon="6.55213">
        <ele>1428.66</ele>
        <time>2012-03-16T13:35:42Z</time>
      </trkpt>
      <trkpt lat="45.66027" lon="6.55212">
        <ele>1427.21</ele>
        <time>2012-03-16T13:35:43Z</time>
      </trkpt>
      <trkpt lat="45.66032" lon="6.55211">
        <ele>1427.21</ele>
        <time>2012-03-16T13:35:44Z</time>
      </trkpt>
      <trkpt lat="45.66053" lon="6.55206">
        <ele>1423.37</ele>
        <time>2012-03-16T13:35:50Z</time>
      </trkpt>
      <trkpt lat="45.6606" lon="6.55204">
        <ele>1421.45</ele>
        <time>2012-03-16T13:35:52Z</time>
      </trkpt>
      <trkpt lat="45.66071" lon="6.55205">
        <ele>1420</ele>
        <time>2012-03-16T13:35:54Z</time>
      </trkpt>
      <trkpt lat="45.66077" lon="6.55205">
        <ele>1419.04</ele>
        <time>2012-03-16T13:35:55Z</time>
      </trkpt>
      <trkpt lat="45.66084" lon="6.55205">
        <ele>1418.56</ele>
        <time>2012-03-16T13:35:56Z</time>
      </trkpt>
      <trkpt lat="45.66091" lon="6.55205">
        <ele>1418.08</ele>
        <time>2012-03-16T13:35:57Z</time>
      </trkpt>
      <trkpt lat="45.66119" lon="6.55202">
        <ele>1413.76</ele>
        <time>2012-03-16T13:36:02Z</time>
      </trkpt>
      <trkpt lat="45.66128" lon="6.55199">
        <ele>1410.39</ele>
        <time>2012-03-16T13:36:05Z</time>
      </trkpt>
      <trkpt lat="45.66131" lon="6.55198">
        <ele>1409.43</ele>
        <time>2012-03-16T13:36:06Z</time>
      </trkpt>
      <trkpt lat="45.66146" lon="6.55198">
        <ele>1406.07</ele>
        <time>2012-03-16T13:36:10Z</time>
      </trkpt>
      <trkpt lat="45.66152" lon="6.55198">
        <ele>1405.1</ele>
        <time>2012-03-16T13:36:11Z</time>
      </trkpt>
      <trkpt lat="45.66159" lon="6.55197">
        <ele>1404.62</ele>
        <time>2012-03-16T13:36:12Z</time>
      </trkpt>
      <trkpt lat="45.66178" lon="6.55194">
        <ele>1401.26</ele>
        <time>2012-03-16T13:36:15Z</time>
      </trkpt>
      <trkpt lat="45.66195" lon="6.55188">
        <ele>1400.3</ele>
        <time>2012-03-16T13:36:18Z</time>
      </trkpt>
      <trkpt lat="45.66202" lon="6.55187">
        <ele>1399.82</ele>
        <time>2012-03-16T13:36:19Z</time>
      </trkpt>
      <trkpt lat="45.66206" lon="6.55186">
        <ele>1397.89</ele>
        <time>2012-03-16T13:36:20Z</time>
      </trkpt>
      <trkpt lat="45.66227" lon="6.55187">
        <ele>1397.41</ele>
        <time>2012-03-16T13:36:21Z</time>
      </trkpt>
      <trkpt lat="45.66232" lon="6.5518">
        <ele>1397.41</ele>
        <time>2012-03-16T13:36:35Z</time>
      </trkpt>
      <trkpt lat="45.66231" lon="6.55178">
        <ele>1397.89</ele>
        <time>2012-03-16T13:36:55Z</time>
      </trkpt>
      <trkpt lat="45.66231" lon="6.55177">
        <ele>1396.93</ele>
        <time>2012-03-16T13:36:56Z</time>
      </trkpt>
      <trkpt lat="45.66227" lon="6.55174">
        <ele>1395.49</ele>
        <time>2012-03-16T13:36:59Z</time>
      </trkpt>
      <trkpt lat="45.66226" lon="6.55173">
        <ele>1395.49</ele>
        <time>2012-03-16T13:37:00Z</time>
      </trkpt>
      <trkpt lat="45.66225" lon="6.55172">
        <ele>1394.53</ele>
        <time>2012-03-16T13:37:01Z</time>
      </trkpt>
      <trkpt lat="45.66223" lon="6.55171">
        <ele>1393.09</ele>
        <time>2012-03-16T13:37:02Z</time>
      </trkpt>
      <trkpt lat="45.66221" lon="6.55169">
        <ele>1392.61</ele>
        <time>2012-03-16T13:37:03Z</time>
      </trkpt>
      <trkpt lat="45.66219" lon="6.55167">
        <ele>1392.61</ele>
        <time>2012-03-16T13:37:04Z</time>
      </trkpt>
      <trkpt lat="45.66218" lon="6.55166">
        <ele>1391.65</ele>
        <time>2012-03-16T13:37:05Z</time>
      </trkpt>
      <trkpt lat="45.66214" lon="6.55163">
        <ele>1390.68</ele>
        <time>2012-03-16T13:37:07Z</time>
      </trkpt>
      <trkpt lat="45.66213" lon="6.55161">
        <ele>1389.72</ele>
        <time>2012-03-16T13:37:08Z</time>
      </trkpt>
      <trkpt lat="45.66211" lon="6.5516">
        <ele>1390.68</ele>
        <time>2012-03-16T13:37:09Z</time>
      </trkpt>
      <trkpt lat="45.66209" lon="6.55158">
        <ele>1389.72</ele>
        <time>2012-03-16T13:37:10Z</time>
      </trkpt>
      <trkpt lat="45.66207" lon="6.55156">
        <ele>1388.28</ele>
        <time>2012-03-16T13:37:11Z</time>
      </trkpt>
      <trkpt lat="45.66205" lon="6.55154">
        <ele>1388.76</ele>
        <time>2012-03-16T13:37:12Z</time>
      </trkpt>
      <trkpt lat="45.66188" lon="6.5514">
        <ele>1385.4</ele>
        <time>2012-03-16T13:37:20Z</time>
      </trkpt>
      <trkpt lat="45.66175" lon="6.5513">
        <ele>1382.03</ele>
        <time>2012-03-16T13:37:25Z</time>
      </trkpt>
      <trkpt lat="45.66157" lon="6.55113">
        <ele>1379.15</ele>
        <time>2012-03-16T13:37:31Z</time>
      </trkpt>
      <trkpt lat="45.66146" lon="6.55103">
        <ele>1377.23</ele>
        <time>2012-03-16T13:37:34Z</time>
      </trkpt>
      <trkpt lat="45.66142" lon="6.551">
        <ele>1377.71</ele>
        <time>2012-03-16T13:37:35Z</time>
      </trkpt>
      <trkpt lat="45.66136" lon="6.5509">
        <ele>1376.26</ele>
        <time>2012-03-16T13:37:38Z</time>
      </trkpt>
      <trkpt lat="45.66138" lon="6.5509">
        <ele>1374.34</ele>
        <time>2012-03-16T13:37:40Z</time>
      </trkpt>
      <trkpt lat="45.66141" lon="6.55094">
        <ele>1371.94</ele>
        <time>2012-03-16T13:37:47Z</time>
      </trkpt>
      <trkpt lat="45.66148" lon="6.5511">
        <ele>1370.5</ele>
        <time>2012-03-16T13:38:00Z</time>
      </trkpt>
      <trkpt lat="45.66186" lon="6.55117">
        <ele>1370.98</ele>
        <time>2012-03-16T13:38:12Z</time>
      </trkpt>
      <trkpt lat="45.66205" lon="6.5512">
        <ele>1370.02</ele>
        <time>2012-03-16T13:38:20Z</time>
      </trkpt>
      <trkpt lat="45.66242" lon="6.55121">
        <ele>1369.05</ele>
        <time>2012-03-16T13:38:31Z</time>
      </trkpt>
      <trkpt lat="45.6627" lon="6.55117">
        <ele>1367.13</ele>
        <time>2012-03-16T13:38:40Z</time>
      </trkpt>
      <trkpt lat="45.66298" lon="6.55114">
        <ele>1363.77</ele>
        <time>2012-03-16T13:38:49Z</time>
      </trkpt>
      <trkpt lat="45.66302" lon="6.55114">
        <ele>1364.25</ele>
        <time>2012-03-16T13:38:50Z</time>
      </trkpt>
      <trkpt lat="45.66319" lon="6.55104">
        <ele>1360.4</ele>
        <time>2012-03-16T13:38:54Z</time>
      </trkpt>
      <trkpt lat="45.66325" lon="6.55103">
        <ele>1359.44</ele>
        <time>2012-03-16T13:38:55Z</time>
      </trkpt>
      <trkpt lat="45.66328" lon="6.55099">
        <ele>1359.44</ele>
        <time>2012-03-16T13:38:56Z</time>
      </trkpt>
      <trkpt lat="45.6633" lon="6.55095">
        <ele>1358</ele>
        <time>2012-03-16T13:38:57Z</time>
      </trkpt>
      <trkpt lat="45.66331" lon="6.55093">
        <ele>1358.48</ele>
        <time>2012-03-16T13:38:58Z</time>
      </trkpt>
      <trkpt lat="45.66334" lon="6.55093">
        <ele>1357.52</ele>
        <time>2012-03-16T13:39:13Z</time>
      </trkpt>
      <trkpt lat="45.66334" lon="6.5509">
        <ele>1357.52</ele>
        <time>2012-03-16T13:39:21Z</time>
      </trkpt>
      <trkpt lat="45.66334" lon="6.55087">
        <ele>1357.52</ele>
        <time>2012-03-16T13:39:22Z</time>
      </trkpt>
      <trkpt lat="45.66336" lon="6.55085">
        <ele>1356.56</ele>
        <time>2012-03-16T13:39:23Z</time>
      </trkpt>
      <trkpt lat="45.66337" lon="6.55081">
        <ele>1356.56</ele>
        <time>2012-03-16T13:39:24Z</time>
      </trkpt>
      <trkpt lat="45.66332" lon="6.55071">
        <ele>1355.6</ele>
        <time>2012-03-16T13:39:26Z</time>
      </trkpt>
      <trkpt lat="45.6633" lon="6.55065">
        <ele>1354.63</ele>
        <time>2012-03-16T13:39:27Z</time>
      </trkpt>
      <trkpt lat="45.6633" lon="6.55058">
        <ele>1353.19</ele>
        <time>2012-03-16T13:39:28Z</time>
      </trkpt>
      <trkpt lat="45.66332" lon="6.5505">
        <ele>1351.27</ele>
        <time>2012-03-16T13:39:29Z</time>
      </trkpt>
      <trkpt lat="45.66334" lon="6.55042">
        <ele>1349.35</ele>
        <time>2012-03-16T13:39:30Z</time>
      </trkpt>
      <trkpt lat="45.66333" lon="6.55033">
        <ele>1348.87</ele>
        <time>2012-03-16T13:39:31Z</time>
      </trkpt>
      <trkpt lat="45.66328" lon="6.55018">
        <ele>1346.94</ele>
        <time>2012-03-16T13:39:33Z</time>
      </trkpt>
      <trkpt lat="45.66328" lon="6.55011">
        <ele>1346.46</ele>
        <time>2012-03-16T13:39:34Z</time>
      </trkpt>
      <trkpt lat="45.66328" lon="6.55002">
        <ele>1343.1</ele>
        <time>2012-03-16T13:39:35Z</time>
      </trkpt>
      <trkpt lat="45.66319" lon="6.54969">
        <ele>1339.73</ele>
        <time>2012-03-16T13:39:39Z</time>
      </trkpt>
      <trkpt lat="45.6632" lon="6.5496">
        <ele>1338.29</ele>
        <time>2012-03-16T13:39:40Z</time>
      </trkpt>
      <trkpt lat="45.66321" lon="6.54951">
        <ele>1336.85</ele>
        <time>2012-03-16T13:39:41Z</time>
      </trkpt>
      <trkpt lat="45.66324" lon="6.54936">
        <ele>1334.45</ele>
        <time>2012-03-16T13:39:43Z</time>
      </trkpt>
      <trkpt lat="45.66325" lon="6.54928">
        <ele>1332.52</ele>
        <time>2012-03-16T13:39:44Z</time>
      </trkpt>
      <trkpt lat="45.66329" lon="6.54895">
        <ele>1328.2</ele>
        <time>2012-03-16T13:39:49Z</time>
      </trkpt>
      <trkpt lat="45.66337" lon="6.54882">
        <ele>1324.83</ele>
        <time>2012-03-16T13:39:52Z</time>
      </trkpt>
      <trkpt lat="45.66341" lon="6.54883">
        <ele>1324.35</ele>
        <time>2012-03-16T13:39:53Z</time>
      </trkpt>
      <trkpt lat="45.66347" lon="6.54884">
        <ele>1324.35</ele>
        <time>2012-03-16T13:39:54Z</time>
      </trkpt>
      <trkpt lat="45.66357" lon="6.54879">
        <ele>1322.43</ele>
        <time>2012-03-16T13:39:56Z</time>
      </trkpt>
      <trkpt lat="45.66367" lon="6.54877">
        <ele>1321.95</ele>
        <time>2012-03-16T13:39:57Z</time>
      </trkpt>
      <trkpt lat="45.66372" lon="6.54873">
        <ele>1320.51</ele>
        <time>2012-03-16T13:39:58Z</time>
      </trkpt>
      <trkpt lat="45.66377" lon="6.54871">
        <ele>1320.03</ele>
        <time>2012-03-16T13:39:59Z</time>
      </trkpt>
      <trkpt lat="45.66391" lon="6.54871">
        <ele>1318.1</ele>
        <time>2012-03-16T13:40:02Z</time>
      </trkpt>
      <trkpt lat="45.66396" lon="6.54869">
        <ele>1317.62</ele>
        <time>2012-03-16T13:40:03Z</time>
      </trkpt>
      <trkpt lat="45.66409" lon="6.54859">
        <ele>1314.74</ele>
        <time>2012-03-16T13:40:06Z</time>
      </trkpt>
      <trkpt lat="45.66411" lon="6.54853">
        <ele>1312.82</ele>
        <time>2012-03-16T13:40:07Z</time>
      </trkpt>
      <trkpt lat="45.66414" lon="6.54849">
        <ele>1311.38</ele>
        <time>2012-03-16T13:40:08Z</time>
      </trkpt>
      <trkpt lat="45.66424" lon="6.54841">
        <ele>1308.01</ele>
        <time>2012-03-16T13:40:10Z</time>
      </trkpt>
      <trkpt lat="45.66429" lon="6.54837">
        <ele>1307.05</ele>
        <time>2012-03-16T13:40:11Z</time>
      </trkpt>
      <trkpt lat="45.66444" lon="6.54824">
        <ele>1303.2</ele>
        <time>2012-03-16T13:40:14Z</time>
      </trkpt>
      <trkpt lat="45.66454" lon="6.54809">
        <ele>1299.84</ele>
        <time>2012-03-16T13:40:16Z</time>
      </trkpt>
      <trkpt lat="45.6646" lon="6.54801">
        <ele>1298.4</ele>
        <time>2012-03-16T13:40:17Z</time>
      </trkpt>
      <trkpt lat="45.66473" lon="6.54791">
        <ele>1296.96</ele>
        <time>2012-03-16T13:40:19Z</time>
      </trkpt>
      <trkpt lat="45.6648" lon="6.54787">
        <ele>1295.51</ele>
        <time>2012-03-16T13:40:20Z</time>
      </trkpt>
      <trkpt lat="45.66488" lon="6.54783">
        <ele>1293.59</ele>
        <time>2012-03-16T13:40:21Z</time>
      </trkpt>
      <trkpt lat="45.66496" lon="6.54777">
        <ele>1291.67</ele>
        <time>2012-03-16T13:40:22Z</time>
      </trkpt>
      <trkpt lat="45.66519" lon="6.54759">
        <ele>1287.82</ele>
        <time>2012-03-16T13:40:25Z</time>
      </trkpt>
      <trkpt lat="45.66527" lon="6.54751">
        <ele>1287.34</ele>
        <time>2012-03-16T13:40:26Z</time>
      </trkpt>
      <trkpt lat="45.66535" lon="6.54743">
        <ele>1283.98</ele>
        <time>2012-03-16T13:40:27Z</time>
      </trkpt>
      <trkpt lat="45.6654" lon="6.54731">
        <ele>1283.98</ele>
        <time>2012-03-16T13:40:28Z</time>
      </trkpt>
      <trkpt lat="45.66548" lon="6.54722">
        <ele>1282.06</ele>
        <time>2012-03-16T13:40:29Z</time>
      </trkpt>
      <trkpt lat="45.6656" lon="6.54705">
        <ele>1279.17</ele>
        <time>2012-03-16T13:40:31Z</time>
      </trkpt>
      <trkpt lat="45.66566" lon="6.54695">
        <ele>1279.65</ele>
        <time>2012-03-16T13:40:32Z</time>
      </trkpt>
      <trkpt lat="45.66569" lon="6.54683">
        <ele>1277.73</ele>
        <time>2012-03-16T13:40:33Z</time>
      </trkpt>
      <trkpt lat="45.66569" lon="6.54668">
        <ele>1274.85</ele>
        <time>2012-03-16T13:40:34Z</time>
      </trkpt>
      <trkpt lat="45.6657" lon="6.54653">
        <ele>1271.96</ele>
        <time>2012-03-16T13:40:35Z</time>
      </trkpt>
      <trkpt lat="45.6657" lon="6.54637">
        <ele>1269.56</ele>
        <time>2012-03-16T13:40:36Z</time>
      </trkpt>
      <trkpt lat="45.66574" lon="6.54605">
        <ele>1265.23</ele>
        <time>2012-03-16T13:40:38Z</time>
      </trkpt>
      <trkpt lat="45.66579" lon="6.54589">
        <ele>1266.67</ele>
        <time>2012-03-16T13:40:39Z</time>
      </trkpt>
      <trkpt lat="45.66588" lon="6.54559">
        <ele>1263.31</ele>
        <time>2012-03-16T13:40:41Z</time>
      </trkpt>
      <trkpt lat="45.66597" lon="6.54533">
        <ele>1259.46</ele>
        <time>2012-03-16T13:40:43Z</time>
      </trkpt>
      <trkpt lat="45.66605" lon="6.54514">
        <ele>1255.14</ele>
        <time>2012-03-16T13:40:45Z</time>
      </trkpt>
      <trkpt lat="45.6661" lon="6.54505">
        <ele>1253.7</ele>
        <time>2012-03-16T13:40:46Z</time>
      </trkpt>
      <trkpt lat="45.66668" lon="6.54439">
        <ele>1250.81</ele>
        <time>2012-03-16T13:40:57Z</time>
      </trkpt>
      <trkpt lat="45.66728" lon="6.54413">
        <ele>1250.33</ele>
        <time>2012-03-16T13:41:05Z</time>
      </trkpt>
      <trkpt lat="45.66785" lon="6.54432">
        <ele>1251.29</ele>
        <time>2012-03-16T13:41:23Z</time>
      </trkpt>
      <trkpt lat="45.66811" lon="6.54439">
        <ele>1251.29</ele>
        <time>2012-03-16T13:41:37Z</time>
      </trkpt>
      <trkpt lat="45.66821" lon="6.54449">
        <ele>1247.93</ele>
        <time>2012-03-16T13:41:42Z</time>
      </trkpt>
      <trkpt lat="45.66821" lon="6.54449">
        <ele>1247.93</ele>
        <time>2012-03-16T13:41:43Z</time>
      </trkpt>
      <trkpt lat="45.66828" lon="6.5445">
        <ele>1245.04</ele>
        <time>2012-03-16T13:41:46Z</time>
      </trkpt>
      <trkpt lat="45.66833" lon="6.54447">
        <ele>1244.08</ele>
        <time>2012-03-16T13:41:48Z</time>
      </trkpt>
      <trkpt lat="45.66836" lon="6.54446">
        <ele>1244.56</ele>
        <time>2012-03-16T13:41:49Z</time>
      </trkpt>
      <trkpt lat="45.66846" lon="6.54467">
        <ele>1237.83</ele>
        <time>2012-03-16T13:41:54Z</time>
      </trkpt>
      <trkpt lat="45.66848" lon="6.54479">
        <ele>1236.39</ele>
        <time>2012-03-16T13:41:56Z</time>
      </trkpt>
      <trkpt lat="45.66845" lon="6.54482">
        <ele>1237.35</ele>
        <time>2012-03-16T13:41:57Z</time>
      </trkpt>
      <trkpt lat="45.66843" lon="6.54484">
        <ele>1237.35</ele>
        <time>2012-03-16T13:41:58Z</time>
      </trkpt>
      <trkpt lat="45.66844" lon="6.54493">
        <ele>1235.43</ele>
        <time>2012-03-16T13:42:02Z</time>
      </trkpt>
      <trkpt lat="45.66856" lon="6.54484">
        <ele>1231.59</ele>
        <time>2012-03-16T13:42:09Z</time>
      </trkpt>
      <trkpt lat="45.66865" lon="6.54479">
        <ele>1228.22</ele>
        <time>2012-03-16T13:42:12Z</time>
      </trkpt>
      <trkpt lat="45.66881" lon="6.5448">
        <ele>1224.38</ele>
        <time>2012-03-16T13:42:15Z</time>
      </trkpt>
      <trkpt lat="45.66899" lon="6.5448">
        <ele>1219.57</ele>
        <time>2012-03-16T13:42:18Z</time>
      </trkpt>
      <trkpt lat="45.66904" lon="6.54477">
        <ele>1218.13</ele>
        <time>2012-03-16T13:42:19Z</time>
      </trkpt>
      <trkpt lat="45.66919" lon="6.5447">
        <ele>1215.24</ele>
        <time>2012-03-16T13:42:21Z</time>
      </trkpt>
      <trkpt lat="45.66965" lon="6.54468">
        <ele>1211.88</ele>
        <time>2012-03-16T13:42:26Z</time>
      </trkpt>
      <trkpt lat="45.67" lon="6.54438">
        <ele>1209.48</ele>
        <time>2012-03-16T13:42:35Z</time>
      </trkpt>
      <trkpt lat="45.67005" lon="6.54433">
        <ele>1208.51</ele>
        <time>2012-03-16T13:42:37Z</time>
      </trkpt>
      <trkpt lat="45.6702" lon="6.54435">
        <ele>1203.71</ele>
        <time>2012-03-16T13:42:41Z</time>
      </trkpt>
      <trkpt lat="45.67037" lon="6.54442">
        <ele>1202.75</ele>
        <time>2012-03-16T13:42:49Z</time>
      </trkpt>
      <trkpt lat="45.67037" lon="6.54442">
        <ele>1197.46</ele>
        <time>2012-03-16T13:43:16Z</time>
      </trkpt>
      <trkpt lat="45.67037" lon="6.54442">
        <ele>1202.75</ele>
        <time>2012-03-16T13:43:17Z</time>
      </trkpt>
      <trkpt lat="45.67037" lon="6.54442">
        <ele>1202.75</ele>
        <time>2012-03-16T13:43:24Z</time>
      </trkpt>
      <trkpt lat="45.67039" lon="6.54442">
        <ele>1202.75</ele>
        <time>2012-03-16T13:44:11Z</time>
      </trkpt>
      <trkpt lat="45.67039" lon="6.54442">
        <ele>1206.59</ele>
        <time>2012-03-16T13:44:30Z</time>
      </trkpt>
      <trkpt lat="45.67039" lon="6.54442">
        <ele>1202.27</ele>
        <time>2012-03-16T13:44:32Z</time>
      </trkpt>
      <trkpt lat="45.67039" lon="6.54442">
        <ele>1202.75</ele>
        <time>2012-03-16T13:44:33Z</time>
      </trkpt>
      <trkpt lat="45.67039" lon="6.54443">
        <ele>1202.75</ele>
        <time>2012-03-16T13:44:56Z</time>
      </trkpt>
      <trkpt lat="45.67045" lon="6.54442">
        <ele>1201.79</ele>
        <time>2012-03-16T13:45:15Z</time>
      </trkpt>
      <trkpt lat="45.67068" lon="6.54443">
        <ele>1201.3</ele>
        <time>2012-03-16T13:45:30Z</time>
      </trkpt>
      <trkpt lat="45.67084" lon="6.54444">
        <ele>1200.82</ele>
        <time>2012-03-16T13:45:44Z</time>
      </trkpt>
      <trkpt lat="45.67088" lon="6.54445">
        <ele>1199.38</ele>
        <time>2012-03-16T13:45:47Z</time>
      </trkpt>
      <trkpt lat="45.67094" lon="6.54445">
        <ele>1198.9</ele>
        <time>2012-03-16T13:45:59Z</time>
      </trkpt>
      <trkpt lat="45.67095" lon="6.54445">
        <ele>1200.34</ele>
        <time>2012-03-16T13:46:01Z</time>
      </trkpt>
      <trkpt lat="45.67109" lon="6.54445">
        <ele>1198.9</ele>
        <time>2012-03-16T13:46:12Z</time>
      </trkpt>
      <trkpt lat="45.67121" lon="6.54445">
        <ele>1197.94</ele>
        <time>2012-03-16T13:46:24Z</time>
      </trkpt>
      <trkpt lat="45.67126" lon="6.54445">
        <ele>1196.98</ele>
        <time>2012-03-16T13:46:30Z</time>
      </trkpt>
      <trkpt lat="45.67142" lon="6.54445">
        <ele>1195.54</ele>
        <time>2012-03-16T13:46:42Z</time>
      </trkpt>
      <trkpt lat="45.67156" lon="6.54438">
        <ele>1196.02</ele>
        <time>2012-03-16T13:46:54Z</time>
      </trkpt>
      <trkpt lat="45.67156" lon="6.54437">
        <ele>1195.54</ele>
        <time>2012-03-16T13:46:58Z</time>
      </trkpt>
      <trkpt lat="45.67156" lon="6.54436">
        <ele>1194.58</ele>
        <time>2012-03-16T13:47:20Z</time>
      </trkpt>
      <trkpt lat="45.6716" lon="6.54428">
        <ele>1194.09</ele>
        <time>2012-03-16T13:47:54Z</time>
      </trkpt>
      <trkpt lat="45.67161" lon="6.54429">
        <ele>1194.09</ele>
        <time>2012-03-16T13:48:06Z</time>
      </trkpt>
      <trkpt lat="45.67167" lon="6.54433">
        <ele>1193.13</ele>
        <time>2012-03-16T13:48:28Z</time>
      </trkpt>
      <trkpt lat="45.67173" lon="6.54435">
        <ele>1192.65</ele>
        <time>2012-03-16T13:48:43Z</time>
      </trkpt>
      <trkpt lat="45.67175" lon="6.54438">
        <ele>1192.17</ele>
        <time>2012-03-16T13:49:33Z</time>
      </trkpt>
      <trkpt lat="45.67176" lon="6.54438">
        <ele>1188.81</ele>
        <time>2012-03-16T13:51:55Z</time>
      </trkpt>
      <trkpt lat="45.67176" lon="6.54437">
        <ele>1182.56</ele>
        <time>2012-03-16T13:52:19Z</time>
      </trkpt>
      <trkpt lat="45.67176" lon="6.54437">
        <ele>1190.73</ele>
        <time>2012-03-16T13:52:20Z</time>
      </trkpt>
      <trkpt lat="45.67176" lon="6.54437">
        <ele>1188.81</ele>
        <time>2012-03-16T13:52:51Z</time>
      </trkpt>
      <trkpt lat="45.67176" lon="6.54437">
        <ele>1187.85</ele>
        <time>2012-03-16T13:53:44Z</time>
      </trkpt>
      <trkpt lat="45.67176" lon="6.54438">
        <ele>1187.37</ele>
        <time>2012-03-16T13:54:47Z</time>
      </trkpt>
      <trkpt lat="45.67175" lon="6.54432">
        <ele>1185.92</ele>
        <time>2012-03-16T13:55:58Z</time>
      </trkpt>
      <trkpt lat="45.67176" lon="6.54432">
        <ele>1186.4</ele>
        <time>2012-03-16T13:56:36Z</time>
      </trkpt>
      <trkpt lat="45.67179" lon="6.54433">
        <ele>1185.44</ele>
        <time>2012-03-16T13:57:04Z</time>
      </trkpt>
      <trkpt lat="45.67183" lon="6.54434">
        <ele>1185.44</ele>
        <time>2012-03-16T13:57:16Z</time>
      </trkpt>
      <trkpt lat="45.67187" lon="6.54435">
        <ele>1184</ele>
        <time>2012-03-16T13:57:39Z</time>
      </trkpt>
      <trkpt lat="45.67196" lon="6.54438">
        <ele>1184</ele>
        <time>2012-03-16T13:57:51Z</time>
      </trkpt>
      <trkpt lat="45.67198" lon="6.54438">
        <ele>1184</ele>
        <time>2012-03-16T13:58:10Z</time>
      </trkpt>
      <trkpt lat="45.67202" lon="6.5444">
        <ele>1183.52</ele>
        <time>2012-03-16T13:58:29Z</time>
      </trkpt>
      <trkpt lat="45.67198" lon="6.54438">
        <ele>1183.52</ele>
        <time>2012-03-16T13:59:02Z</time>
      </trkpt>
      <trkpt lat="45.67193" lon="6.54437">
        <ele>1184</ele>
        <time>2012-03-16T13:59:19Z</time>
      </trkpt>
      <trkpt lat="45.67186" lon="6.54435">
        <ele>1184</ele>
        <time>2012-03-16T13:59:32Z</time>
      </trkpt>
      <trkpt lat="45.67182" lon="6.54432">
        <ele>1184</ele>
        <time>2012-03-16T13:59:51Z</time>
      </trkpt>
      <trkpt lat="45.6718" lon="6.54435">
        <ele>1184.48</ele>
        <time>2012-03-16T14:00:04Z</time>
      </trkpt>
      <trkpt lat="45.6718" lon="6.54436">
        <ele>1183.52</ele>
        <time>2012-03-16T14:00:06Z</time>
      </trkpt>
      <trkpt lat="45.6718" lon="6.54436">
        <ele>1177.75</ele>
        <time>2012-03-16T14:00:20Z</time>
      </trkpt>
      <trkpt lat="45.6718" lon="6.54436">
        <ele>1184.48</ele>
        <time>2012-03-16T14:00:21Z</time>
      </trkpt>
      <trkpt lat="45.67182" lon="6.54433">
        <ele>1183.04</ele>
        <time>2012-03-16T14:00:32Z</time>
      </trkpt>
      <trkpt lat="45.67182" lon="6.54433">
        <ele>1183.04</ele>
        <time>2012-03-16T14:00:59Z</time>
      </trkpt>
      <trkpt lat="45.67182" lon="6.54433">
        <ele>1180.16</ele>
        <time>2012-03-16T14:01:41Z</time>
      </trkpt>
      <trkpt lat="45.67182" lon="6.54433">
        <ele>1190.73</ele>
        <time>2012-03-16T14:01:42Z</time>
      </trkpt>
      <trkpt lat="45.67182" lon="6.54433">
        <ele>1184</ele>
        <time>2012-03-16T14:01:43Z</time>
      </trkpt>
      <trkpt lat="45.67183" lon="6.54433">
        <ele>1182.08</ele>
        <time>2012-03-16T14:02:53Z</time>
      </trkpt>
      <trkpt lat="45.67182" lon="6.54433">
        <ele>1181.6</ele>
        <time>2012-03-16T14:03:21Z</time>
      </trkpt>
      <trkpt lat="45.67183" lon="6.54433">
        <ele>1182.08</ele>
        <time>2012-03-16T14:03:58Z</time>
      </trkpt>
      <trkpt lat="45.6718" lon="6.54436">
        <ele>1182.08</ele>
        <time>2012-03-16T14:04:16Z</time>
      </trkpt>
      <trkpt lat="45.67179" lon="6.54437">
        <ele>1181.12</ele>
        <time>2012-03-16T14:04:32Z</time>
      </trkpt>
      <trkpt lat="45.67177" lon="6.54433">
        <ele>1181.6</ele>
        <time>2012-03-16T14:04:54Z</time>
      </trkpt>
      <trkpt lat="45.67167" lon="6.54431">
        <ele>1182.08</ele>
        <time>2012-03-16T14:05:08Z</time>
      </trkpt>
      <trkpt lat="45.67158" lon="6.54437">
        <ele>1181.12</ele>
        <time>2012-03-16T14:05:21Z</time>
      </trkpt>
      <trkpt lat="45.67158" lon="6.54438">
        <ele>1182.08</ele>
        <time>2012-03-16T14:05:42Z</time>
      </trkpt>
      <trkpt lat="45.67163" lon="6.54431">
        <ele>1181.12</ele>
        <time>2012-03-16T14:05:56Z</time>
      </trkpt>
      <trkpt lat="45.67165" lon="6.5443">
        <ele>1181.12</ele>
        <time>2012-03-16T14:05:59Z</time>
      </trkpt>
      <trkpt lat="45.67181" lon="6.54434">
        <ele>1180.16</ele>
        <time>2012-03-16T14:06:13Z</time>
      </trkpt>
      <trkpt lat="45.67191" lon="6.54438">
        <ele>1180.16</ele>
        <time>2012-03-16T14:06:28Z</time>
      </trkpt>
      <trkpt lat="45.67195" lon="6.54439">
        <ele>1179.19</ele>
        <time>2012-03-16T14:06:42Z</time>
      </trkpt>
      <trkpt lat="45.672" lon="6.54442">
        <ele>1178.71</ele>
        <time>2012-03-16T14:07:15Z</time>
      </trkpt>
      <trkpt lat="45.67214" lon="6.54443">
        <ele>1177.75</ele>
        <time>2012-03-16T14:07:29Z</time>
      </trkpt>
      <trkpt lat="45.67228" lon="6.54436">
        <ele>1178.71</ele>
        <time>2012-03-16T14:07:43Z</time>
      </trkpt>
      <trkpt lat="45.6723" lon="6.54433">
        <ele>1179.19</ele>
        <time>2012-03-16T14:07:46Z</time>
      </trkpt>
      <trkpt lat="45.6724" lon="6.54415">
        <ele>1181.6</ele>
        <time>2012-03-16T14:08:02Z</time>
      </trkpt>
      <trkpt lat="45.6724" lon="6.54414">
        <ele>1180.64</ele>
        <time>2012-03-16T14:08:03Z</time>
      </trkpt>
      <trkpt lat="45.6724" lon="6.54411">
        <ele>1179.67</ele>
        <time>2012-03-16T14:08:08Z</time>
      </trkpt>
      <trkpt lat="45.67251" lon="6.54403">
        <ele>1181.12</ele>
        <time>2012-03-16T14:08:21Z</time>
      </trkpt>
      <trkpt lat="45.67261" lon="6.544">
        <ele>1181.12</ele>
        <time>2012-03-16T14:08:34Z</time>
      </trkpt>
      <trkpt lat="45.67269" lon="6.544">
        <ele>1181.6</ele>
        <time>2012-03-16T14:08:47Z</time>
      </trkpt>
      <trkpt lat="45.67275" lon="6.544">
        <ele>1182.08</ele>
        <time>2012-03-16T14:08:51Z</time>
      </trkpt>
      <trkpt lat="45.67283" lon="6.544">
        <ele>1184</ele>
        <time>2012-03-16T14:09:05Z</time>
      </trkpt>
      <trkpt lat="45.67284" lon="6.54399">
        <ele>1183.52</ele>
        <time>2012-03-16T14:09:21Z</time>
      </trkpt>
      <trkpt lat="45.67284" lon="6.54399">
        <ele>1180.16</ele>
        <time>2012-03-16T14:09:41Z</time>
      </trkpt>
      <trkpt lat="45.67284" lon="6.54399">
        <ele>1186.88</ele>
        <time>2012-03-16T14:09:43Z</time>
      </trkpt>
      <trkpt lat="45.67284" lon="6.54399">
        <ele>1183.52</ele>
        <time>2012-03-16T14:09:44Z</time>
      </trkpt>
      <trkpt lat="45.67284" lon="6.54399">
        <ele>1186.88</ele>
        <time>2012-03-16T14:09:45Z</time>
      </trkpt>
      <trkpt lat="45.67284" lon="6.54399">
        <ele>1183.52</ele>
        <time>2012-03-16T14:09:47Z</time>
      </trkpt>
      <trkpt lat="45.67284" lon="6.54399">
        <ele>1183.52</ele>
        <time>2012-03-16T14:09:48Z</time>
      </trkpt>
      <trkpt lat="45.67284" lon="6.54399">
        <ele>1179.67</ele>
        <time>2012-03-16T14:10:04Z</time>
      </trkpt>
      <trkpt lat="45.67284" lon="6.54399">
        <ele>1181.12</ele>
        <time>2012-03-16T14:10:05Z</time>
      </trkpt>
      <trkpt lat="45.67284" lon="6.54399">
        <ele>1184.48</ele>
        <time>2012-03-16T14:10:06Z</time>
      </trkpt>
      <trkpt lat="45.67284" lon="6.54399">
        <ele>1184.48</ele>
        <time>2012-03-16T14:10:07Z</time>
      </trkpt>
      <trkpt lat="45.67284" lon="6.54399">
        <ele>1182.56</ele>
        <time>2012-03-16T14:10:13Z</time>
      </trkpt>
      <trkpt lat="45.67284" lon="6.54399">
        <ele>1181.6</ele>
        <time>2012-03-16T14:10:34Z</time>
      </trkpt>
      <trkpt lat="45.67284" lon="6.54408">
        <ele>1181.6</ele>
        <time>2012-03-16T14:10:38Z</time>
      </trkpt>
      <trkpt lat="45.67284" lon="6.54418">
        <ele>1180.64</ele>
        <time>2012-03-16T14:10:40Z</time>
      </trkpt>
      <trkpt lat="45.67283" lon="6.54441">
        <ele>1177.27</ele>
        <time>2012-03-16T14:10:43Z</time>
      </trkpt>
      <trkpt lat="45.67283" lon="6.54451">
        <ele>1177.27</ele>
        <time>2012-03-16T14:10:44Z</time>
      </trkpt>
      <trkpt lat="45.67283" lon="6.54473">
        <ele>1174.87</ele>
        <time>2012-03-16T14:10:46Z</time>
      </trkpt>
      <trkpt lat="45.67284" lon="6.54485">
        <ele>1172.95</ele>
        <time>2012-03-16T14:10:47Z</time>
      </trkpt>
      <trkpt lat="45.67285" lon="6.54497">
        <ele>1171.98</ele>
        <time>2012-03-16T14:10:48Z</time>
      </trkpt>
      <trkpt lat="45.67288" lon="6.54509">
        <ele>1171.5</ele>
        <time>2012-03-16T14:10:49Z</time>
      </trkpt>
      <trkpt lat="45.67291" lon="6.5452">
        <ele>1170.06</ele>
        <time>2012-03-16T14:10:50Z</time>
      </trkpt>
      <trkpt lat="45.67305" lon="6.5456">
        <ele>1166.7</ele>
        <time>2012-03-16T14:10:54Z</time>
      </trkpt>
      <trkpt lat="45.67308" lon="6.5457">
        <ele>1167.18</ele>
        <time>2012-03-16T14:10:55Z</time>
      </trkpt>
      <trkpt lat="45.67315" lon="6.54597">
        <ele>1166.22</ele>
        <time>2012-03-16T14:10:58Z</time>
      </trkpt>
      <trkpt lat="45.67334" lon="6.54662">
        <ele>1164.29</ele>
        <time>2012-03-16T14:11:09Z</time>
      </trkpt>
      <trkpt lat="45.67356" lon="6.54688">
        <ele>1163.33</ele>
        <time>2012-03-16T14:11:20Z</time>
      </trkpt>
      <trkpt lat="45.67392" lon="6.54704">
        <ele>1161.41</ele>
        <time>2012-03-16T14:11:33Z</time>
      </trkpt>
      <trkpt lat="45.67421" lon="6.54726">
        <ele>1159.97</ele>
        <time>2012-03-16T14:11:44Z</time>
      </trkpt>
      <trkpt lat="45.67424" lon="6.54732">
        <ele>1158.05</ele>
        <time>2012-03-16T14:11:45Z</time>
      </trkpt>
      <trkpt lat="45.67432" lon="6.5475">
        <ele>1154.2</ele>
        <time>2012-03-16T14:11:47Z</time>
      </trkpt>
      <trkpt lat="45.67447" lon="6.54791">
        <ele>1145.55</ele>
        <time>2012-03-16T14:11:50Z</time>
      </trkpt>
      <trkpt lat="45.67456" lon="6.54821">
        <ele>1141.7</ele>
        <time>2012-03-16T14:11:52Z</time>
      </trkpt>
      <trkpt lat="45.67475" lon="6.54862">
        <ele>1139.3</ele>
        <time>2012-03-16T14:11:55Z</time>
      </trkpt>
      <trkpt lat="45.67483" lon="6.54873">
        <ele>1137.38</ele>
        <time>2012-03-16T14:11:56Z</time>
      </trkpt>
      <trkpt lat="45.67507" lon="6.54904">
        <ele>1134.97</ele>
        <time>2012-03-16T14:11:59Z</time>
      </trkpt>
      <trkpt lat="45.67514" lon="6.54914">
        <ele>1134.97</ele>
        <time>2012-03-16T14:12:00Z</time>
      </trkpt>
      <trkpt lat="45.67526" lon="6.54934">
        <ele>1134.01</ele>
        <time>2012-03-16T14:12:02Z</time>
      </trkpt>
      <trkpt lat="45.6753" lon="6.54946">
        <ele>1132.57</ele>
        <time>2012-03-16T14:12:03Z</time>
      </trkpt>
      <trkpt lat="45.67539" lon="6.54969">
        <ele>1132.09</ele>
        <time>2012-03-16T14:12:05Z</time>
      </trkpt>
      <trkpt lat="45.6755" lon="6.55003">
        <ele>1128.24</ele>
        <time>2012-03-16T14:12:08Z</time>
      </trkpt>
      <trkpt lat="45.67565" lon="6.55048">
        <ele>1124.88</ele>
        <time>2012-03-16T14:12:12Z</time>
      </trkpt>
      <trkpt lat="45.67578" lon="6.55081">
        <ele>1121.03</ele>
        <time>2012-03-16T14:12:15Z</time>
      </trkpt>
      <trkpt lat="45.67589" lon="6.55116">
        <ele>1118.15</ele>
        <time>2012-03-16T14:12:18Z</time>
      </trkpt>
      <trkpt lat="45.67591" lon="6.55126">
        <ele>1117.67</ele>
        <time>2012-03-16T14:12:19Z</time>
      </trkpt>
      <trkpt lat="45.67591" lon="6.55135">
        <ele>1118.63</ele>
        <time>2012-03-16T14:12:20Z</time>
      </trkpt>
      <trkpt lat="45.67592" lon="6.55145">
        <ele>1118.63</ele>
        <time>2012-03-16T14:12:21Z</time>
      </trkpt>
      <trkpt lat="45.67593" lon="6.55154">
        <ele>1118.15</ele>
        <time>2012-03-16T14:12:22Z</time>
      </trkpt>
      <trkpt lat="45.67595" lon="6.55162">
        <ele>1118.15</ele>
        <time>2012-03-16T14:12:23Z</time>
      </trkpt>
      <trkpt lat="45.67597" lon="6.5517">
        <ele>1117.19</ele>
        <time>2012-03-16T14:12:24Z</time>
      </trkpt>
      <trkpt lat="45.676" lon="6.55177">
        <ele>1117.19</ele>
        <time>2012-03-16T14:12:25Z</time>
      </trkpt>
      <trkpt lat="45.6761" lon="6.55196">
        <ele>1115.75</ele>
        <time>2012-03-16T14:12:28Z</time>
      </trkpt>
      <trkpt lat="45.67624" lon="6.55226">
        <ele>1114.31</ele>
        <time>2012-03-16T14:12:33Z</time>
      </trkpt>
      <trkpt lat="45.67635" lon="6.55247">
        <ele>1113.34</ele>
        <time>2012-03-16T14:12:37Z</time>
      </trkpt>
      <trkpt lat="45.67662" lon="6.55298">
        <ele>1109.98</ele>
        <time>2012-03-16T14:12:47Z</time>
      </trkpt>
      <trkpt lat="45.67687" lon="6.55339">
        <ele>1108.06</ele>
        <time>2012-03-16T14:12:57Z</time>
      </trkpt>
      <trkpt lat="45.67701" lon="6.55362">
        <ele>1106.13</ele>
        <time>2012-03-16T14:13:03Z</time>
      </trkpt>
      <trkpt lat="45.67723" lon="6.55393">
        <ele>1104.69</ele>
        <time>2012-03-16T14:13:11Z</time>
      </trkpt>
      <trkpt lat="45.67756" lon="6.55444">
        <ele>1100.85</ele>
        <time>2012-03-16T14:13:22Z</time>
      </trkpt>
      <trkpt lat="45.67796" lon="6.55497">
        <ele>1097.48</ele>
        <time>2012-03-16T14:13:36Z</time>
      </trkpt>
      <trkpt lat="45.67816" lon="6.55517">
        <ele>1096.52</ele>
        <time>2012-03-16T14:13:42Z</time>
      </trkpt>
      <trkpt lat="45.6785" lon="6.55553">
        <ele>1094.12</ele>
        <time>2012-03-16T14:13:53Z</time>
      </trkpt>
      <trkpt lat="45.67869" lon="6.55573">
        <ele>1092.68</ele>
        <time>2012-03-16T14:13:59Z</time>
      </trkpt>
      <trkpt lat="45.67872" lon="6.55576">
        <ele>1092.2</ele>
        <time>2012-03-16T14:14:00Z</time>
      </trkpt>
      <trkpt lat="45.6788" lon="6.55585">
        <ele>1091.23</ele>
        <time>2012-03-16T14:14:02Z</time>
      </trkpt>
      <trkpt lat="45.67914" lon="6.55624">
        <ele>1087.87</ele>
        <time>2012-03-16T14:14:11Z</time>
      </trkpt>
      <trkpt lat="45.67943" lon="6.55654">
        <ele>1086.43</ele>
        <time>2012-03-16T14:14:22Z</time>
      </trkpt>
      <trkpt lat="45.67969" lon="6.55678">
        <ele>1084.5</ele>
        <time>2012-03-16T14:14:31Z</time>
      </trkpt>
      <trkpt lat="45.67973" lon="6.55682">
        <ele>1084.02</ele>
        <time>2012-03-16T14:14:32Z</time>
      </trkpt>
      <trkpt lat="45.67977" lon="6.55686">
        <ele>1083.54</ele>
        <time>2012-03-16T14:14:33Z</time>
      </trkpt>
      <trkpt lat="45.6801" lon="6.55711">
        <ele>1083.06</ele>
        <time>2012-03-16T14:14:42Z</time>
      </trkpt>
      <trkpt lat="45.68024" lon="6.55735">
        <ele>1083.54</ele>
        <time>2012-03-16T14:14:53Z</time>
      </trkpt>
      <trkpt lat="45.68029" lon="6.55775">
        <ele>1080.18</ele>
        <time>2012-03-16T14:14:59Z</time>
      </trkpt>
      <trkpt lat="45.68034" lon="6.55797">
        <ele>1076.81</ele>
        <time>2012-03-16T14:15:01Z</time>
      </trkpt>
      <trkpt lat="45.68044" lon="6.55832">
        <ele>1073.45</ele>
        <time>2012-03-16T14:15:04Z</time>
      </trkpt>
      <trkpt lat="45.68055" lon="6.55871">
        <ele>1069.6</ele>
        <time>2012-03-16T14:15:07Z</time>
      </trkpt>
      <trkpt lat="45.68062" lon="6.55901">
        <ele>1065.76</ele>
        <time>2012-03-16T14:15:09Z</time>
      </trkpt>
      <trkpt lat="45.68067" lon="6.55915">
        <ele>1063.84</ele>
        <time>2012-03-16T14:15:10Z</time>
      </trkpt>
      <trkpt lat="45.68073" lon="6.55928">
        <ele>1061.91</ele>
        <time>2012-03-16T14:15:11Z</time>
      </trkpt>
      <trkpt lat="45.68091" lon="6.55941">
        <ele>1060.95</ele>
        <time>2012-03-16T14:15:13Z</time>
      </trkpt>
      <trkpt lat="45.68127" lon="6.55967">
        <ele>1058.07</ele>
        <time>2012-03-16T14:15:18Z</time>
      </trkpt>
      <trkpt lat="45.68155" lon="6.56003">
        <ele>1054.7</ele>
        <time>2012-03-16T14:15:23Z</time>
      </trkpt>
      <trkpt lat="45.68179" lon="6.56033">
        <ele>1050.86</ele>
        <time>2012-03-16T14:15:27Z</time>
      </trkpt>
      <trkpt lat="45.68191" lon="6.5605">
        <ele>1048.94</ele>
        <time>2012-03-16T14:15:29Z</time>
      </trkpt>
      <trkpt lat="45.6821" lon="6.56081">
        <ele>1047.49</ele>
        <time>2012-03-16T14:15:33Z</time>
      </trkpt>
      <trkpt lat="45.68237" lon="6.56122">
        <ele>1044.61</ele>
        <time>2012-03-16T14:15:39Z</time>
      </trkpt>
      <trkpt lat="45.68271" lon="6.56168">
        <ele>1040.76</ele>
        <time>2012-03-16T14:15:47Z</time>
      </trkpt>
      <trkpt lat="45.68275" lon="6.56173">
        <ele>1040.76</ele>
        <time>2012-03-16T14:15:48Z</time>
      </trkpt>
      <trkpt lat="45.68298" lon="6.56191">
        <ele>1038.84</ele>
        <time>2012-03-16T14:15:53Z</time>
      </trkpt>
      <trkpt lat="45.68335" lon="6.56219">
        <ele>1035.48</ele>
        <time>2012-03-16T14:16:01Z</time>
      </trkpt>
      <trkpt lat="45.6834" lon="6.56222">
        <ele>1035.48</ele>
        <time>2012-03-16T14:16:02Z</time>
      </trkpt>
      <trkpt lat="45.68354" lon="6.56231">
        <ele>1034.04</ele>
        <time>2012-03-16T14:16:05Z</time>
      </trkpt>
      <trkpt lat="45.68368" lon="6.56241">
        <ele>1032.59</ele>
        <time>2012-03-16T14:16:08Z</time>
      </trkpt>
      <trkpt lat="45.68386" lon="6.5625">
        <ele>1031.15</ele>
        <time>2012-03-16T14:16:12Z</time>
      </trkpt>
      <trkpt lat="45.68388" lon="6.56252">
        <ele>1031.15</ele>
        <time>2012-03-16T14:16:13Z</time>
      </trkpt>
      <trkpt lat="45.68387" lon="6.56255">
        <ele>1031.63</ele>
        <time>2012-03-16T14:16:26Z</time>
      </trkpt>
      <trkpt lat="45.68387" lon="6.56255">
        <ele>1030.19</ele>
        <time>2012-03-16T14:16:41Z</time>
      </trkpt>
      <trkpt lat="45.68389" lon="6.56254">
        <ele>1030.19</ele>
        <time>2012-03-16T14:17:02Z</time>
      </trkpt>
      <trkpt lat="45.68388" lon="6.56257">
        <ele>1030.19</ele>
        <time>2012-03-16T14:17:06Z</time>
      </trkpt>
      <trkpt lat="45.6839" lon="6.56265">
        <ele>1029.23</ele>
        <time>2012-03-16T14:17:13Z</time>
      </trkpt>
      <trkpt lat="45.6839" lon="6.56268">
        <ele>1030.19</ele>
        <time>2012-03-16T14:17:15Z</time>
      </trkpt>
      <trkpt lat="45.6839" lon="6.5627">
        <ele>1028.75</ele>
        <time>2012-03-16T14:17:17Z</time>
      </trkpt>
      <trkpt lat="45.68394" lon="6.56286">
        <ele>1028.75</ele>
        <time>2012-03-16T14:17:27Z</time>
      </trkpt>
      <trkpt lat="45.68394" lon="6.56289">
        <ele>1028.27</ele>
        <time>2012-03-16T14:17:29Z</time>
      </trkpt>
      <trkpt lat="45.68396" lon="6.56295">
        <ele>1027.79</ele>
        <time>2012-03-16T14:17:33Z</time>
      </trkpt>
      <trkpt lat="45.68399" lon="6.56306">
        <ele>1027.79</ele>
        <time>2012-03-16T14:17:46Z</time>
      </trkpt>
      <trkpt lat="45.68399" lon="6.56304">
        <ele>1026.83</ele>
        <time>2012-03-16T14:18:02Z</time>
      </trkpt>
      <trkpt lat="45.68399" lon="6.56304">
        <ele>1023.46</ele>
        <time>2012-03-16T14:18:20Z</time>
      </trkpt>
      <trkpt lat="45.68399" lon="6.56304">
        <ele>1027.31</ele>
        <time>2012-03-16T14:18:21Z</time>
      </trkpt>
      <trkpt lat="45.684" lon="6.56302">
        <ele>1023.94</ele>
        <time>2012-03-16T14:18:23Z</time>
      </trkpt>
      <trkpt lat="45.68401" lon="6.56301">
        <ele>1029.23</ele>
        <time>2012-03-16T14:18:24Z</time>
      </trkpt>
      <trkpt lat="45.68402" lon="6.563">
        <ele>1027.79</ele>
        <time>2012-03-16T14:18:25Z</time>
      </trkpt>
      <trkpt lat="45.68403" lon="6.56297">
        <ele>1026.83</ele>
        <time>2012-03-16T14:18:44Z</time>
      </trkpt>
      <trkpt lat="45.68403" lon="6.56298">
        <ele>1025.38</ele>
        <time>2012-03-16T14:19:45Z</time>
      </trkpt>
      <trkpt lat="45.68403" lon="6.56298">
        <ele>1022.02</ele>
        <time>2012-03-16T14:19:48Z</time>
      </trkpt>
      <trkpt lat="45.68403" lon="6.56298">
        <ele>1026.83</ele>
        <time>2012-03-16T14:19:49Z</time>
      </trkpt>
      <trkpt lat="45.68401" lon="6.56303">
        <ele>1026.83</ele>
        <time>2012-03-16T14:20:33Z</time>
      </trkpt>
      <trkpt lat="45.68399" lon="6.56304">
        <ele>1021.06</ele>
        <time>2012-03-16T14:21:09Z</time>
      </trkpt>
      <trkpt lat="45.68399" lon="6.56304">
        <ele>1026.34</ele>
        <time>2012-03-16T14:21:10Z</time>
      </trkpt>
      <trkpt lat="45.68399" lon="6.56304">
        <ele>1022.98</ele>
        <time>2012-03-16T14:21:13Z</time>
      </trkpt>
      <trkpt lat="45.68399" lon="6.56304">
        <ele>1026.34</ele>
        <time>2012-03-16T14:21:14Z</time>
      </trkpt>
      <trkpt lat="45.68399" lon="6.56304">
        <ele>1026.34</ele>
        <time>2012-03-16T14:21:20Z</time>
      </trkpt>
      <trkpt lat="45.68399" lon="6.56305">
        <ele>1025.86</ele>
        <time>2012-03-16T14:21:50Z</time>
      </trkpt>
      <trkpt lat="45.68399" lon="6.56305">
        <ele>1031.63</ele>
        <time>2012-03-16T14:21:51Z</time>
      </trkpt>
      <trkpt lat="45.68399" lon="6.56305">
        <ele>1026.83</ele>
        <time>2012-03-16T14:21:52Z</time>
      </trkpt>
      <trkpt lat="45.68399" lon="6.56305">
        <ele>1021.54</ele>
        <time>2012-03-16T14:21:55Z</time>
      </trkpt>
      <trkpt lat="45.68399" lon="6.56305">
        <ele>1023.46</ele>
        <time>2012-03-16T14:21:56Z</time>
      </trkpt>
      <trkpt lat="45.68399" lon="6.56305">
        <ele>1028.75</ele>
        <time>2012-03-16T14:21:57Z</time>
      </trkpt>
      <trkpt lat="45.68399" lon="6.56305">
        <ele>1026.34</ele>
        <time>2012-03-16T14:21:58Z</time>
      </trkpt>
      <trkpt lat="45.68399" lon="6.56305">
        <ele>1021.06</ele>
        <time>2012-03-16T14:22:06Z</time>
      </trkpt>
      <trkpt lat="45.68399" lon="6.56305">
        <ele>1026.83</ele>
        <time>2012-03-16T14:22:07Z</time>
      </trkpt>
      <trkpt lat="45.684" lon="6.56305">
        <ele>1026.34</ele>
        <time>2012-03-16T14:22:24Z</time>
      </trkpt>
      <trkpt lat="45.684" lon="6.56303">
        <ele>1022.98</ele>
        <time>2012-03-16T14:24:10Z</time>
      </trkpt>
    </trkseg>
  </trk>
</gpx>